<?xml version='1.0' encoding='UTF-8'?><gpx version="1.1" creator="JPX - https://github.com/jenetics/jpx" xmlns="http://www.topografix.com/GPX/1/1"><trk><trkseg><trkpt lat="47.727758124301154" lon="-1.729571324476424"><ele>57.0</ele><time>2026-03-26T09:37:13Z</time></trkpt><trkpt lat="47.727801389430546" lon="-1.7296539183256023"><ele>57.0</ele><time>2026-03-26T09:37:14Z</time></trkpt><trkpt lat="47.72806409944831" lon="-1.7296244567479184"><ele>57.0</ele><time>2026-03-26T09:37:32.999Z</time></trkpt><trkpt lat="47.72817013501207" lon="-1.7295834322474855"><ele>57.0</ele><time>2026-03-26T09:37:34.999Z</time></trkpt><trkpt lat="47.72824087449877" lon="-1.7295606210550187"><ele>57.0</ele><time>2026-03-26T09:37:35.999Z</time></trkpt><trkpt lat="47.728309245577194" lon="-1.7295385736150657"><ele>57.0</ele><time>2026-03-26T09:37:37.999Z</time></trkpt><trkpt lat="47.72839250015257" lon="-1.7297284890954059"><ele>57.0</ele><time>2026-03-26T09:37:39.999Z</time></trkpt><trkpt lat="47.72842624391172" lon="-1.729875582605384"><ele>57.0</ele><time>2026-03-26T09:37:41.999Z</time></trkpt><trkpt lat="47.728447945543685" lon="-1.7299807916060979"><ele>57.0</ele><time>2026-03-26T09:37:43.999Z</time></trkpt><trkpt lat="47.728323748417054" lon="-1.7300908977214697"><ele>57.0</ele><time>2026-03-26T09:37:45.999Z</time></trkpt><trkpt lat="47.72825186895861" lon="-1.730118909345452"><ele>57.0</ele><time>2026-03-26T09:37:46.999Z</time></trkpt><trkpt lat="47.7281738810305" lon="-1.7301499433346499"><ele>57.0</ele><time>2026-03-26T09:37:47.999Z</time></trkpt><trkpt lat="47.72807611398085" lon="-1.730199056305517"><ele>57.0</ele><time>2026-03-26T09:37:48.999Z</time></trkpt><trkpt lat="47.727971364050006" lon="-1.7302572687297446"><ele>57.0</ele><time>2026-03-26T09:37:49.999Z</time></trkpt><trkpt lat="47.727880458165785" lon="-1.7303042056235527"><ele>57.0</ele><time>2026-03-26T09:37:50.999Z</time></trkpt><trkpt lat="47.72779276650378" lon="-1.7303472440285639"><ele>57.0</ele><time>2026-03-26T09:37:51.999Z</time></trkpt><trkpt lat="47.72770367801966" lon="-1.7303871777011102"><ele>57.0</ele><time>2026-03-26T09:37:52.999Z</time></trkpt><trkpt lat="47.72761445369076" lon="-1.7304339983013353"><ele>57.0</ele><time>2026-03-26T09:37:53.999Z</time></trkpt><trkpt lat="47.72753226438799" lon="-1.7304844301276303"><ele>57.0</ele><time>2026-03-26T09:37:54.999Z</time></trkpt><trkpt lat="47.72746146823803" lon="-1.7305191569061564"><ele>57.0</ele><time>2026-03-26T09:37:55.999Z</time></trkpt><trkpt lat="47.72738394266738" lon="-1.7305782186859828"><ele>56.6</ele><time>2026-03-26T09:37:56.999Z</time></trkpt><trkpt lat="47.72730258751124" lon="-1.7306157158096704"><ele>56.2</ele><time>2026-03-26T09:37:57.999Z</time></trkpt><trkpt lat="47.72721339809012" lon="-1.7306370223007246"><ele>55.8</ele><time>2026-03-26T09:37:58.999Z</time></trkpt><trkpt lat="47.72711887217255" lon="-1.7306832276981632"><ele>55.4</ele><time>2026-03-26T09:37:59.999Z</time></trkpt><trkpt lat="47.7270256734942" lon="-1.7307308713227536"><ele>55.0</ele><time>2026-03-26T09:38:00.999Z</time></trkpt><trkpt lat="47.72692906749337" lon="-1.7307824731987134"><ele>55.2</ele><time>2026-03-26T09:38:01.999Z</time></trkpt><trkpt lat="47.72684905668003" lon="-1.7308421455138596"><ele>55.4</ele><time>2026-03-26T09:38:02.999Z</time></trkpt><trkpt lat="47.726783074337106" lon="-1.7308777994227136"><ele>55.599999999999994</ele><time>2026-03-26T09:38:03.999Z</time></trkpt><trkpt lat="47.72667811741735" lon="-1.7309084134947073"><ele>55.8</ele><time>2026-03-26T09:38:05.999Z</time></trkpt><trkpt lat="47.726648389082726" lon="-1.7310661737827808"><ele>56.0</ele><time>2026-03-26T09:38:11.999Z</time></trkpt><trkpt lat="47.726689986810705" lon="-1.731159761589238"><ele>57.00000000000001</ele><time>2026-03-26T09:38:12.999Z</time></trkpt><trkpt lat="47.72668585572796" lon="-1.7313223888444462"><ele>58.0</ele><time>2026-03-26T09:38:15.001Z</time></trkpt><trkpt lat="47.72668283284056" lon="-1.7314251974616"><ele>59.0</ele><time>2026-03-26T09:38:16.001Z</time></trkpt><trkpt lat="47.72667934887722" lon="-1.7315436873057468"><ele>60.0</ele><time>2026-03-26T09:38:17.001Z</time></trkpt><trkpt lat="47.72667578455623" lon="-1.7316547246588614"><ele>61.00000000000001</ele><time>2026-03-26T09:38:18.001Z</time></trkpt><trkpt lat="47.72665649915802" lon="-1.7317776518733483"><ele>62.0</ele><time>2026-03-26T09:38:19.001Z</time></trkpt><trkpt lat="47.72665422374122" lon="-1.7318935821360297"><ele>62.28571428571429</ele><time>2026-03-26T09:38:20.001Z</time></trkpt><trkpt lat="47.726666707386144" lon="-1.732020757344294"><ele>62.57142857142858</ele><time>2026-03-26T09:38:21.001Z</time></trkpt><trkpt lat="47.72666423389161" lon="-1.7321284925486362"><ele>62.85714285714286</ele><time>2026-03-26T09:38:22.001Z</time></trkpt><trkpt lat="47.72666155585996" lon="-1.7322235761393958"><ele>63.14285714285714</ele><time>2026-03-26T09:38:23.001Z</time></trkpt><trkpt lat="47.72665885180964" lon="-1.7323195834901128"><ele>63.42857142857142</ele><time>2026-03-26T09:38:24.001Z</time></trkpt><trkpt lat="47.726655976451646" lon="-1.7324216732024431"><ele>63.71428571428571</ele><time>2026-03-26T09:38:25.001Z</time></trkpt><trkpt lat="47.7266530145035" lon="-1.7325306213217755"><ele>64.0</ele><time>2026-03-26T09:38:26.001Z</time></trkpt><trkpt lat="47.72664953727956" lon="-1.7326597753151434"><ele>64.4</ele><time>2026-03-26T09:38:27.001Z</time></trkpt><trkpt lat="47.72664244480732" lon="-1.732804988585783"><ele>64.80000000000001</ele><time>2026-03-26T09:38:28.001Z</time></trkpt><trkpt lat="47.7266313701463" lon="-1.7329556638991406"><ele>65.19999999999999</ele><time>2026-03-26T09:38:29.001Z</time></trkpt><trkpt lat="47.726614380326644" lon="-1.7331207087530305"><ele>65.6</ele><time>2026-03-26T09:38:30.001Z</time></trkpt><trkpt lat="47.726593959445125" lon="-1.7332928852540708"><ele>66.0</ele><time>2026-03-26T09:38:31.001Z</time></trkpt><trkpt lat="47.7265761476795" lon="-1.7334446903088667"><ele>66.0</ele><time>2026-03-26T09:38:32.001Z</time></trkpt><trkpt lat="47.726566998478326" lon="-1.733567586879492"><ele>66.0</ele><time>2026-03-26T09:38:33Z</time></trkpt><trkpt lat="47.726555795503664" lon="-1.7337261604125602"><ele>66.0</ele><time>2026-03-26T09:38:35Z</time></trkpt><trkpt lat="47.726511973756615" lon="-1.7338567464722543"><ele>66.0</ele><time>2026-03-26T09:38:42Z</time></trkpt><trkpt lat="47.72643085957609" lon="-1.7338753869045311"><ele>66.0</ele><time>2026-03-26T09:38:43Z</time></trkpt><trkpt lat="47.72635505812454" lon="-1.7339042848514086"><ele>66.0</ele><time>2026-03-26T09:38:44Z</time></trkpt><trkpt lat="47.726225723653535" lon="-1.7337856293027658"><ele>66.0</ele><time>2026-03-26T09:38:46Z</time></trkpt><trkpt lat="47.72615313018774" lon="-1.7336921633034965"><ele>66.0</ele><time>2026-03-26T09:38:47Z</time></trkpt><trkpt lat="47.72607961683767" lon="-1.7336020933182092"><ele>66.0</ele><time>2026-03-26T09:38:48Z</time></trkpt><trkpt lat="47.72597816702654" lon="-1.7335712595672335"><ele>66.0</ele><time>2026-03-26T09:38:49Z</time></trkpt><trkpt lat="47.725892819819464" lon="-1.7335253094695875"><ele>66.0</ele><time>2026-03-26T09:38:50Z</time></trkpt><trkpt lat="47.72580843246885" lon="-1.7334798761393608"><ele>65.6</ele><time>2026-03-26T09:38:51Z</time></trkpt><trkpt lat="47.725707069081935" lon="-1.7334253030524345"><ele>65.19999999999999</ele><time>2026-03-26T09:38:52Z</time></trkpt><trkpt lat="47.72561995756202" lon="-1.7333358696746466"><ele>64.80000000000001</ele><time>2026-03-26T09:38:53Z</time></trkpt><trkpt lat="47.7255355492967" lon="-1.7332919679438656"><ele>64.4</ele><time>2026-03-26T09:38:54Z</time></trkpt><trkpt lat="47.72545326883199" lon="-1.7332510013712294"><ele>64.0</ele><time>2026-03-26T09:38:55Z</time></trkpt><trkpt lat="47.72536318596475" lon="-1.7332079247889969"><ele>64.0</ele><time>2026-03-26T09:38:56Z</time></trkpt><trkpt lat="47.72526773335653" lon="-1.733153364081851"><ele>64.0</ele><time>2026-03-26T09:38:57Z</time></trkpt><trkpt lat="47.725165484651086" lon="-1.733133067004638"><ele>64.0</ele><time>2026-03-26T09:38:58Z</time></trkpt><trkpt lat="47.72506702114454" lon="-1.7330482160063725"><ele>64.0</ele><time>2026-03-26T09:38:59Z</time></trkpt><trkpt lat="47.72497506465959" lon="-1.7330042916075765"><ele>64.0</ele><time>2026-03-26T09:39:00Z</time></trkpt><trkpt lat="47.7249002423214" lon="-1.7329650623142778"><ele>63.666666666666664</ele><time>2026-03-26T09:39:01Z</time></trkpt><trkpt lat="47.72482994048345" lon="-1.732915861692997"><ele>63.33333333333333</ele><time>2026-03-26T09:39:02Z</time></trkpt><trkpt lat="47.7247576302228" lon="-1.7329276505423257"><ele>63.0</ele><time>2026-03-26T09:39:03Z</time></trkpt><trkpt lat="47.72468995197397" lon="-1.7329052846795048"><ele>62.66666666666667</ele><time>2026-03-26T09:39:04Z</time></trkpt><trkpt lat="47.72460213869991" lon="-1.7328908352832197"><ele>62.333333333333336</ele><time>2026-03-26T09:39:06Z</time></trkpt><trkpt lat="47.724512767311026" lon="-1.7328780097584413"><ele>62.0</ele><time>2026-03-26T09:39:09Z</time></trkpt><trkpt lat="47.724413055899824" lon="-1.7328703757995303"><ele>61.6</ele><time>2026-03-26T09:39:12Z</time></trkpt><trkpt lat="47.72432114458275" lon="-1.732854243353379"><ele>61.2</ele><time>2026-03-26T09:39:14Z</time></trkpt><trkpt lat="47.72424881861341" lon="-1.7328171611915597"><ele>60.8</ele><time>2026-03-26T09:39:17Z</time></trkpt><trkpt lat="47.72416733191179" lon="-1.7327837584209427"><ele>60.4</ele><time>2026-03-26T09:39:19Z</time></trkpt><trkpt lat="47.724063605261954" lon="-1.7327592571926989"><ele>60.0</ele><time>2026-03-26T09:39:21Z</time></trkpt><trkpt lat="47.72393813617061" lon="-1.7327428099392068"><ele>60.0</ele><time>2026-03-26T09:39:23Z</time></trkpt><trkpt lat="47.72387485334047" lon="-1.7327064151462412"><ele>60.0</ele><time>2026-03-26T09:39:24Z</time></trkpt><trkpt lat="47.72380908995559" lon="-1.7326825938378727"><ele>60.0</ele><time>2026-03-26T09:39:25Z</time></trkpt><trkpt lat="47.72374658553437" lon="-1.7326577841106883"><ele>60.0</ele><time>2026-03-26T09:39:26Z</time></trkpt><trkpt lat="47.72365205804309" lon="-1.7326008375781285"><ele>60.0</ele><time>2026-03-26T09:39:28Z</time></trkpt><trkpt lat="47.72356715657001" lon="-1.7325838581821862"><ele>60.0</ele><time>2026-03-26T09:39:29.999Z</time></trkpt><trkpt lat="47.723502466316155" lon="-1.7325932011278207"><ele>60.0</ele><time>2026-03-26T09:39:31.999Z</time></trkpt><trkpt lat="47.72343511243091" lon="-1.7325759571040436"><ele>60.0</ele><time>2026-03-26T09:39:33.999Z</time></trkpt><trkpt lat="47.723343395769945" lon="-1.7325975012638057"><ele>60.0</ele><time>2026-03-26T09:39:35.999Z</time></trkpt><trkpt lat="47.72324255584047" lon="-1.7325984921672806"><ele>60.0</ele><time>2026-03-26T09:39:37.999Z</time></trkpt><trkpt lat="47.723145164096984" lon="-1.7326004523507155"><ele>60.0</ele><time>2026-03-26T09:39:39.999Z</time></trkpt><trkpt lat="47.72303447519402" lon="-1.7326273419216986"><ele>60.0</ele><time>2026-03-26T09:39:41.999Z</time></trkpt><trkpt lat="47.72291024504257" lon="-1.7326374415748012"><ele>60.0</ele><time>2026-03-26T09:39:43.999Z</time></trkpt><trkpt lat="47.72284548941162" lon="-1.7326302411712171"><ele>60.0</ele><time>2026-03-26T09:39:44.999Z</time></trkpt><trkpt lat="47.722719842530424" lon="-1.7326096904840589"><ele>60.0</ele><time>2026-03-26T09:39:46.999Z</time></trkpt><trkpt lat="47.72265170692856" lon="-1.7326110969066986"><ele>60.0</ele><time>2026-03-26T09:39:47.999Z</time></trkpt><trkpt lat="47.72258434396516" lon="-1.732604480283903"><ele>59.4</ele><time>2026-03-26T09:39:48.999Z</time></trkpt><trkpt lat="47.722449116434646" lon="-1.7326032997606664"><ele>58.8</ele><time>2026-03-26T09:39:50.999Z</time></trkpt><trkpt lat="47.72236582583321" lon="-1.732612593672757"><ele>58.2</ele><time>2026-03-26T09:39:51.999Z</time></trkpt><trkpt lat="47.72227273578097" lon="-1.7326212181506218"><ele>57.6</ele><time>2026-03-26T09:39:52.999Z</time></trkpt><trkpt lat="47.722181189804054" lon="-1.732620953182295"><ele>57.0</ele><time>2026-03-26T09:39:53.999Z</time></trkpt><trkpt lat="47.72206160493056" lon="-1.7326424636326379"><ele>57.0</ele><time>2026-03-26T09:39:54.999Z</time></trkpt><trkpt lat="47.72199906789257" lon="-1.7326277224944275"><ele>57.0</ele><time>2026-03-26T09:39:55.999Z</time></trkpt><trkpt lat="47.721904986148" lon="-1.732640053670297"><ele>57.0</ele><time>2026-03-26T09:39:56.999Z</time></trkpt><trkpt lat="47.721829692405485" lon="-1.7326382243631444"><ele>57.0</ele><time>2026-03-26T09:39:57.999Z</time></trkpt><trkpt lat="47.721765274688565" lon="-1.7326280382767085"><ele>57.0</ele><time>2026-03-26T09:39:58.999Z</time></trkpt><trkpt lat="47.72164295152419" lon="-1.7325926940530307"><ele>57.0</ele><time>2026-03-26T09:40:00.999Z</time></trkpt><trkpt lat="47.72153295206" lon="-1.7325720400498927"><ele>55.6</ele><time>2026-03-26T09:40:02.999Z</time></trkpt><trkpt lat="47.721402965552876" lon="-1.7325554642209304"><ele>54.2</ele><time>2026-03-26T09:40:04.999Z</time></trkpt><trkpt lat="47.72133106348486" lon="-1.7325493820473428"><ele>52.8</ele><time>2026-03-26T09:40:05.999Z</time></trkpt><trkpt lat="47.7212342295829" lon="-1.7325463475651557"><ele>51.4</ele><time>2026-03-26T09:40:06.999Z</time></trkpt><trkpt lat="47.721156448482525" lon="-1.7325506930457704"><ele>50.0</ele><time>2026-03-26T09:40:07.999Z</time></trkpt><trkpt lat="47.721064689956705" lon="-1.7325362345433277"><ele>49.333333333333336</ele><time>2026-03-26T09:40:08.999Z</time></trkpt><trkpt lat="47.72097494404924" lon="-1.7325539730090032"><ele>48.66666666666667</ele><time>2026-03-26T09:40:09.999Z</time></trkpt><trkpt lat="47.72088597989295" lon="-1.7325451304956314"><ele>48.0</ele><time>2026-03-26T09:40:10.999Z</time></trkpt><trkpt lat="47.72080918807957" lon="-1.732530123981113"><ele>47.333333333333336</ele><time>2026-03-26T09:40:11.999Z</time></trkpt><trkpt lat="47.72073098714631" lon="-1.7325184043008526"><ele>46.66666666666667</ele><time>2026-03-26T09:40:12.999Z</time></trkpt><trkpt lat="47.72066441315279" lon="-1.732504538132528"><ele>46.0</ele><time>2026-03-26T09:40:13.999Z</time></trkpt><trkpt lat="47.72059852506133" lon="-1.73249092031632"><ele>46.0</ele><time>2026-03-26T09:40:14.999Z</time></trkpt><trkpt lat="47.72053556089993" lon="-1.7324783585742374"><ele>46.0</ele><time>2026-03-26T09:40:15.999Z</time></trkpt><trkpt lat="47.72042017527832" lon="-1.7324521232545989"><ele>46.0</ele><time>2026-03-26T09:40:17.999Z</time></trkpt><trkpt lat="47.720343229896145" lon="-1.7324736874479119"><ele>46.0</ele><time>2026-03-26T09:40:18.999Z</time></trkpt><trkpt lat="47.72027328865314" lon="-1.7324713315853812"><ele>46.0</ele><time>2026-03-26T09:40:20.001Z</time></trkpt><trkpt lat="47.720194244049125" lon="-1.7324628131664734"><ele>46.0</ele><time>2026-03-26T09:40:21.001Z</time></trkpt><trkpt lat="47.72011165618228" lon="-1.7324560939698783"><ele>45.333333333333336</ele><time>2026-03-26T09:40:22.001Z</time></trkpt><trkpt lat="47.720029445049654" lon="-1.7324461450713786"><ele>44.66666666666667</ele><time>2026-03-26T09:40:23.001Z</time></trkpt><trkpt lat="47.719951147532235" lon="-1.732427177222334"><ele>44.0</ele><time>2026-03-26T09:40:24.001Z</time></trkpt><trkpt lat="47.719868680754196" lon="-1.7324119785986636"><ele>43.333333333333336</ele><time>2026-03-26T09:40:25.001Z</time></trkpt><trkpt lat="47.719785445733564" lon="-1.7324012955984025"><ele>42.666666666666664</ele><time>2026-03-26T09:40:26.001Z</time></trkpt><trkpt lat="47.719697194951735" lon="-1.7323891354433156"><ele>42.0</ele><time>2026-03-26T09:40:27.001Z</time></trkpt><trkpt lat="47.71960898927092" lon="-1.7323752686863714"><ele>42.0</ele><time>2026-03-26T09:40:28.001Z</time></trkpt><trkpt lat="47.71952533310702" lon="-1.7323606046009372"><ele>42.0</ele><time>2026-03-26T09:40:29.001Z</time></trkpt><trkpt lat="47.71944911605144" lon="-1.7323528176527836"><ele>42.0</ele><time>2026-03-26T09:40:30.001Z</time></trkpt><trkpt lat="47.719381019001524" lon="-1.7323436242215617"><ele>42.0</ele><time>2026-03-26T09:40:31Z</time></trkpt><trkpt lat="47.71926850361797" lon="-1.7323259041555124"><ele>42.0</ele><time>2026-03-26T09:40:33Z</time></trkpt><trkpt lat="47.71917909004102" lon="-1.732320163446077"><ele>42.0</ele><time>2026-03-26T09:40:35Z</time></trkpt><trkpt lat="47.7190970171707" lon="-1.7323492481810074"><ele>41.2</ele><time>2026-03-26T09:40:37Z</time></trkpt><trkpt lat="47.71898526686247" lon="-1.7323936423438944"><ele>40.400000000000006</ele><time>2026-03-26T09:40:39Z</time></trkpt><trkpt lat="47.718899559033204" lon="-1.7323894586095587"><ele>39.599999999999994</ele><time>2026-03-26T09:40:40Z</time></trkpt><trkpt lat="47.71880866400365" lon="-1.7323651964279778"><ele>38.8</ele><time>2026-03-26T09:40:41Z</time></trkpt><trkpt lat="47.71871010917124" lon="-1.7323517060165137"><ele>38.0</ele><time>2026-03-26T09:40:42Z</time></trkpt><trkpt lat="47.71863956172511" lon="-1.7323575987895434"><ele>37.199999999999996</ele><time>2026-03-26T09:40:43Z</time></trkpt><trkpt lat="47.71856251457577" lon="-1.7323543690309817"><ele>36.4</ele><time>2026-03-26T09:40:44Z</time></trkpt><trkpt lat="47.718423698898306" lon="-1.7323066499740292"><ele>35.599999999999994</ele><time>2026-03-26T09:40:46Z</time></trkpt><trkpt lat="47.71833253179872" lon="-1.7322865348539693"><ele>34.8</ele><time>2026-03-26T09:40:47Z</time></trkpt><trkpt lat="47.718229652577264" lon="-1.732265212323097"><ele>34.0</ele><time>2026-03-26T09:40:48Z</time></trkpt><trkpt lat="47.718127824618186" lon="-1.7322461833975904"><ele>34.0</ele><time>2026-03-26T09:40:49Z</time></trkpt><trkpt lat="47.718030204397955" lon="-1.7322300315891346"><ele>34.0</ele><time>2026-03-26T09:40:50Z</time></trkpt><trkpt lat="47.71792327329197" lon="-1.732213434608231"><ele>34.0</ele><time>2026-03-26T09:40:51Z</time></trkpt><trkpt lat="47.71782574770886" lon="-1.7322064779619506"><ele>34.0</ele><time>2026-03-26T09:40:52Z</time></trkpt><trkpt lat="47.7177441447994" lon="-1.7321878161937347"><ele>34.0</ele><time>2026-03-26T09:40:53Z</time></trkpt><trkpt lat="47.71767217864046" lon="-1.7321819865557442"><ele>33.75</ele><time>2026-03-26T09:40:54Z</time></trkpt><trkpt lat="47.71757400959088" lon="-1.7321023491104461"><ele>33.5</ele><time>2026-03-26T09:40:55Z</time></trkpt><trkpt lat="47.717410100885694" lon="-1.73211121139225"><ele>33.25</ele><time>2026-03-26T09:40:56Z</time></trkpt><trkpt lat="47.717302724754404" lon="-1.7321208880793058"><ele>33.0</ele><time>2026-03-26T09:40:57Z</time></trkpt><trkpt lat="47.717218693781874" lon="-1.732157216072765"><ele>33.0</ele><time>2026-03-26T09:40:58Z</time></trkpt><trkpt lat="47.71713580096569" lon="-1.7321707548728404"><ele>33.0</ele><time>2026-03-26T09:40:59Z</time></trkpt><trkpt lat="47.71705776848602" lon="-1.7321858350103196"><ele>33.0</ele><time>2026-03-26T09:41:00Z</time></trkpt><trkpt lat="47.716960647034206" lon="-1.7321433567330677"><ele>33.0</ele><time>2026-03-26T09:41:01Z</time></trkpt><trkpt lat="47.71686872094036" lon="-1.7320806754681715"><ele>33.0</ele><time>2026-03-26T09:41:02Z</time></trkpt><trkpt lat="47.71677031466821" lon="-1.7320273649275477"><ele>32.4</ele><time>2026-03-26T09:41:03Z</time></trkpt><trkpt lat="47.71667227684969" lon="-1.732003176858893"><ele>31.799999999999997</ele><time>2026-03-26T09:41:04Z</time></trkpt><trkpt lat="47.7165704826599" lon="-1.7319992873884444"><ele>31.2</ele><time>2026-03-26T09:41:05Z</time></trkpt><trkpt lat="47.716470773096304" lon="-1.7319882411910512"><ele>30.6</ele><time>2026-03-26T09:41:06Z</time></trkpt><trkpt lat="47.7163697212467" lon="-1.7319696064441779"><ele>30.0</ele><time>2026-03-26T09:41:07Z</time></trkpt><trkpt lat="47.71626457049791" lon="-1.7319464400451092"><ele>30.0</ele><time>2026-03-26T09:41:08Z</time></trkpt><trkpt lat="47.716147753033276" lon="-1.7319336592916603"><ele>30.0</ele><time>2026-03-26T09:41:09Z</time></trkpt><trkpt lat="47.71603511616823" lon="-1.7319191059545103"><ele>30.0</ele><time>2026-03-26T09:41:10Z</time></trkpt><trkpt lat="47.715926526125145" lon="-1.7319036726301011"><ele>30.0</ele><time>2026-03-26T09:41:11Z</time></trkpt><trkpt lat="47.71581512193048" lon="-1.7318999308614134"><ele>29.6</ele><time>2026-03-26T09:41:12Z</time></trkpt><trkpt lat="47.71571820069523" lon="-1.7318892834160986"><ele>29.2</ele><time>2026-03-26T09:41:13Z</time></trkpt><trkpt lat="47.715631034743105" lon="-1.731872007576381"><ele>28.799999999999997</ele><time>2026-03-26T09:41:14Z</time></trkpt><trkpt lat="47.71553042143779" lon="-1.731858377180446"><ele>28.4</ele><time>2026-03-26T09:41:15Z</time></trkpt><trkpt lat="47.71542065033734" lon="-1.731848771118835"><ele>28.0</ele><time>2026-03-26T09:41:15.999Z</time></trkpt><trkpt lat="47.71530068396106" lon="-1.7318394252419218"><ele>27.75</ele><time>2026-03-26T09:41:16.999Z</time></trkpt><trkpt lat="47.7151754321663" lon="-1.731826435567741"><ele>27.5</ele><time>2026-03-26T09:41:17.999Z</time></trkpt><trkpt lat="47.715049583253986" lon="-1.7318082484932877"><ele>27.25</ele><time>2026-03-26T09:41:18.999Z</time></trkpt><trkpt lat="47.71492139329072" lon="-1.7317887959065568"><ele>27.0</ele><time>2026-03-26T09:41:19.999Z</time></trkpt><trkpt lat="47.714787843610274" lon="-1.7317679510057977"><ele>27.0</ele><time>2026-03-26T09:41:20.999Z</time></trkpt><trkpt lat="47.71465058283003" lon="-1.731748030225833"><ele>27.0</ele><time>2026-03-26T09:41:21.999Z</time></trkpt><trkpt lat="47.71451163924406" lon="-1.731727373865473"><ele>27.0</ele><time>2026-03-26T09:41:22.999Z</time></trkpt><trkpt lat="47.71437359177298" lon="-1.7317138784553565"><ele>27.0</ele><time>2026-03-26T09:41:23.999Z</time></trkpt><trkpt lat="47.71424074692335" lon="-1.7317002641575336"><ele>26.5</ele><time>2026-03-26T09:41:24.999Z</time></trkpt><trkpt lat="47.71410251167887" lon="-1.7316803930659301"><ele>26.0</ele><time>2026-03-26T09:41:25.999Z</time></trkpt><trkpt lat="47.713953136760956" lon="-1.7316632490464698"><ele>25.5</ele><time>2026-03-26T09:41:26.999Z</time></trkpt><trkpt lat="47.71380184652565" lon="-1.7316453076066654"><ele>25.0</ele><time>2026-03-26T09:41:27.999Z</time></trkpt><trkpt lat="47.713650262498035" lon="-1.7316322211601385"><ele>24.333333333333336</ele><time>2026-03-26T09:41:28.999Z</time></trkpt><trkpt lat="47.71349060651383" lon="-1.7316172299716397"><ele>23.666666666666668</ele><time>2026-03-26T09:41:29.999Z</time></trkpt><trkpt lat="47.71333440970803" lon="-1.7316017006379163"><ele>23.0</ele><time>2026-03-26T09:41:30.999Z</time></trkpt><trkpt lat="47.71317223752577" lon="-1.7315776365860152"><ele>23.0</ele><time>2026-03-26T09:41:31.999Z</time></trkpt><trkpt lat="47.71301323638087" lon="-1.7315528739092103"><ele>23.0</ele><time>2026-03-26T09:41:32.999Z</time></trkpt><trkpt lat="47.71284386996388" lon="-1.7315307687078225"><ele>23.0</ele><time>2026-03-26T09:41:33.999Z</time></trkpt><trkpt lat="47.71268155811343" lon="-1.7315147007879763"><ele>21.666666666666668</ele><time>2026-03-26T09:41:34.999Z</time></trkpt><trkpt lat="47.71251427358767" lon="-1.7314876195355642"><ele>20.333333333333332</ele><time>2026-03-26T09:41:35.999Z</time></trkpt><trkpt lat="47.712343695976564" lon="-1.7314701452987191"><ele>19.0</ele><time>2026-03-26T09:41:36.999Z</time></trkpt><trkpt lat="47.71218939966902" lon="-1.7314531549736907"><ele>19.0</ele><time>2026-03-26T09:41:37.999Z</time></trkpt><trkpt lat="47.71203709771895" lon="-1.7314360357733065"><ele>19.0</ele><time>2026-03-26T09:41:38.999Z</time></trkpt><trkpt lat="47.71187599632021" lon="-1.731406690173977"><ele>19.0</ele><time>2026-03-26T09:41:39.999Z</time></trkpt><trkpt lat="47.71172408995215" lon="-1.7314067079419009"><ele>18.333333333333332</ele><time>2026-03-26T09:41:40.999Z</time></trkpt><trkpt lat="47.711567295127644" lon="-1.7313770609387498"><ele>17.666666666666668</ele><time>2026-03-26T09:41:41.999Z</time></trkpt><trkpt lat="47.71141110492075" lon="-1.731355824407166"><ele>17.0</ele><time>2026-03-26T09:41:42.999Z</time></trkpt><trkpt lat="47.71124111472979" lon="-1.731342297044963"><ele>16.333333333333336</ele><time>2026-03-26T09:41:43.999Z</time></trkpt><trkpt lat="47.71107314673795" lon="-1.7313285363819158"><ele>15.666666666666668</ele><time>2026-03-26T09:41:44.999Z</time></trkpt><trkpt lat="47.710904888724535" lon="-1.7313080842562596"><ele>15.0</ele><time>2026-03-26T09:41:45.999Z</time></trkpt><trkpt lat="47.71073171696913" lon="-1.731285615457266"><ele>15.0</ele><time>2026-03-26T09:41:46.999Z</time></trkpt><trkpt lat="47.710562333120556" lon="-1.7312674527784784"><ele>15.0</ele><time>2026-03-26T09:41:47.999Z</time></trkpt><trkpt lat="47.71039453115207" lon="-1.7312464126345555"><ele>15.0</ele><time>2026-03-26T09:41:48.999Z</time></trkpt><trkpt lat="47.71023305899932" lon="-1.7312266385662824"><ele>14.666666666666668</ele><time>2026-03-26T09:41:49.999Z</time></trkpt><trkpt lat="47.710065132979146" lon="-1.731203080101366"><ele>14.333333333333334</ele><time>2026-03-26T09:41:50.999Z</time></trkpt><trkpt lat="47.70990235157475" lon="-1.7311797705304997"><ele>14.0</ele><time>2026-03-26T09:41:51.999Z</time></trkpt><trkpt lat="47.709728577233605" lon="-1.7311674709651388"><ele>14.0</ele><time>2026-03-26T09:41:52.999Z</time></trkpt><trkpt lat="47.70956777964398" lon="-1.7311411990879662"><ele>14.0</ele><time>2026-03-26T09:41:53.999Z</time></trkpt><trkpt lat="47.70940231330099" lon="-1.7311225872637903"><ele>14.0</ele><time>2026-03-26T09:41:54.999Z</time></trkpt><trkpt lat="47.70923999481717" lon="-1.7311020389482072"><ele>14.0</ele><time>2026-03-26T09:41:55.999Z</time></trkpt><trkpt lat="47.70906090814524" lon="-1.7310787996882415"><ele>14.0</ele><time>2026-03-26T09:41:56.999Z</time></trkpt><trkpt lat="47.708891631753666" lon="-1.7310654709344497"><ele>14.0</ele><time>2026-03-26T09:41:57.999Z</time></trkpt><trkpt lat="47.70872280510727" lon="-1.731044199008897"><ele>13.333333333333334</ele><time>2026-03-26T09:41:58.999Z</time></trkpt><trkpt lat="47.70855639438722" lon="-1.7310287662586112"><ele>12.666666666666668</ele><time>2026-03-26T09:41:59.999Z</time></trkpt><trkpt lat="47.70838778306258" lon="-1.7310125776860747"><ele>12.0</ele><time>2026-03-26T09:42:00.999Z</time></trkpt><trkpt lat="47.70822213697152" lon="-1.7309972153097908"><ele>12.0</ele><time>2026-03-26T09:42:01.999Z</time></trkpt><trkpt lat="47.70805455568986" lon="-1.730980847411658"><ele>12.0</ele><time>2026-03-26T09:42:02.999Z</time></trkpt><trkpt lat="47.707888341584564" lon="-1.7309577411213515"><ele>12.0</ele><time>2026-03-26T09:42:03.999Z</time></trkpt><trkpt lat="47.707719710903895" lon="-1.7309375199554224"><ele>12.0</ele><time>2026-03-26T09:42:04.999Z</time></trkpt><trkpt lat="47.707559687425906" lon="-1.730919196642987"><ele>12.0</ele><time>2026-03-26T09:42:05.999Z</time></trkpt><trkpt lat="47.70738791575347" lon="-1.7308927316229845"><ele>12.0</ele><time>2026-03-26T09:42:06.999Z</time></trkpt><trkpt lat="47.707230368266295" lon="-1.730861673280469"><ele>12.0</ele><time>2026-03-26T09:42:07.999Z</time></trkpt><trkpt lat="47.707062268572805" lon="-1.7308433780966137"><ele>12.0</ele><time>2026-03-26T09:42:08.999Z</time></trkpt><trkpt lat="47.70689330068729" lon="-1.7308276861486027"><ele>12.0</ele><time>2026-03-26T09:42:09.999Z</time></trkpt><trkpt lat="47.70672664998646" lon="-1.730808820301219"><ele>11.666666666666666</ele><time>2026-03-26T09:42:10.999Z</time></trkpt><trkpt lat="47.706561864970155" lon="-1.7307880337104364"><ele>11.333333333333332</ele><time>2026-03-26T09:42:11.999Z</time></trkpt><trkpt lat="47.706388586741" lon="-1.7307615948827382"><ele>11.0</ele><time>2026-03-26T09:42:12.999Z</time></trkpt><trkpt lat="47.70622373398594" lon="-1.730736398066135"><ele>11.333333333333332</ele><time>2026-03-26T09:42:13.999Z</time></trkpt><trkpt lat="47.706049766587405" lon="-1.7307170286767002"><ele>11.666666666666666</ele><time>2026-03-26T09:42:14.999Z</time></trkpt><trkpt lat="47.705884063965385" lon="-1.73069426361999"><ele>12.0</ele><time>2026-03-26T09:42:15.999Z</time></trkpt><trkpt lat="47.70571262431126" lon="-1.7306669585325267"><ele>12.0</ele><time>2026-03-26T09:42:16.999Z</time></trkpt><trkpt lat="47.70554263599809" lon="-1.730644711796816"><ele>12.0</ele><time>2026-03-26T09:42:17.999Z</time></trkpt><trkpt lat="47.705374445363624" lon="-1.7306280606233555"><ele>12.0</ele><time>2026-03-26T09:42:18.999Z</time></trkpt><trkpt lat="47.705201198274786" lon="-1.7306110279263727"><ele>11.666666666666666</ele><time>2026-03-26T09:42:19.999Z</time></trkpt><trkpt lat="47.70502686883603" lon="-1.7305867065771636"><ele>11.333333333333332</ele><time>2026-03-26T09:42:20.999Z</time></trkpt><trkpt lat="47.70485444344763" lon="-1.730566722679926"><ele>11.0</ele><time>2026-03-26T09:42:21.999Z</time></trkpt><trkpt lat="47.704683674421624" lon="-1.7305401354146366"><ele>11.0</ele><time>2026-03-26T09:42:22.998Z</time></trkpt><trkpt lat="47.70450255728583" lon="-1.7305222679056669"><ele>11.0</ele><time>2026-03-26T09:42:23.998Z</time></trkpt><trkpt lat="47.704321655310714" lon="-1.730513876040759"><ele>11.0</ele><time>2026-03-26T09:42:24.998Z</time></trkpt><trkpt lat="47.704135113535976" lon="-1.7305218654223609"><ele>10.666666666666666</ele><time>2026-03-26T09:42:26Z</time></trkpt><trkpt lat="47.70395944544139" lon="-1.730556669326055"><ele>10.333333333333334</ele><time>2026-03-26T09:42:27Z</time></trkpt><trkpt lat="47.70378704888271" lon="-1.7306542102856874"><ele>10.0</ele><time>2026-03-26T09:42:28Z</time></trkpt><trkpt lat="47.70361409223145" lon="-1.7307567272413371"><ele>9.666666666666668</ele><time>2026-03-26T09:42:29Z</time></trkpt><trkpt lat="47.70343896811084" lon="-1.7308872165792342"><ele>9.333333333333334</ele><time>2026-03-26T09:42:30Z</time></trkpt><trkpt lat="47.70328634452864" lon="-1.7310495514854394"><ele>9.0</ele><time>2026-03-26T09:42:31Z</time></trkpt><trkpt lat="47.70313005193342" lon="-1.7312120874623582"><ele>9.0</ele><time>2026-03-26T09:42:32Z</time></trkpt><trkpt lat="47.702966964861766" lon="-1.7313854251203686"><ele>9.0</ele><time>2026-03-26T09:42:33Z</time></trkpt><trkpt lat="47.70281298447275" lon="-1.7315491637380445"><ele>9.0</ele><time>2026-03-26T09:42:34Z</time></trkpt><trkpt lat="47.7026537905304" lon="-1.7317185289501564"><ele>8.666666666666666</ele><time>2026-03-26T09:42:35Z</time></trkpt><trkpt lat="47.7024945102465" lon="-1.7318879859463816"><ele>8.333333333333332</ele><time>2026-03-26T09:42:36Z</time></trkpt><trkpt lat="47.70234013984156" lon="-1.7320523858498653"><ele>8.0</ele><time>2026-03-26T09:42:37Z</time></trkpt><trkpt lat="47.70218392808201" lon="-1.7322193394028376"><ele>8.0</ele><time>2026-03-26T09:42:38Z</time></trkpt><trkpt lat="47.70203062670429" lon="-1.7323835447136036"><ele>8.0</ele><time>2026-03-26T09:42:39Z</time></trkpt><trkpt lat="47.70188346948641" lon="-1.732541168846514"><ele>8.0</ele><time>2026-03-26T09:42:40Z</time></trkpt><trkpt lat="47.70173119024915" lon="-1.7327049806817802"><ele>8.333333333333332</ele><time>2026-03-26T09:42:41Z</time></trkpt><trkpt lat="47.70157740752909" lon="-1.7328765974316098"><ele>8.666666666666666</ele><time>2026-03-26T09:42:42Z</time></trkpt><trkpt lat="47.70141993142656" lon="-1.7330518821809282"><ele>9.0</ele><time>2026-03-26T09:42:43Z</time></trkpt><trkpt lat="47.70126130104133" lon="-1.7332248466577889"><ele>9.0</ele><time>2026-03-26T09:42:44Z</time></trkpt><trkpt lat="47.70110073274966" lon="-1.7333697253776505"><ele>9.0</ele><time>2026-03-26T09:42:45Z</time></trkpt><trkpt lat="47.700955348372084" lon="-1.7335567807853944"><ele>9.0</ele><time>2026-03-26T09:42:46Z</time></trkpt><trkpt lat="47.70079931013833" lon="-1.7337241204645568"><ele>9.666666666666666</ele><time>2026-03-26T09:42:47Z</time></trkpt><trkpt lat="47.70064289703473" lon="-1.7338944980349693"><ele>10.333333333333332</ele><time>2026-03-26T09:42:48Z</time></trkpt><trkpt lat="47.70049041662385" lon="-1.7340615955718213"><ele>11.0</ele><time>2026-03-26T09:42:49Z</time></trkpt><trkpt lat="47.70033400084885" lon="-1.73423431112576"><ele>12.333333333333332</ele><time>2026-03-26T09:42:50Z</time></trkpt><trkpt lat="47.70017966876808" lon="-1.7344047258579665"><ele>13.666666666666666</ele><time>2026-03-26T09:42:51Z</time></trkpt><trkpt lat="47.70003181723097" lon="-1.7345679847500248"><ele>15.0</ele><time>2026-03-26T09:42:52Z</time></trkpt><trkpt lat="47.69988290472619" lon="-1.7347324152509846"><ele>15.0</ele><time>2026-03-26T09:42:53Z</time></trkpt><trkpt lat="47.69972779261422" lon="-1.734901365850294"><ele>15.0</ele><time>2026-03-26T09:42:54Z</time></trkpt><trkpt lat="47.69956708094631" lon="-1.735065262109705"><ele>15.0</ele><time>2026-03-26T09:42:55Z</time></trkpt><trkpt lat="47.69940558570165" lon="-1.7352218125770948"><ele>16.333333333333332</ele><time>2026-03-26T09:42:56Z</time></trkpt><trkpt lat="47.69923071840122" lon="-1.7353781552501175"><ele>17.666666666666664</ele><time>2026-03-26T09:42:57Z</time></trkpt><trkpt lat="47.69903878753978" lon="-1.7354933616264632"><ele>19.0</ele><time>2026-03-26T09:42:58Z</time></trkpt><trkpt lat="47.698852795244626" lon="-1.7356205901663981"><ele>19.0</ele><time>2026-03-26T09:42:59Z</time></trkpt><trkpt lat="47.698643751142235" lon="-1.7357163031487577"><ele>19.0</ele><time>2026-03-26T09:43:00Z</time></trkpt><trkpt lat="47.69841672666024" lon="-1.7357892846835083"><ele>18.666666666666664</ele><time>2026-03-26T09:43:01Z</time></trkpt><trkpt lat="47.69819696323077" lon="-1.7358425780372388"><ele>18.333333333333332</ele><time>2026-03-26T09:43:02Z</time></trkpt><trkpt lat="47.69797841794907" lon="-1.7358644185314647"><ele>18.0</ele><time>2026-03-26T09:43:03Z</time></trkpt><trkpt lat="47.697768545375176" lon="-1.7358707983863768"><ele>17.666666666666668</ele><time>2026-03-26T09:43:04Z</time></trkpt><trkpt lat="47.69755881110823" lon="-1.7358479718849087"><ele>17.333333333333336</ele><time>2026-03-26T09:43:05Z</time></trkpt><trkpt lat="47.697354936108624" lon="-1.7358351607232356"><ele>17.0</ele><time>2026-03-26T09:43:06Z</time></trkpt><trkpt lat="47.69715045671324" lon="-1.7358210459424932"><ele>17.0</ele><time>2026-03-26T09:43:07Z</time></trkpt><trkpt lat="47.69694241604156" lon="-1.735823670704374"><ele>17.0</ele><time>2026-03-26T09:43:08Z</time></trkpt><trkpt lat="47.69674111831585" lon="-1.735786293989696"><ele>17.0</ele><time>2026-03-26T09:43:09Z</time></trkpt><trkpt lat="47.69653555953444" lon="-1.7357956711087308"><ele>16.0</ele><time>2026-03-26T09:43:10Z</time></trkpt><trkpt lat="47.69633416829535" lon="-1.735780366895279"><ele>15.0</ele><time>2026-03-26T09:43:11Z</time></trkpt><trkpt lat="47.69612951877133" lon="-1.7357648150801877"><ele>14.0</ele><time>2026-03-26T09:43:12Z</time></trkpt><trkpt lat="47.69593170114964" lon="-1.7357269410169007"><ele>13.666666666666668</ele><time>2026-03-26T09:43:13Z</time></trkpt><trkpt lat="47.69574004986891" lon="-1.735711387800053"><ele>13.333333333333332</ele><time>2026-03-26T09:43:14Z</time></trkpt><trkpt lat="47.69553939496711" lon="-1.735698999373365"><ele>13.0</ele><time>2026-03-26T09:43:15Z</time></trkpt><trkpt lat="47.69534108870017" lon="-1.7356868363758047"><ele>13.0</ele><time>2026-03-26T09:43:16Z</time></trkpt><trkpt lat="47.69513511991148" lon="-1.7356741347103475"><ele>13.0</ele><time>2026-03-26T09:43:17Z</time></trkpt><trkpt lat="47.69492728739357" lon="-1.7356636372346186"><ele>13.0</ele><time>2026-03-26T09:43:18Z</time></trkpt><trkpt lat="47.694715882178954" lon="-1.7356539509440378"><ele>13.0</ele><time>2026-03-26T09:43:18.999Z</time></trkpt><trkpt lat="47.69451126584496" lon="-1.7356386287436758"><ele>13.0</ele><time>2026-03-26T09:43:19.999Z</time></trkpt><trkpt lat="47.69430885514479" lon="-1.7356221829491156"><ele>13.0</ele><time>2026-03-26T09:43:20.999Z</time></trkpt><trkpt lat="47.694097772432904" lon="-1.7356046089317885"><ele>12.666666666666666</ele><time>2026-03-26T09:43:21.999Z</time></trkpt><trkpt lat="47.69387909357921" lon="-1.7355915511773572"><ele>12.333333333333332</ele><time>2026-03-26T09:43:22.999Z</time></trkpt><trkpt lat="47.69366520688668" lon="-1.735576498635885"><ele>12.0</ele><time>2026-03-26T09:43:23.999Z</time></trkpt><trkpt lat="47.693453582521734" lon="-1.7355590978119675"><ele>12.0</ele><time>2026-03-26T09:43:24.999Z</time></trkpt><trkpt lat="47.693253831176285" lon="-1.7355407128900142"><ele>12.0</ele><time>2026-03-26T09:43:25.999Z</time></trkpt><trkpt lat="47.69303673238765" lon="-1.7355426621715038"><ele>12.0</ele><time>2026-03-26T09:43:26.999Z</time></trkpt><trkpt lat="47.69282173127509" lon="-1.7355285305659147"><ele>12.333333333333332</ele><time>2026-03-26T09:43:27.999Z</time></trkpt><trkpt lat="47.69261045579029" lon="-1.7354913633927944"><ele>12.666666666666666</ele><time>2026-03-26T09:43:28.999Z</time></trkpt><trkpt lat="47.69240369410286" lon="-1.7354789618402298"><ele>13.0</ele><time>2026-03-26T09:43:29.999Z</time></trkpt><trkpt lat="47.692195637615626" lon="-1.7354654747646587"><ele>13.0</ele><time>2026-03-26T09:43:30.999Z</time></trkpt><trkpt lat="47.6919913024211" lon="-1.735473464805546"><ele>13.0</ele><time>2026-03-26T09:43:31.999Z</time></trkpt><trkpt lat="47.69177994819835" lon="-1.7354404545623485"><ele>13.0</ele><time>2026-03-26T09:43:32.999Z</time></trkpt><trkpt lat="47.69157765488036" lon="-1.7354262555305109"><ele>13.0</ele><time>2026-03-26T09:43:33.999Z</time></trkpt><trkpt lat="47.691370962609504" lon="-1.7354109858552036"><ele>13.0</ele><time>2026-03-26T09:43:34.999Z</time></trkpt><trkpt lat="47.6911651500654" lon="-1.7353963927847411"><ele>13.0</ele><time>2026-03-26T09:43:35.999Z</time></trkpt><trkpt lat="47.690970592222925" lon="-1.7354002700627273"><ele>13.333333333333332</ele><time>2026-03-26T09:43:36.999Z</time></trkpt><trkpt lat="47.69076783542375" lon="-1.7353687414696837"><ele>13.666666666666668</ele><time>2026-03-26T09:43:37.999Z</time></trkpt><trkpt lat="47.69056420152936" lon="-1.735351811131588"><ele>14.0</ele><time>2026-03-26T09:43:38.999Z</time></trkpt><trkpt lat="47.69037111926477" lon="-1.7353373190197743"><ele>13.666666666666668</ele><time>2026-03-26T09:43:39.999Z</time></trkpt><trkpt lat="47.69015984185545" lon="-1.7353254737839046"><ele>13.333333333333332</ele><time>2026-03-26T09:43:40.999Z</time></trkpt><trkpt lat="47.68995229088772" lon="-1.7353104905109429"><ele>13.0</ele><time>2026-03-26T09:43:41.999Z</time></trkpt><trkpt lat="47.68975106519766" lon="-1.7352956349137563"><ele>13.0</ele><time>2026-03-26T09:43:42.999Z</time></trkpt><trkpt lat="47.68954937531958" lon="-1.7352876475337242"><ele>13.0</ele><time>2026-03-26T09:43:43.999Z</time></trkpt><trkpt lat="47.68933707935086" lon="-1.7352838043081285"><ele>13.0</ele><time>2026-03-26T09:43:44.999Z</time></trkpt><trkpt lat="47.68915279395899" lon="-1.7352971426088082"><ele>13.666666666666666</ele><time>2026-03-26T09:43:45.999Z</time></trkpt><trkpt lat="47.68898031869536" lon="-1.7352970902602782"><ele>14.333333333333332</ele><time>2026-03-26T09:43:46.999Z</time></trkpt><trkpt lat="47.688822562170714" lon="-1.7352916774233225"><ele>15.0</ele><time>2026-03-26T09:43:47.999Z</time></trkpt><trkpt lat="47.68868752377327" lon="-1.7352625223442049"><ele>15.666666666666666</ele><time>2026-03-26T09:43:48.999Z</time></trkpt><trkpt lat="47.688564964814816" lon="-1.7352675422993387"><ele>16.333333333333332</ele><time>2026-03-26T09:43:49.999Z</time></trkpt><trkpt lat="47.68846116371696" lon="-1.7352691075285152"><ele>17.0</ele><time>2026-03-26T09:43:50.999Z</time></trkpt><trkpt lat="47.68838562117128" lon="-1.735291350459739"><ele>17.666666666666664</ele><time>2026-03-26T09:43:51.999Z</time></trkpt><trkpt lat="47.68831107537072" lon="-1.735293511375057"><ele>18.333333333333332</ele><time>2026-03-26T09:43:52.999Z</time></trkpt><trkpt lat="47.68824329693259" lon="-1.735292331493183"><ele>19.0</ele><time>2026-03-26T09:43:53.999Z</time></trkpt><trkpt lat="47.688110880931426" lon="-1.7352911893482235"><ele>19.0</ele><time>2026-03-26T09:43:55.999Z</time></trkpt><trkpt lat="47.68802154592829" lon="-1.7352889468118848"><ele>19.0</ele><time>2026-03-26T09:43:56.999Z</time></trkpt><trkpt lat="47.68791779649786" lon="-1.7352994035593428"><ele>19.0</ele><time>2026-03-26T09:43:57.999Z</time></trkpt><trkpt lat="47.687786892076616" lon="-1.7353478092951544"><ele>19.0</ele><time>2026-03-26T09:43:58.999Z</time></trkpt><trkpt lat="47.687649381061824" lon="-1.735433815426591"><ele>19.6</ele><time>2026-03-26T09:43:59.999Z</time></trkpt><trkpt lat="47.6875449116253" lon="-1.7355454190036514"><ele>20.2</ele><time>2026-03-26T09:44:00.999Z</time></trkpt><trkpt lat="47.68747507874109" lon="-1.7356682772234098"><ele>20.8</ele><time>2026-03-26T09:44:01.999Z</time></trkpt><trkpt lat="47.68739780472506" lon="-1.7357615213391115"><ele>21.400000000000002</ele><time>2026-03-26T09:44:02.999Z</time></trkpt><trkpt lat="47.687314445776806" lon="-1.7358386930091836"><ele>22.0</ele><time>2026-03-26T09:44:03.999Z</time></trkpt><trkpt lat="47.68725173576273" lon="-1.73592845796809"><ele>21.75</ele><time>2026-03-26T09:44:04.999Z</time></trkpt><trkpt lat="47.68720805556237" lon="-1.7360604523165286"><ele>21.5</ele><time>2026-03-26T09:44:05.999Z</time></trkpt><trkpt lat="47.68717589609383" lon="-1.7362261818816935"><ele>21.25</ele><time>2026-03-26T09:44:06.999Z</time></trkpt><trkpt lat="47.687169168560075" lon="-1.7364250860117365"><ele>21.0</ele><time>2026-03-26T09:44:07.999Z</time></trkpt><trkpt lat="47.68716397167965" lon="-1.7366106223897049"><ele>21.0</ele><time>2026-03-26T09:44:08.999Z</time></trkpt><trkpt lat="47.68716269993426" lon="-1.73679815020808"><ele>21.0</ele><time>2026-03-26T09:44:09.999Z</time></trkpt><trkpt lat="47.68716026841912" lon="-1.7369824945172192"><ele>21.0</ele><time>2026-03-26T09:44:10.999Z</time></trkpt><trkpt lat="47.687158666913255" lon="-1.7371620472214917"><ele>21.0</ele><time>2026-03-26T09:44:11.999Z</time></trkpt><trkpt lat="47.687152515246844" lon="-1.7373399946149648"><ele>21.0</ele><time>2026-03-26T09:44:12.999Z</time></trkpt><trkpt lat="47.68715330552252" lon="-1.7375288391038515"><ele>21.0</ele><time>2026-03-26T09:44:13.999Z</time></trkpt><trkpt lat="47.687153497785566" lon="-1.7377266624931782"><ele>21.0</ele><time>2026-03-26T09:44:14.999Z</time></trkpt><trkpt lat="47.687170894521756" lon="-1.7379076582410908"><ele>21.0</ele><time>2026-03-26T09:44:15.999Z</time></trkpt><trkpt lat="47.687179116883954" lon="-1.7380997846033037"><ele>20.6</ele><time>2026-03-26T09:44:16.999Z</time></trkpt><trkpt lat="47.68720109198408" lon="-1.7382797908241696"><ele>20.200000000000003</ele><time>2026-03-26T09:44:17.999Z</time></trkpt><trkpt lat="47.68720983619272" lon="-1.7384568040337804"><ele>19.799999999999997</ele><time>2026-03-26T09:44:18.999Z</time></trkpt><trkpt lat="47.68723801551119" lon="-1.7386036473872641"><ele>19.4</ele><time>2026-03-26T09:44:19.999Z</time></trkpt><trkpt lat="47.68724353236248" lon="-1.7387424055427343"><ele>19.0</ele><time>2026-03-26T09:44:20.999Z</time></trkpt><trkpt lat="47.68724121054051" lon="-1.7388518550499872"><ele>18.333333333333332</ele><time>2026-03-26T09:44:21.998Z</time></trkpt><trkpt lat="47.68724258838117" lon="-1.738946462942844"><ele>17.666666666666664</ele><time>2026-03-26T09:44:22.998Z</time></trkpt><trkpt lat="47.68723317885519" lon="-1.7390494464264126"><ele>17.0</ele><time>2026-03-26T09:44:23.998Z</time></trkpt><trkpt lat="47.68722872146216" lon="-1.739161101078953"><ele>16.333333333333332</ele><time>2026-03-26T09:44:24.998Z</time></trkpt><trkpt lat="47.68721346187575" lon="-1.7393171931976275"><ele>15.666666666666666</ele><time>2026-03-26T09:44:25.998Z</time></trkpt><trkpt lat="47.68719199139371" lon="-1.7394936628676934"><ele>15.0</ele><time>2026-03-26T09:44:26.998Z</time></trkpt><trkpt lat="47.687176096788896" lon="-1.7396723565356524"><ele>14.75</ele><time>2026-03-26T09:44:27.998Z</time></trkpt><trkpt lat="47.68714585154469" lon="-1.7398699325765516"><ele>14.5</ele><time>2026-03-26T09:44:28.998Z</time></trkpt><trkpt lat="47.68711770953537" lon="-1.7400631452137272"><ele>14.25</ele><time>2026-03-26T09:44:29.998Z</time></trkpt><trkpt lat="47.68709952022333" lon="-1.740236236450998"><ele>14.0</ele><time>2026-03-26T09:44:30.998Z</time></trkpt><trkpt lat="47.68709179210703" lon="-1.7403809526878502"><ele>14.000000000000002</ele><time>2026-03-26T09:44:32Z</time></trkpt><trkpt lat="47.68708174049462" lon="-1.740498660900921"><ele>14.0</ele><time>2026-03-26T09:44:33Z</time></trkpt><trkpt lat="47.68707487127129" lon="-1.740600160427258"><ele>14.0</ele><time>2026-03-26T09:44:34Z</time></trkpt><trkpt lat="47.68709079190575" lon="-1.7407221298954534"><ele>14.0</ele><time>2026-03-26T09:44:36Z</time></trkpt><trkpt lat="47.687159399455886" lon="-1.740796099627999"><ele>14.000000000000002</ele><time>2026-03-26T09:44:38Z</time></trkpt><trkpt lat="47.68727338497453" lon="-1.740885804101135"><ele>14.0</ele><time>2026-03-26T09:44:40Z</time></trkpt><trkpt lat="47.68735134417091" lon="-1.740901286524429"><ele>14.0</ele><time>2026-03-26T09:44:41Z</time></trkpt><trkpt lat="47.68742511878604" lon="-1.7409504696198708"><ele>13.999999999999998</ele><time>2026-03-26T09:44:42Z</time></trkpt><trkpt lat="47.687514780131615" lon="-1.741007724448901"><ele>13.999999999999998</ele><time>2026-03-26T09:44:43Z</time></trkpt><trkpt lat="47.68761387615956" lon="-1.741074769919029"><ele>14.0</ele><time>2026-03-26T09:44:44Z</time></trkpt><trkpt lat="47.687710307159584" lon="-1.741144863005746"><ele>14.0</ele><time>2026-03-26T09:44:45Z</time></trkpt><trkpt lat="47.68778749372253" lon="-1.7412308028028998"><ele>14.799999999999999</ele><time>2026-03-26T09:44:46Z</time></trkpt><trkpt lat="47.68787693692196" lon="-1.7413013199947238"><ele>15.599999999999998</ele><time>2026-03-26T09:44:47Z</time></trkpt><trkpt lat="47.68795518444028" lon="-1.7414023513710581"><ele>16.4</ele><time>2026-03-26T09:44:48Z</time></trkpt><trkpt lat="47.68802362090543" lon="-1.741513016422082"><ele>17.2</ele><time>2026-03-26T09:44:49Z</time></trkpt><trkpt lat="47.688098526302774" lon="-1.7416234582772185"><ele>18.0</ele><time>2026-03-26T09:44:50Z</time></trkpt><trkpt lat="47.688147448383546" lon="-1.741759855340664"><ele>18.6</ele><time>2026-03-26T09:44:51Z</time></trkpt><trkpt lat="47.6881586353298" lon="-1.7419123296755676"><ele>19.200000000000003</ele><time>2026-03-26T09:44:52Z</time></trkpt><trkpt lat="47.688166342278116" lon="-1.742061369017761"><ele>19.8</ele><time>2026-03-26T09:44:53Z</time></trkpt><trkpt lat="47.68818166440687" lon="-1.7422236444495902"><ele>20.400000000000002</ele><time>2026-03-26T09:44:54Z</time></trkpt><trkpt lat="47.688191958424994" lon="-1.7423886592182942"><ele>21.0</ele><time>2026-03-26T09:44:55Z</time></trkpt><trkpt lat="47.688201062503886" lon="-1.7425487838478741"><ele>21.0</ele><time>2026-03-26T09:44:56Z</time></trkpt><trkpt lat="47.688193696028044" lon="-1.7427119278354826"><ele>21.0</ele><time>2026-03-26T09:44:57Z</time></trkpt><trkpt lat="47.68820765769673" lon="-1.7428746969618785"><ele>21.0</ele><time>2026-03-26T09:44:58Z</time></trkpt><trkpt lat="47.68822289757387" lon="-1.7430404700215758"><ele>21.0</ele><time>2026-03-26T09:44:59Z</time></trkpt><trkpt lat="47.68823114115574" lon="-1.7432019787076083"><ele>21.0</ele><time>2026-03-26T09:45:00Z</time></trkpt><trkpt lat="47.68824151193385" lon="-1.743363940406871"><ele>21.8</ele><time>2026-03-26T09:45:01Z</time></trkpt><trkpt lat="47.68826962674995" lon="-1.7435194575349062"><ele>22.6</ele><time>2026-03-26T09:45:02Z</time></trkpt><trkpt lat="47.688278249076795" lon="-1.7436274106043241"><ele>23.4</ele><time>2026-03-26T09:45:03Z</time></trkpt><trkpt lat="47.68830602690911" lon="-1.743762870226552"><ele>24.2</ele><time>2026-03-26T09:45:05Z</time></trkpt><trkpt lat="47.68829658233545" lon="-1.7436684360047645"><ele>25.0</ele><time>2026-03-26T09:45:15Z</time></trkpt><trkpt lat="47.68825181324402" lon="-1.7435213118985733"><ele>25.000000000000004</ele><time>2026-03-26T09:45:17Z</time></trkpt><trkpt lat="47.68822810067298" lon="-1.7433395848475608"><ele>25.0</ele><time>2026-03-26T09:45:19Z</time></trkpt><trkpt lat="47.688217871950584" lon="-1.7432236507686385"><ele>25.0</ele><time>2026-03-26T09:45:20Z</time></trkpt><trkpt lat="47.6882057621396" lon="-1.7431122399652743"><ele>25.0</ele><time>2026-03-26T09:45:21Z</time></trkpt><trkpt lat="47.688199284999605" lon="-1.743004986065519"><ele>25.000000000000004</ele><time>2026-03-26T09:45:21.999Z</time></trkpt><trkpt lat="47.68820331804592" lon="-1.7429071313860518"><ele>25.0</ele><time>2026-03-26T09:45:22.999Z</time></trkpt><trkpt lat="47.68819006289283" lon="-1.7427697425938153"><ele>24.2</ele><time>2026-03-26T09:45:24.999Z</time></trkpt><trkpt lat="47.68818415992544" lon="-1.7425923278379205"><ele>23.4</ele><time>2026-03-26T09:45:26.999Z</time></trkpt><trkpt lat="47.68818149597618" lon="-1.7424788785339729"><ele>22.6</ele><time>2026-03-26T09:45:27.999Z</time></trkpt><trkpt lat="47.68815763144292" lon="-1.7423722803279509"><ele>21.8</ele><time>2026-03-26T09:45:28.999Z</time></trkpt><trkpt lat="47.688152178758195" lon="-1.7422763771851677"><ele>21.0</ele><time>2026-03-26T09:45:29.999Z</time></trkpt><trkpt lat="47.68813716354213" lon="-1.7420938969278743"><ele>21.0</ele><time>2026-03-26T09:45:31.999Z</time></trkpt><trkpt lat="47.68811448128703" lon="-1.7419287339715694"><ele>21.0</ele><time>2026-03-26T09:45:33.999Z</time></trkpt><trkpt lat="47.68808500835051" lon="-1.741775442778757"><ele>21.0</ele><time>2026-03-26T09:45:35.999Z</time></trkpt><trkpt lat="47.688041362496826" lon="-1.7416375015733283"><ele>21.0</ele><time>2026-03-26T09:45:37.999Z</time></trkpt><trkpt lat="47.68797775107675" lon="-1.7415083348164782"><ele>21.0</ele><time>2026-03-26T09:45:39.999Z</time></trkpt><trkpt lat="47.68789749103064" lon="-1.7413892844491512"><ele>20.400000000000002</ele><time>2026-03-26T09:45:41.999Z</time></trkpt><trkpt lat="47.68779040784012" lon="-1.7412899992519284"><ele>19.8</ele><time>2026-03-26T09:45:43.999Z</time></trkpt><trkpt lat="47.68770407848419" lon="-1.741232233977353"><ele>19.200000000000003</ele><time>2026-03-26T09:45:44.999Z</time></trkpt><trkpt lat="47.687645319302746" lon="-1.7411557433171274"><ele>18.6</ele><time>2026-03-26T09:45:45.999Z</time></trkpt><trkpt lat="47.687571635992335" lon="-1.7410826901075476"><ele>18.0</ele><time>2026-03-26T09:45:46.999Z</time></trkpt><trkpt lat="47.687482682756276" lon="-1.741013760953159"><ele>17.2</ele><time>2026-03-26T09:45:47.999Z</time></trkpt><trkpt lat="47.68738490227345" lon="-1.74094348768106"><ele>16.4</ele><time>2026-03-26T09:45:48.999Z</time></trkpt><trkpt lat="47.68729445347574" lon="-1.7409050738250587"><ele>15.599999999999998</ele><time>2026-03-26T09:45:49.999Z</time></trkpt><trkpt lat="47.68722051962936" lon="-1.7408551161430248"><ele>14.799999999999999</ele><time>2026-03-26T09:45:50.999Z</time></trkpt><trkpt lat="47.6871613138031" lon="-1.740799000124876"><ele>14.0</ele><time>2026-03-26T09:45:51.999Z</time></trkpt><trkpt lat="47.68706786832786" lon="-1.7407517823580787"><ele>14.0</ele><time>2026-03-26T09:45:53.999Z</time></trkpt><trkpt lat="47.6870209844687" lon="-1.7410145730606028"><ele>14.0</ele><time>2026-03-26T09:45:57.999Z</time></trkpt><trkpt lat="47.68698491338823" lon="-1.7411972609234179"><ele>14.0</ele><time>2026-03-26T09:45:59.999Z</time></trkpt><trkpt lat="47.68695681030587" lon="-1.7413137330973416"><ele>14.0</ele><time>2026-03-26T09:46:00.999Z</time></trkpt><trkpt lat="47.6869128920454" lon="-1.7414294587855315"><ele>14.799999999999999</ele><time>2026-03-26T09:46:01.999Z</time></trkpt><trkpt lat="47.686907375987374" lon="-1.7415844414095598"><ele>15.599999999999998</ele><time>2026-03-26T09:46:02.999Z</time></trkpt><trkpt lat="47.68687907792184" lon="-1.7417478265268658"><ele>16.4</ele><time>2026-03-26T09:46:03.999Z</time></trkpt><trkpt lat="47.68684372584737" lon="-1.7418928486465366"><ele>17.2</ele><time>2026-03-26T09:46:04.999Z</time></trkpt><trkpt lat="47.68680825983336" lon="-1.7420246923597127"><ele>18.0</ele><time>2026-03-26T09:46:05.999Z</time></trkpt><trkpt lat="47.68673305181392" lon="-1.7422052936937245"><ele>18.75</ele><time>2026-03-26T09:46:06.999Z</time></trkpt><trkpt lat="47.68667138689424" lon="-1.7423850120241984"><ele>19.5</ele><time>2026-03-26T09:46:07.999Z</time></trkpt><trkpt lat="47.686621384391806" lon="-1.7425532437779396"><ele>20.25</ele><time>2026-03-26T09:46:08.999Z</time></trkpt><trkpt lat="47.686577468275246" lon="-1.7427564126382147"><ele>21.0</ele><time>2026-03-26T09:46:09.999Z</time></trkpt><trkpt lat="47.68653947818536" lon="-1.7429838215932092"><ele>22.25</ele><time>2026-03-26T09:46:10.999Z</time></trkpt><trkpt lat="47.68648157591227" lon="-1.743211332077183"><ele>23.5</ele><time>2026-03-26T09:46:11.999Z</time></trkpt><trkpt lat="47.686419919505546" lon="-1.7434042914520709"><ele>24.75</ele><time>2026-03-26T09:46:12.999Z</time></trkpt><trkpt lat="47.68636353474384" lon="-1.743578958059535"><ele>26.0</ele><time>2026-03-26T09:46:13.999Z</time></trkpt><trkpt lat="47.68630319382709" lon="-1.743794155310091"><ele>27.0</ele><time>2026-03-26T09:46:14.999Z</time></trkpt><trkpt lat="47.68625736165953" lon="-1.744005408881577"><ele>28.0</ele><time>2026-03-26T09:46:15.999Z</time></trkpt><trkpt lat="47.68620877867836" lon="-1.7442235780970463"><ele>29.0</ele><time>2026-03-26T09:46:16.999Z</time></trkpt><trkpt lat="47.686148990464545" lon="-1.7444479467539704"><ele>29.666666666666664</ele><time>2026-03-26T09:46:17.999Z</time></trkpt><trkpt lat="47.68609948305248" lon="-1.7446656853627471"><ele>30.333333333333336</ele><time>2026-03-26T09:46:18.999Z</time></trkpt><trkpt lat="47.68604282081471" lon="-1.7448924645995092"><ele>31.0</ele><time>2026-03-26T09:46:19.999Z</time></trkpt><trkpt lat="47.68597445755703" lon="-1.7451075193992989"><ele>31.5</ele><time>2026-03-26T09:46:20.999Z</time></trkpt><trkpt lat="47.68592032532688" lon="-1.7453062469121345"><ele>32.0</ele><time>2026-03-26T09:46:21.999Z</time></trkpt><trkpt lat="47.68587571121385" lon="-1.745480436585997"><ele>32.5</ele><time>2026-03-26T09:46:22.998Z</time></trkpt><trkpt lat="47.685846945903336" lon="-1.7456445632862976"><ele>33.0</ele><time>2026-03-26T09:46:23.998Z</time></trkpt><trkpt lat="47.685833853844805" lon="-1.7458127930423655"><ele>33.0</ele><time>2026-03-26T09:46:24.998Z</time></trkpt><trkpt lat="47.68585351954313" lon="-1.7460009179583875"><ele>33.0</ele><time>2026-03-26T09:46:25.998Z</time></trkpt><trkpt lat="47.68588673449496" lon="-1.746217849270793"><ele>33.0</ele><time>2026-03-26T09:46:26.998Z</time></trkpt><trkpt lat="47.68589344052898" lon="-1.7464468894907526"><ele>33.0</ele><time>2026-03-26T09:46:27.998Z</time></trkpt><trkpt lat="47.685915759294886" lon="-1.7466656134035745"><ele>33.666666666666664</ele><time>2026-03-26T09:46:28.998Z</time></trkpt><trkpt lat="47.68595919479881" lon="-1.74687472742257"><ele>34.33333333333333</ele><time>2026-03-26T09:46:29.998Z</time></trkpt><trkpt lat="47.685989119845146" lon="-1.7471035399529469"><ele>35.0</ele><time>2026-03-26T09:46:30.998Z</time></trkpt><trkpt lat="47.68601867842735" lon="-1.747329550815161"><ele>35.33333333333333</ele><time>2026-03-26T09:46:31.998Z</time></trkpt><trkpt lat="47.68603470957132" lon="-1.7475732796767465"><ele>35.666666666666664</ele><time>2026-03-26T09:46:32.998Z</time></trkpt><trkpt lat="47.686087996909094" lon="-1.7478226757723305"><ele>36.0</ele><time>2026-03-26T09:46:33.998Z</time></trkpt><trkpt lat="47.68612547292352" lon="-1.7480568929605662"><ele>38.0</ele><time>2026-03-26T09:46:34.998Z</time></trkpt><trkpt lat="47.68615486480276" lon="-1.7482807814880807"><ele>40.0</ele><time>2026-03-26T09:46:35.998Z</time></trkpt><trkpt lat="47.686167988917816" lon="-1.7485186536206703"><ele>42.0</ele><time>2026-03-26T09:46:37Z</time></trkpt><trkpt lat="47.6861924563662" lon="-1.7487671157599631"><ele>42.0</ele><time>2026-03-26T09:46:38Z</time></trkpt><trkpt lat="47.68622657230835" lon="-1.7490034305964668"><ele>42.0</ele><time>2026-03-26T09:46:39Z</time></trkpt><trkpt lat="47.68625912480541" lon="-1.7492401931906976"><ele>42.0</ele><time>2026-03-26T09:46:40Z</time></trkpt><trkpt lat="47.686291741746636" lon="-1.749491883141236"><ele>41.666666666666664</ele><time>2026-03-26T09:46:41Z</time></trkpt><trkpt lat="47.6863247821908" lon="-1.749740341429732"><ele>41.33333333333333</ele><time>2026-03-26T09:46:42Z</time></trkpt><trkpt lat="47.686351573519914" lon="-1.7499911120733131"><ele>41.0</ele><time>2026-03-26T09:46:43Z</time></trkpt><trkpt lat="47.68638506816312" lon="-1.7502494150610344"><ele>41.0</ele><time>2026-03-26T09:46:44Z</time></trkpt><trkpt lat="47.68642252656666" lon="-1.7505007566025308"><ele>41.0</ele><time>2026-03-26T09:46:45Z</time></trkpt><trkpt lat="47.68645671022168" lon="-1.7507560706600915"><ele>41.0</ele><time>2026-03-26T09:46:46Z</time></trkpt><trkpt lat="47.68649311077695" lon="-1.7510161818442354"><ele>41.0</ele><time>2026-03-26T09:46:47Z</time></trkpt><trkpt lat="47.68652534468666" lon="-1.751280039826152"><ele>41.0</ele><time>2026-03-26T09:46:48Z</time></trkpt><trkpt lat="47.686557688481415" lon="-1.7515471782877"><ele>41.0</ele><time>2026-03-26T09:46:49Z</time></trkpt><trkpt lat="47.686592757382655" lon="-1.7518123046905523"><ele>41.0</ele><time>2026-03-26T09:46:50Z</time></trkpt><trkpt lat="47.68662555186029" lon="-1.7520810930630346"><ele>41.0</ele><time>2026-03-26T09:46:51Z</time></trkpt><trkpt lat="47.68666110646349" lon="-1.7523485236107468"><ele>41.0</ele><time>2026-03-26T09:46:52Z</time></trkpt><trkpt lat="47.68669736089765" lon="-1.7526195742347424"><ele>41.33333333333333</ele><time>2026-03-26T09:46:53Z</time></trkpt><trkpt lat="47.6867321709883" lon="-1.7528989195835538"><ele>41.666666666666664</ele><time>2026-03-26T09:46:54Z</time></trkpt><trkpt lat="47.68676770151068" lon="-1.7531703106220637"><ele>42.0</ele><time>2026-03-26T09:46:55Z</time></trkpt><trkpt lat="47.686799600108074" lon="-1.753411628495206"><ele>42.0</ele><time>2026-03-26T09:46:56Z</time></trkpt><trkpt lat="47.686819592055286" lon="-1.7536457611958143"><ele>42.0</ele><time>2026-03-26T09:46:57Z</time></trkpt><trkpt lat="47.686849790632465" lon="-1.7538592485310773"><ele>42.0</ele><time>2026-03-26T09:46:58Z</time></trkpt><trkpt lat="47.68687623152496" lon="-1.754088596051475"><ele>42.0</ele><time>2026-03-26T09:46:59Z</time></trkpt><trkpt lat="47.68690494997306" lon="-1.754312450227147"><ele>42.0</ele><time>2026-03-26T09:47:00Z</time></trkpt><trkpt lat="47.68692538196865" lon="-1.7545118103467658"><ele>42.0</ele><time>2026-03-26T09:47:01Z</time></trkpt><trkpt lat="47.6869447096257" lon="-1.7546894421436556"><ele>42.0</ele><time>2026-03-26T09:47:02Z</time></trkpt><trkpt lat="47.68694932866174" lon="-1.7548227287435132"><ele>41.2</ele><time>2026-03-26T09:47:03Z</time></trkpt><trkpt lat="47.68696378250392" lon="-1.7549262140087702"><ele>40.400000000000006</ele><time>2026-03-26T09:47:04Z</time></trkpt><trkpt lat="47.68703330417873" lon="-1.755051294971566"><ele>39.599999999999994</ele><time>2026-03-26T09:47:06Z</time></trkpt><trkpt lat="47.687140591171584" lon="-1.7549576041871662"><ele>38.8</ele><time>2026-03-26T09:47:07Z</time></trkpt><trkpt lat="47.687259484091754" lon="-1.7549044569979924"><ele>38.0</ele><time>2026-03-26T09:47:08Z</time></trkpt><trkpt lat="47.68739229862604" lon="-1.7548459389286224"><ele>38.0</ele><time>2026-03-26T09:47:09Z</time></trkpt><trkpt lat="47.68752722857819" lon="-1.754805276234219"><ele>38.0</ele><time>2026-03-26T09:47:10Z</time></trkpt><trkpt lat="47.68765057073592" lon="-1.7547489845875353"><ele>38.0</ele><time>2026-03-26T09:47:11Z</time></trkpt><trkpt lat="47.68778008938302" lon="-1.7546881219613084"><ele>38.0</ele><time>2026-03-26T09:47:12Z</time></trkpt><trkpt lat="47.687920079445675" lon="-1.7546275867949932"><ele>36.0</ele><time>2026-03-26T09:47:13Z</time></trkpt><trkpt lat="47.68806286773964" lon="-1.7545580648500647"><ele>34.0</ele><time>2026-03-26T09:47:14Z</time></trkpt><trkpt lat="47.68821324616554" lon="-1.7544840094162237"><ele>32.0</ele><time>2026-03-26T09:47:15Z</time></trkpt><trkpt lat="47.68835615101253" lon="-1.7544138516755574"><ele>31.5</ele><time>2026-03-26T09:47:16Z</time></trkpt><trkpt lat="47.68848610441273" lon="-1.7543641139377881"><ele>31.0</ele><time>2026-03-26T09:47:17Z</time></trkpt><trkpt lat="47.688629979989194" lon="-1.7543267908487308"><ele>30.5</ele><time>2026-03-26T09:47:18Z</time></trkpt><trkpt lat="47.68875755399664" lon="-1.7542867612149797"><ele>30.0</ele><time>2026-03-26T09:47:19Z</time></trkpt><trkpt lat="47.68887956072566" lon="-1.7542643277220837"><ele>29.5</ele><time>2026-03-26T09:47:20Z</time></trkpt><trkpt lat="47.688989513689954" lon="-1.7542130126859217"><ele>29.0</ele><time>2026-03-26T09:47:21Z</time></trkpt><trkpt lat="47.68910819791886" lon="-1.7541797294308101"><ele>28.5</ele><time>2026-03-26T09:47:22Z</time></trkpt><trkpt lat="47.68923422758514" lon="-1.7541572799089393"><ele>28.0</ele><time>2026-03-26T09:47:23Z</time></trkpt><trkpt lat="47.68935877884324" lon="-1.7541484189503092"><ele>26.75</ele><time>2026-03-26T09:47:24Z</time></trkpt><trkpt lat="47.689493677681796" lon="-1.7541577263081016"><ele>25.5</ele><time>2026-03-26T09:47:25Z</time></trkpt><trkpt lat="47.68962972516938" lon="-1.7541740827401222"><ele>24.25</ele><time>2026-03-26T09:47:25.999Z</time></trkpt><trkpt lat="47.68977444792008" lon="-1.7542098844028928"><ele>23.0</ele><time>2026-03-26T09:47:26.999Z</time></trkpt><trkpt lat="47.68993020660581" lon="-1.7542269958631362"><ele>23.0</ele><time>2026-03-26T09:47:27.999Z</time></trkpt><trkpt lat="47.69009418908183" lon="-1.7542484446809148"><ele>23.0</ele><time>2026-03-26T09:47:28.999Z</time></trkpt><trkpt lat="47.6902719327354" lon="-1.7542930790326285"><ele>23.0</ele><time>2026-03-26T09:47:29.999Z</time></trkpt><trkpt lat="47.69043289880552" lon="-1.7543457511001987"><ele>21.333333333333336</ele><time>2026-03-26T09:47:30.999Z</time></trkpt><trkpt lat="47.69059437990889" lon="-1.754401202116359"><ele>19.666666666666668</ele><time>2026-03-26T09:47:31.999Z</time></trkpt><trkpt lat="47.69076794363037" lon="-1.754442916885767"><ele>18.0</ele><time>2026-03-26T09:47:32.999Z</time></trkpt><trkpt lat="47.69089273108998" lon="-1.7544750943198273"><ele>18.0</ele><time>2026-03-26T09:47:33.999Z</time></trkpt><trkpt lat="47.69100746482389" lon="-1.7545039413898091"><ele>18.0</ele><time>2026-03-26T09:47:34.999Z</time></trkpt><trkpt lat="47.69111552557224" lon="-1.754530257007318"><ele>18.0</ele><time>2026-03-26T09:47:35.999Z</time></trkpt><trkpt lat="47.69120586702774" lon="-1.7545719713984236"><ele>18.0</ele><time>2026-03-26T09:47:36.999Z</time></trkpt><trkpt lat="47.69135592422073" lon="-1.7545676828056982"><ele>17.5</ele><time>2026-03-26T09:47:38.999Z</time></trkpt><trkpt lat="47.69143192096065" lon="-1.7545841468857852"><ele>17.0</ele><time>2026-03-26T09:47:39.999Z</time></trkpt><trkpt lat="47.6914988974758" lon="-1.7545973726502866"><ele>16.5</ele><time>2026-03-26T09:47:40.999Z</time></trkpt><trkpt lat="47.69157772210938" lon="-1.7546109466472262"><ele>16.0</ele><time>2026-03-26T09:47:41.999Z</time></trkpt><trkpt lat="47.69166634237284" lon="-1.754625266523048"><ele>15.5</ele><time>2026-03-26T09:47:42.999Z</time></trkpt><trkpt lat="47.691762251649635" lon="-1.7546391531112702"><ele>15.0</ele><time>2026-03-26T09:47:43.999Z</time></trkpt><trkpt lat="47.6918621429538" lon="-1.754663776668236"><ele>15.0</ele><time>2026-03-26T09:47:44.999Z</time></trkpt><trkpt lat="47.69196900173974" lon="-1.7546669606886522"><ele>15.0</ele><time>2026-03-26T09:47:45.999Z</time></trkpt><trkpt lat="47.69206797477499" lon="-1.75466417281163"><ele>15.0</ele><time>2026-03-26T09:47:46.999Z</time></trkpt><trkpt lat="47.69217831001908" lon="-1.7546594290127802"><ele>15.0</ele><time>2026-03-26T09:47:47.999Z</time></trkpt><trkpt lat="47.69231542914961" lon="-1.7546826264553104"><ele>15.0</ele><time>2026-03-26T09:47:48.999Z</time></trkpt><trkpt lat="47.69246631822267" lon="-1.7547208172213982"><ele>15.0</ele><time>2026-03-26T09:47:49.999Z</time></trkpt><trkpt lat="47.692691217094115" lon="-1.7547682230675847"><ele>15.0</ele><time>2026-03-26T09:47:50.999Z</time></trkpt><trkpt lat="47.69284214959892" lon="-1.7547983199885384"><ele>14.75</ele><time>2026-03-26T09:47:51.999Z</time></trkpt><trkpt lat="47.69297999070375" lon="-1.754821121442276"><ele>14.5</ele><time>2026-03-26T09:47:52.999Z</time></trkpt><trkpt lat="47.69312861694486" lon="-1.754843944496888"><ele>14.25</ele><time>2026-03-26T09:47:53.999Z</time></trkpt><trkpt lat="47.693286245786865" lon="-1.754861457816799"><ele>14.0</ele><time>2026-03-26T09:47:54.999Z</time></trkpt><trkpt lat="47.69343379637373" lon="-1.754890995308976"><ele>14.0</ele><time>2026-03-26T09:47:55.999Z</time></trkpt><trkpt lat="47.69358425806617" lon="-1.7549169291335143"><ele>14.0</ele><time>2026-03-26T09:47:56.999Z</time></trkpt><trkpt lat="47.69374152211751" lon="-1.7549356245729348"><ele>14.0</ele><time>2026-03-26T09:47:57.999Z</time></trkpt><trkpt lat="47.69389367145738" lon="-1.7549601126454932"><ele>14.0</ele><time>2026-03-26T09:47:58.999Z</time></trkpt><trkpt lat="47.69405954692805" lon="-1.7549987933992384"><ele>14.0</ele><time>2026-03-26T09:47:59.999Z</time></trkpt><trkpt lat="47.694236286626456" lon="-1.755076618626521"><ele>14.0</ele><time>2026-03-26T09:48:00.999Z</time></trkpt><trkpt lat="47.694429042295994" lon="-1.7551480579402305"><ele>14.0</ele><time>2026-03-26T09:48:01.999Z</time></trkpt><trkpt lat="47.694593404215404" lon="-1.7552412446798886"><ele>14.0</ele><time>2026-03-26T09:48:02.999Z</time></trkpt><trkpt lat="47.69473552184743" lon="-1.7553246169625139"><ele>14.0</ele><time>2026-03-26T09:48:03.999Z</time></trkpt><trkpt lat="47.694884495511495" lon="-1.7553906126718282"><ele>14.0</ele><time>2026-03-26T09:48:04.999Z</time></trkpt><trkpt lat="47.695022319664055" lon="-1.7554561984715733"><ele>14.0</ele><time>2026-03-26T09:48:05.999Z</time></trkpt><trkpt lat="47.69518739493917" lon="-1.755516599198937"><ele>14.0</ele><time>2026-03-26T09:48:06.999Z</time></trkpt><trkpt lat="47.6953441715895" lon="-1.7555901698445133"><ele>13.666666666666668</ele><time>2026-03-26T09:48:07.999Z</time></trkpt><trkpt lat="47.695513615295106" lon="-1.7556412959119048"><ele>13.333333333333332</ele><time>2026-03-26T09:48:08.999Z</time></trkpt><trkpt lat="47.69566436418277" lon="-1.7556997650800636"><ele>13.0</ele><time>2026-03-26T09:48:09.999Z</time></trkpt><trkpt lat="47.69583774605654" lon="-1.755789099857921"><ele>13.0</ele><time>2026-03-26T09:48:10.999Z</time></trkpt><trkpt lat="47.69600718403468" lon="-1.7558601480242395"><ele>13.0</ele><time>2026-03-26T09:48:11.999Z</time></trkpt><trkpt lat="47.696176388106466" lon="-1.7559031575302289"><ele>13.0</ele><time>2026-03-26T09:48:12.999Z</time></trkpt><trkpt lat="47.696322960795726" lon="-1.7559615480084194"><ele>13.333333333333332</ele><time>2026-03-26T09:48:13.999Z</time></trkpt><trkpt lat="47.696504371542886" lon="-1.7560397456148849"><ele>13.666666666666668</ele><time>2026-03-26T09:48:14.999Z</time></trkpt><trkpt lat="47.6966750100689" lon="-1.7561091224863659"><ele>14.0</ele><time>2026-03-26T09:48:15.999Z</time></trkpt><trkpt lat="47.696845009741544" lon="-1.7561690590963661"><ele>14.666666666666668</ele><time>2026-03-26T09:48:16.999Z</time></trkpt><trkpt lat="47.69701530929279" lon="-1.7562350274795238"><ele>15.333333333333332</ele><time>2026-03-26T09:48:17.999Z</time></trkpt><trkpt lat="47.69717416752587" lon="-1.7562948246761652"><ele>16.0</ele><time>2026-03-26T09:48:18.999Z</time></trkpt><trkpt lat="47.69734165143024" lon="-1.7563689219447465"><ele>16.0</ele><time>2026-03-26T09:48:19.999Z</time></trkpt><trkpt lat="47.697482433401795" lon="-1.756450694122585"><ele>16.0</ele><time>2026-03-26T09:48:20.999Z</time></trkpt><trkpt lat="47.69759292444656" lon="-1.7565351501712698"><ele>16.0</ele><time>2026-03-26T09:48:21.999Z</time></trkpt><trkpt lat="47.69770847558328" lon="-1.7565885840830824"><ele>16.0</ele><time>2026-03-26T09:48:22.999Z</time></trkpt><trkpt lat="47.69779339873482" lon="-1.756654539108775"><ele>16.5</ele><time>2026-03-26T09:48:23.999Z</time></trkpt><trkpt lat="47.69786633881785" lon="-1.756696611548434"><ele>17.0</ele><time>2026-03-26T09:48:24.999Z</time></trkpt><trkpt lat="47.697934744647746" lon="-1.756712439330036"><ele>17.5</ele><time>2026-03-26T09:48:25.999Z</time></trkpt><trkpt lat="47.69799207831056" lon="-1.7567793947314674"><ele>18.0</ele><time>2026-03-26T09:48:26.998Z</time></trkpt><trkpt lat="47.69804656368498" lon="-1.7568262518386504"><ele>18.5</ele><time>2026-03-26T09:48:27.998Z</time></trkpt><trkpt lat="47.69816092132624" lon="-1.756756656740082"><ele>19.0</ele><time>2026-03-26T09:48:28.998Z</time></trkpt><trkpt lat="47.69825702380343" lon="-1.756743017178412"><ele>19.0</ele><time>2026-03-26T09:48:29.998Z</time></trkpt><trkpt lat="47.698363280703134" lon="-1.7567201637176317"><ele>19.0</ele><time>2026-03-26T09:48:30.998Z</time></trkpt><trkpt lat="47.69848724239431" lon="-1.7566906299067704"><ele>19.0</ele><time>2026-03-26T09:48:31.998Z</time></trkpt><trkpt lat="47.69861838920484" lon="-1.7566594037242143"><ele>19.0</ele><time>2026-03-26T09:48:32.998Z</time></trkpt><trkpt lat="47.69876386047482" lon="-1.7566295791577382"><ele>19.25</ele><time>2026-03-26T09:48:33.998Z</time></trkpt><trkpt lat="47.69890053941777" lon="-1.7566078814006478"><ele>19.5</ele><time>2026-03-26T09:48:34.998Z</time></trkpt><trkpt lat="47.69902459721235" lon="-1.7566018600697066"><ele>19.75</ele><time>2026-03-26T09:48:35.998Z</time></trkpt><trkpt lat="47.69916293881673" lon="-1.7565807551952197"><ele>20.0</ele><time>2026-03-26T09:48:36.998Z</time></trkpt><trkpt lat="47.69929588709929" lon="-1.756554227688998"><ele>19.75</ele><time>2026-03-26T09:48:37.998Z</time></trkpt><trkpt lat="47.69944004548699" lon="-1.7565265918594601"><ele>19.5</ele><time>2026-03-26T09:48:38.998Z</time></trkpt><trkpt lat="47.69958276816254" lon="-1.7565036131723288"><ele>19.25</ele><time>2026-03-26T09:48:39.998Z</time></trkpt><trkpt lat="47.69973735947297" lon="-1.756472983159134"><ele>19.0</ele><time>2026-03-26T09:48:40.998Z</time></trkpt><trkpt lat="47.69989286799755" lon="-1.7564433691012558"><ele>19.0</ele><time>2026-03-26T09:48:41.998Z</time></trkpt><trkpt lat="47.700056564266276" lon="-1.7564130634207127"><ele>19.0</ele><time>2026-03-26T09:48:43Z</time></trkpt><trkpt lat="47.700217501058795" lon="-1.7563867405411604"><ele>19.0</ele><time>2026-03-26T09:48:44Z</time></trkpt><trkpt lat="47.700370001881325" lon="-1.7563739229059478"><ele>18.0</ele><time>2026-03-26T09:48:45Z</time></trkpt><trkpt lat="47.70050075024506" lon="-1.7563502037966328"><ele>17.0</ele><time>2026-03-26T09:48:46Z</time></trkpt><trkpt lat="47.7006337702083" lon="-1.7563073125920643"><ele>16.0</ele><time>2026-03-26T09:48:47Z</time></trkpt><trkpt lat="47.70074121391071" lon="-1.7562887661312068"><ele>15.0</ele><time>2026-03-26T09:48:48Z</time></trkpt><trkpt lat="47.700853133098036" lon="-1.7562694486680601"><ele>15.0</ele><time>2026-03-26T09:48:49Z</time></trkpt><trkpt lat="47.700966452881104" lon="-1.756249890642084"><ele>15.0</ele><time>2026-03-26T09:48:50Z</time></trkpt><trkpt lat="47.70107654746463" lon="-1.7562303189711914"><ele>15.0</ele><time>2026-03-26T09:48:51Z</time></trkpt><trkpt lat="47.701177808739324" lon="-1.7562093976811244"><ele>15.0</ele><time>2026-03-26T09:48:52Z</time></trkpt><trkpt lat="47.701289381648" lon="-1.7561841237500708"><ele>15.0</ele><time>2026-03-26T09:48:53Z</time></trkpt><trkpt lat="47.70141170281622" lon="-1.756156415079386"><ele>14.25</ele><time>2026-03-26T09:48:54Z</time></trkpt><trkpt lat="47.70154161979235" lon="-1.7561386485233044"><ele>13.5</ele><time>2026-03-26T09:48:55Z</time></trkpt><trkpt lat="47.70167859842515" lon="-1.7561436879876524"><ele>12.75</ele><time>2026-03-26T09:48:56Z</time></trkpt><trkpt lat="47.70182333297536" lon="-1.756166499845533"><ele>12.0</ele><time>2026-03-26T09:48:57Z</time></trkpt><trkpt lat="47.70197457127504" lon="-1.7562032383471684"><ele>10.666666666666666</ele><time>2026-03-26T09:48:58Z</time></trkpt><trkpt lat="47.702135251733225" lon="-1.756241039681101"><ele>9.333333333333332</ele><time>2026-03-26T09:48:59Z</time></trkpt><trkpt lat="47.70230856045354" lon="-1.756280952591437"><ele>8.0</ele><time>2026-03-26T09:49:00Z</time></trkpt><trkpt lat="47.70247368094994" lon="-1.7563200782210937"><ele>8.0</ele><time>2026-03-26T09:49:01Z</time></trkpt><trkpt lat="47.7026336140146" lon="-1.7563586235718125"><ele>8.0</ele><time>2026-03-26T09:49:02Z</time></trkpt><trkpt lat="47.70277109506814" lon="-1.756393120796477"><ele>8.0</ele><time>2026-03-26T09:49:03Z</time></trkpt><trkpt lat="47.702897264549975" lon="-1.756426656154057"><ele>8.0</ele><time>2026-03-26T09:49:04Z</time></trkpt><trkpt lat="47.70303969957438" lon="-1.7564816288891663"><ele>7.75</ele><time>2026-03-26T09:49:05Z</time></trkpt><trkpt lat="47.7031837123251" lon="-1.7564728529694433"><ele>7.5</ele><time>2026-03-26T09:49:06Z</time></trkpt><trkpt lat="47.70331638929411" lon="-1.7564466645723587"><ele>7.25</ele><time>2026-03-26T09:49:07Z</time></trkpt><trkpt lat="47.70346057858763" lon="-1.756397265497734"><ele>7.0</ele><time>2026-03-26T09:49:08Z</time></trkpt><trkpt lat="47.70360307695314" lon="-1.7563356371642336"><ele>6.75</ele><time>2026-03-26T09:49:09Z</time></trkpt><trkpt lat="47.70375346443171" lon="-1.7562746288422628"><ele>6.5</ele><time>2026-03-26T09:49:10Z</time></trkpt><trkpt lat="47.70388222421508" lon="-1.756211095701593"><ele>6.25</ele><time>2026-03-26T09:49:11Z</time></trkpt><trkpt lat="47.70398454806829" lon="-1.7561325230093763"><ele>6.0</ele><time>2026-03-26T09:49:12Z</time></trkpt><trkpt lat="47.70406686868337" lon="-1.7560616578301464"><ele>6.0</ele><time>2026-03-26T09:49:13Z</time></trkpt><trkpt lat="47.70414635962447" lon="-1.755935155557853"><ele>6.0</ele><time>2026-03-26T09:49:14Z</time></trkpt><trkpt lat="47.70421559710974" lon="-1.7557607178780252"><ele>6.0</ele><time>2026-03-26T09:49:15Z</time></trkpt><trkpt lat="47.70423220590773" lon="-1.7555664668366688"><ele>6.0</ele><time>2026-03-26T09:49:16Z</time></trkpt><trkpt lat="47.704240804841675" lon="-1.755391700708987"><ele>6.5</ele><time>2026-03-26T09:49:17Z</time></trkpt><trkpt lat="47.70424196101859" lon="-1.7551985164843034"><ele>7.0</ele><time>2026-03-26T09:49:18Z</time></trkpt><trkpt lat="47.704238683054804" lon="-1.7550230209884576"><ele>7.5</ele><time>2026-03-26T09:49:19Z</time></trkpt><trkpt lat="47.70422492461725" lon="-1.7548184775157538"><ele>8.0</ele><time>2026-03-26T09:49:20Z</time></trkpt><trkpt lat="47.70420483523876" lon="-1.754652331557991"><ele>7.999999999999999</ele><time>2026-03-26T09:49:21Z</time></trkpt><trkpt lat="47.70418913828541" lon="-1.754522580725475"><ele>8.0</ele><time>2026-03-26T09:49:21.999Z</time></trkpt><trkpt lat="47.70415878778401" lon="-1.7544122507250788"><ele>8.0</ele><time>2026-03-26T09:49:22.999Z</time></trkpt><trkpt lat="47.704120949880746" lon="-1.754331681693032"><ele>8.0</ele><time>2026-03-26T09:49:23.999Z</time></trkpt><trkpt lat="47.704064805386565" lon="-1.7541779352109381"><ele>7.999999999999999</ele><time>2026-03-26T09:49:25.999Z</time></trkpt><trkpt lat="47.70402501707921" lon="-1.754076736947088"><ele>8.0</ele><time>2026-03-26T09:49:26.999Z</time></trkpt><trkpt lat="47.70399168915192" lon="-1.7539604563185605"><ele>7.800000000000001</ele><time>2026-03-26T09:49:27.999Z</time></trkpt><trkpt lat="47.70392844656627" lon="-1.753855730880155"><ele>7.6000000000000005</ele><time>2026-03-26T09:49:28.999Z</time></trkpt><trkpt lat="47.70387354510407" lon="-1.7537435546726423"><ele>7.3999999999999995</ele><time>2026-03-26T09:49:29.999Z</time></trkpt><trkpt lat="47.703815717925885" lon="-1.7535936230956448"><ele>7.199999999999999</ele><time>2026-03-26T09:49:30.999Z</time></trkpt><trkpt lat="47.703751973055994" lon="-1.7534450550967986"><ele>7.0</ele><time>2026-03-26T09:49:31.999Z</time></trkpt><trkpt lat="47.70368735781831" lon="-1.753303747942502"><ele>7.3999999999999995</ele><time>2026-03-26T09:49:32.999Z</time></trkpt><trkpt lat="47.70363087245468" lon="-1.7531779451483565"><ele>7.799999999999999</ele><time>2026-03-26T09:49:33.999Z</time></trkpt><trkpt lat="47.70357956214548" lon="-1.753061766783045"><ele>8.2</ele><time>2026-03-26T09:49:34.999Z</time></trkpt><trkpt lat="47.70352617540321" lon="-1.7529380755601618"><ele>8.6</ele><time>2026-03-26T09:49:35.999Z</time></trkpt><trkpt lat="47.703468625637" lon="-1.7527999292390126"><ele>9.0</ele><time>2026-03-26T09:49:36.999Z</time></trkpt><trkpt lat="47.70341806177109" lon="-1.7526547943807622"><ele>9.75</ele><time>2026-03-26T09:49:37.999Z</time></trkpt><trkpt lat="47.70338009789854" lon="-1.7524945268585346"><ele>10.5</ele><time>2026-03-26T09:49:38.999Z</time></trkpt><trkpt lat="47.70335315872208" lon="-1.7523230024704395"><ele>11.25</ele><time>2026-03-26T09:49:39.999Z</time></trkpt><trkpt lat="47.70332629679089" lon="-1.752147948577483"><ele>12.0</ele><time>2026-03-26T09:49:40.999Z</time></trkpt><trkpt lat="47.70330546748569" lon="-1.7519634923157592"><ele>12.25</ele><time>2026-03-26T09:49:41.999Z</time></trkpt><trkpt lat="47.70328191973832" lon="-1.7517731453231937"><ele>12.5</ele><time>2026-03-26T09:49:42.999Z</time></trkpt><trkpt lat="47.703259790517066" lon="-1.7515812993351731"><ele>12.75</ele><time>2026-03-26T09:49:43.999Z</time></trkpt><trkpt lat="47.70324417673124" lon="-1.7513843022709228"><ele>13.0</ele><time>2026-03-26T09:49:44.999Z</time></trkpt><trkpt lat="47.70322455896926" lon="-1.7512217833759838"><ele>13.0</ele><time>2026-03-26T09:49:45.999Z</time></trkpt><trkpt lat="47.7032079204357" lon="-1.7510685651419977"><ele>13.0</ele><time>2026-03-26T09:49:46.999Z</time></trkpt><trkpt lat="47.7031896091087" lon="-1.7509533293364838"><ele>13.0</ele><time>2026-03-26T09:49:47.999Z</time></trkpt><trkpt lat="47.7031754990728" lon="-1.7508167087721154"><ele>13.0</ele><time>2026-03-26T09:49:48.999Z</time></trkpt><trkpt lat="47.70315888832681" lon="-1.7506652021395483"><ele>13.0</ele><time>2026-03-26T09:49:49.999Z</time></trkpt><trkpt lat="47.70314423198707" lon="-1.7504956767377213"><ele>13.0</ele><time>2026-03-26T09:49:50.999Z</time></trkpt><trkpt lat="47.70312019574713" lon="-1.7503155075302745"><ele>13.0</ele><time>2026-03-26T09:49:51.999Z</time></trkpt><trkpt lat="47.7030831454766" lon="-1.750130715626774"><ele>13.0</ele><time>2026-03-26T09:49:52.999Z</time></trkpt><trkpt lat="47.70303927714602" lon="-1.7499543683176078"><ele>13.0</ele><time>2026-03-26T09:49:53.999Z</time></trkpt><trkpt lat="47.70298685879582" lon="-1.749760483379466"><ele>13.0</ele><time>2026-03-26T09:49:54.999Z</time></trkpt><trkpt lat="47.70293221412879" lon="-1.7495729039729702"><ele>13.0</ele><time>2026-03-26T09:49:55.999Z</time></trkpt><trkpt lat="47.70288195151088" lon="-1.7494000356137531"><ele>13.0</ele><time>2026-03-26T09:49:56.999Z</time></trkpt><trkpt lat="47.70282700243286" lon="-1.7492368778415106"><ele>13.0</ele><time>2026-03-26T09:49:57.999Z</time></trkpt><trkpt lat="47.70275967797425" lon="-1.74906604342872"><ele>13.0</ele><time>2026-03-26T09:49:58.999Z</time></trkpt><trkpt lat="47.702680683539036" lon="-1.74889597276863"><ele>13.0</ele><time>2026-03-26T09:49:59.999Z</time></trkpt><trkpt lat="47.70259675378918" lon="-1.7487248157892301"><ele>13.0</ele><time>2026-03-26T09:50:00.999Z</time></trkpt><trkpt lat="47.702494665066084" lon="-1.7485753719582855"><ele>13.0</ele><time>2026-03-26T09:50:01.999Z</time></trkpt><trkpt lat="47.70239217456284" lon="-1.74840811227857"><ele>13.0</ele><time>2026-03-26T09:50:02.999Z</time></trkpt><trkpt lat="47.70228786794522" lon="-1.7482399018915629"><ele>13.0</ele><time>2026-03-26T09:50:03.999Z</time></trkpt><trkpt lat="47.70219476122872" lon="-1.7480556958780213"><ele>13.0</ele><time>2026-03-26T09:50:04.999Z</time></trkpt><trkpt lat="47.70207322149824" lon="-1.7478935468244445"><ele>13.666666666666666</ele><time>2026-03-26T09:50:05.999Z</time></trkpt><trkpt lat="47.70197079981687" lon="-1.7476958835267853"><ele>14.333333333333332</ele><time>2026-03-26T09:50:06.999Z</time></trkpt><trkpt lat="47.701861021538626" lon="-1.747519860177398"><ele>15.0</ele><time>2026-03-26T09:50:07.999Z</time></trkpt><trkpt lat="47.70174526352199" lon="-1.7473389712356342"><ele>15.0</ele><time>2026-03-26T09:50:08.999Z</time></trkpt><trkpt lat="47.701631571918654" lon="-1.7471565501531723"><ele>15.0</ele><time>2026-03-26T09:50:09.999Z</time></trkpt><trkpt lat="47.70151826352167" lon="-1.7469809874971969"><ele>15.0</ele><time>2026-03-26T09:50:10.999Z</time></trkpt><trkpt lat="47.701405962866055" lon="-1.7468021202949302"><ele>15.5</ele><time>2026-03-26T09:50:11.999Z</time></trkpt><trkpt lat="47.701306946676574" lon="-1.746617533171941"><ele>16.0</ele><time>2026-03-26T09:50:12.999Z</time></trkpt><trkpt lat="47.70122890184858" lon="-1.7464623457734814"><ele>16.5</ele><time>2026-03-26T09:50:13.999Z</time></trkpt><trkpt lat="47.70117081172996" lon="-1.7463150568802752"><ele>17.0</ele><time>2026-03-26T09:50:14.999Z</time></trkpt><trkpt lat="47.701119907762795" lon="-1.7461613427226659"><ele>17.5</ele><time>2026-03-26T09:50:15.999Z</time></trkpt><trkpt lat="47.70108874187767" lon="-1.7460083184903992"><ele>18.0</ele><time>2026-03-26T09:50:16.999Z</time></trkpt><trkpt lat="47.70105406549736" lon="-1.7458483886105538"><ele>18.5</ele><time>2026-03-26T09:50:17.999Z</time></trkpt><trkpt lat="47.7010190179732" lon="-1.7456816750657371"><ele>19.0</ele><time>2026-03-26T09:50:18.998Z</time></trkpt><trkpt lat="47.700986637862925" lon="-1.745497150505796"><ele>19.25</ele><time>2026-03-26T09:50:19.998Z</time></trkpt><trkpt lat="47.70094748424014" lon="-1.7452948411724993"><ele>19.5</ele><time>2026-03-26T09:50:20.998Z</time></trkpt><trkpt lat="47.70091709846986" lon="-1.7450871813055948"><ele>19.75</ele><time>2026-03-26T09:50:21.998Z</time></trkpt><trkpt lat="47.700865093526026" lon="-1.7448892951831148"><ele>20.0</ele><time>2026-03-26T09:50:22.998Z</time></trkpt><trkpt lat="47.70083711193761" lon="-1.7447190601558211"><ele>20.25</ele><time>2026-03-26T09:50:23.998Z</time></trkpt><trkpt lat="47.70080550130403" lon="-1.7445482764174276"><ele>20.5</ele><time>2026-03-26T09:50:24.998Z</time></trkpt><trkpt lat="47.70077311042577" lon="-1.7443640152872977"><ele>20.75</ele><time>2026-03-26T09:50:25.998Z</time></trkpt><trkpt lat="47.70073765838018" lon="-1.7441677785495715"><ele>21.0</ele><time>2026-03-26T09:50:26.998Z</time></trkpt><trkpt lat="47.70071212222125" lon="-1.7439651018829383"><ele>21.0</ele><time>2026-03-26T09:50:27.998Z</time></trkpt><trkpt lat="47.70068225038722" lon="-1.743754629372061"><ele>21.0</ele><time>2026-03-26T09:50:28.998Z</time></trkpt><trkpt lat="47.7006410477769" lon="-1.7435480160029413"><ele>21.0</ele><time>2026-03-26T09:50:29.998Z</time></trkpt><trkpt lat="47.70060753493911" lon="-1.7433465876473981"><ele>21.0</ele><time>2026-03-26T09:50:30.998Z</time></trkpt><trkpt lat="47.700572102223155" lon="-1.743151578862987"><ele>21.0</ele><time>2026-03-26T09:50:31.998Z</time></trkpt><trkpt lat="47.700544711208785" lon="-1.742994452304713"><ele>21.0</ele><time>2026-03-26T09:50:32.998Z</time></trkpt><trkpt lat="47.700517995871564" lon="-1.742843982737976"><ele>21.0</ele><time>2026-03-26T09:50:33.998Z</time></trkpt><trkpt lat="47.70047876005451" lon="-1.7427060061996458"><ele>21.0</ele><time>2026-03-26T09:50:34.998Z</time></trkpt><trkpt lat="47.70045589735542" lon="-1.742558929239764"><ele>21.0</ele><time>2026-03-26T09:50:35.998Z</time></trkpt><trkpt lat="47.700431084548114" lon="-1.7424181053326697"><ele>21.200000000000003</ele><time>2026-03-26T09:50:36.998Z</time></trkpt><trkpt lat="47.70040828366301" lon="-1.7422960687994797"><ele>21.400000000000002</ele><time>2026-03-26T09:50:37.998Z</time></trkpt><trkpt lat="47.700393240109975" lon="-1.7421832482844244"><ele>21.6</ele><time>2026-03-26T09:50:38.998Z</time></trkpt><trkpt lat="47.700373504505414" lon="-1.7420460993801063"><ele>21.8</ele><time>2026-03-26T09:50:39.998Z</time></trkpt><trkpt lat="47.700343398117084" lon="-1.741883192139286"><ele>22.0</ele><time>2026-03-26T09:50:40.998Z</time></trkpt><trkpt lat="47.70031232402547" lon="-1.7417024190231716"><ele>22.400000000000002</ele><time>2026-03-26T09:50:41.998Z</time></trkpt><trkpt lat="47.70027742938062" lon="-1.7415294523601113"><ele>22.8</ele><time>2026-03-26T09:50:42.998Z</time></trkpt><trkpt lat="47.70024151902067" lon="-1.7413789350149769"><ele>23.2</ele><time>2026-03-26T09:50:43.998Z</time></trkpt><trkpt lat="47.700224881885674" lon="-1.7412486968792784"><ele>23.6</ele><time>2026-03-26T09:50:44.998Z</time></trkpt><trkpt lat="47.700209303138905" lon="-1.7411396964297516"><ele>24.0</ele><time>2026-03-26T09:50:45.998Z</time></trkpt><trkpt lat="47.70020290157107" lon="-1.7410389749412765"><ele>24.0</ele><time>2026-03-26T09:50:46.998Z</time></trkpt><trkpt lat="47.70017572619502" lon="-1.7409209581683864"><ele>24.0</ele><time>2026-03-26T09:50:51Z</time></trkpt><trkpt lat="47.70029102587407" lon="-1.7410318233076294"><ele>24.0</ele><time>2026-03-26T09:50:57Z</time></trkpt><trkpt lat="47.70023594335144" lon="-1.7412215617831526"><ele>24.0</ele><time>2026-03-26T09:50:58Z</time></trkpt><trkpt lat="47.70025812186282" lon="-1.7413299455846825"><ele>24.0</ele><time>2026-03-26T09:50:59Z</time></trkpt><trkpt lat="47.700278914810546" lon="-1.7414608861152112"><ele>24.0</ele><time>2026-03-26T09:51:00Z</time></trkpt><trkpt lat="47.70030462330303" lon="-1.7416043501318341"><ele>24.0</ele><time>2026-03-26T09:51:01Z</time></trkpt><trkpt lat="47.70033103381905" lon="-1.7417595041214575"><ele>24.0</ele><time>2026-03-26T09:51:02Z</time></trkpt><trkpt lat="47.70035723555099" lon="-1.7419074345330203"><ele>24.0</ele><time>2026-03-26T09:51:03Z</time></trkpt><trkpt lat="47.70037905305292" lon="-1.7420430818828052"><ele>24.0</ele><time>2026-03-26T09:51:04Z</time></trkpt><trkpt lat="47.70040378362023" lon="-1.7421801982221337"><ele>23.5</ele><time>2026-03-26T09:51:05Z</time></trkpt><trkpt lat="47.70043318807259" lon="-1.7423411930612707"><ele>23.0</ele><time>2026-03-26T09:51:06Z</time></trkpt><trkpt lat="47.700463304709466" lon="-1.7425198827672277"><ele>22.5</ele><time>2026-03-26T09:51:07Z</time></trkpt><trkpt lat="47.70049680028806" lon="-1.742700943454199"><ele>22.0</ele><time>2026-03-26T09:51:08Z</time></trkpt><trkpt lat="47.7005310917912" lon="-1.742895693190187"><ele>22.0</ele><time>2026-03-26T09:51:09Z</time></trkpt><trkpt lat="47.70056381033227" lon="-1.7431032226719332"><ele>22.0</ele><time>2026-03-26T09:51:10Z</time></trkpt><trkpt lat="47.700623278242965" lon="-1.743286909800369"><ele>22.0</ele><time>2026-03-26T09:51:11Z</time></trkpt><trkpt lat="47.70065754417633" lon="-1.743467636461104"><ele>22.0</ele><time>2026-03-26T09:51:12Z</time></trkpt><trkpt lat="47.700689710254835" lon="-1.7436433063591168"><ele>22.0</ele><time>2026-03-26T09:51:13Z</time></trkpt><trkpt lat="47.70070999548825" lon="-1.7438372912963434"><ele>22.0</ele><time>2026-03-26T09:51:14Z</time></trkpt><trkpt lat="47.700754936241346" lon="-1.74403507148249"><ele>22.0</ele><time>2026-03-26T09:51:15Z</time></trkpt><trkpt lat="47.70078941305852" lon="-1.7442470790055133"><ele>22.0</ele><time>2026-03-26T09:51:16Z</time></trkpt><trkpt lat="47.700820534416756" lon="-1.7444488331169499"><ele>21.75</ele><time>2026-03-26T09:51:17Z</time></trkpt><trkpt lat="47.70085726048839" lon="-1.7446599080488736"><ele>21.5</ele><time>2026-03-26T09:51:18Z</time></trkpt><trkpt lat="47.700891864889776" lon="-1.7448697644488704"><ele>21.25</ele><time>2026-03-26T09:51:19Z</time></trkpt><trkpt lat="47.700927555177906" lon="-1.7450753458122197"><ele>21.0</ele><time>2026-03-26T09:51:20Z</time></trkpt><trkpt lat="47.70096421507177" lon="-1.7452969074584883"><ele>20.75</ele><time>2026-03-26T09:51:21Z</time></trkpt><trkpt lat="47.70099802414509" lon="-1.7455000671707024"><ele>20.5</ele><time>2026-03-26T09:51:22Z</time></trkpt><trkpt lat="47.70102966268201" lon="-1.7456875968450731"><ele>20.25</ele><time>2026-03-26T09:51:23Z</time></trkpt><trkpt lat="47.70106727212187" lon="-1.745869763627851"><ele>20.0</ele><time>2026-03-26T09:51:24Z</time></trkpt><trkpt lat="47.701125913660626" lon="-1.746037691369178"><ele>19.0</ele><time>2026-03-26T09:51:25Z</time></trkpt><trkpt lat="47.70118302926084" lon="-1.7462363336851814"><ele>18.0</ele><time>2026-03-26T09:51:26Z</time></trkpt><trkpt lat="47.701255380570444" lon="-1.7464386972013233"><ele>17.0</ele><time>2026-03-26T09:51:27Z</time></trkpt><trkpt lat="47.701343583900766" lon="-1.7466347619686922"><ele>17.0</ele><time>2026-03-26T09:51:28Z</time></trkpt><trkpt lat="47.70146079926901" lon="-1.7468435757524692"><ele>17.0</ele><time>2026-03-26T09:51:29Z</time></trkpt><trkpt lat="47.70158259007485" lon="-1.747041332295126"><ele>17.0</ele><time>2026-03-26T09:51:30Z</time></trkpt><trkpt lat="47.70169015670211" lon="-1.7472460336722966"><ele>16.666666666666668</ele><time>2026-03-26T09:51:31Z</time></trkpt><trkpt lat="47.7018220499948" lon="-1.7474403121348001"><ele>16.333333333333332</ele><time>2026-03-26T09:51:32Z</time></trkpt><trkpt lat="47.701949256418786" lon="-1.7476400952472013"><ele>16.0</ele><time>2026-03-26T09:51:33Z</time></trkpt><trkpt lat="47.70208057252461" lon="-1.7478492807057537"><ele>15.0</ele><time>2026-03-26T09:51:33.999Z</time></trkpt><trkpt lat="47.70221038091006" lon="-1.7480652080331391"><ele>14.0</ele><time>2026-03-26T09:51:34.999Z</time></trkpt><trkpt lat="47.70234064406809" lon="-1.7482856047724387"><ele>13.0</ele><time>2026-03-26T09:51:35.999Z</time></trkpt><trkpt lat="47.702485448805504" lon="-1.748485079037302"><ele>13.0</ele><time>2026-03-26T09:51:36.999Z</time></trkpt><trkpt lat="47.70261452733635" lon="-1.7487134912748166"><ele>13.0</ele><time>2026-03-26T09:51:37.999Z</time></trkpt><trkpt lat="47.7027278956597" lon="-1.7489456379417303"><ele>13.0</ele><time>2026-03-26T09:51:38.999Z</time></trkpt><trkpt lat="47.702824319014276" lon="-1.7492104517984524"><ele>13.333333333333332</ele><time>2026-03-26T09:51:39.999Z</time></trkpt><trkpt lat="47.702911509916554" lon="-1.749466156376576"><ele>13.666666666666668</ele><time>2026-03-26T09:51:40.999Z</time></trkpt><trkpt lat="47.703004243831764" lon="-1.7497162856401436"><ele>14.0</ele><time>2026-03-26T09:51:41.999Z</time></trkpt><trkpt lat="47.70307428997828" lon="-1.749981072256322"><ele>13.666666666666668</ele><time>2026-03-26T09:51:42.999Z</time></trkpt><trkpt lat="47.70311805357956" lon="-1.7502652247016222"><ele>13.333333333333332</ele><time>2026-03-26T09:51:43.999Z</time></trkpt><trkpt lat="47.70317681158214" lon="-1.7505326365894867"><ele>13.0</ele><time>2026-03-26T09:51:44.999Z</time></trkpt><trkpt lat="47.703197429277196" lon="-1.750812576296388"><ele>13.0</ele><time>2026-03-26T09:51:45.999Z</time></trkpt><trkpt lat="47.70324437882594" lon="-1.7510843656428228"><ele>13.0</ele><time>2026-03-26T09:51:46.999Z</time></trkpt><trkpt lat="47.70327515754395" lon="-1.7513568034573075"><ele>13.0</ele><time>2026-03-26T09:51:47.999Z</time></trkpt><trkpt lat="47.70330593756733" lon="-1.7516292526728112"><ele>12.666666666666666</ele><time>2026-03-26T09:51:48.999Z</time></trkpt><trkpt lat="47.70333609233386" lon="-1.7518961665029797"><ele>12.333333333333332</ele><time>2026-03-26T09:51:49.999Z</time></trkpt><trkpt lat="47.70336604514113" lon="-1.7521380329584977"><ele>12.0</ele><time>2026-03-26T09:51:50.999Z</time></trkpt><trkpt lat="47.7033937620727" lon="-1.7523456216999358"><ele>12.0</ele><time>2026-03-26T09:51:51.999Z</time></trkpt><trkpt lat="47.70343002737974" lon="-1.752545282516269"><ele>12.0</ele><time>2026-03-26T09:51:52.999Z</time></trkpt><trkpt lat="47.703459141757946" lon="-1.7527651398664794"><ele>12.0</ele><time>2026-03-26T09:51:53.999Z</time></trkpt><trkpt lat="47.703531921914376" lon="-1.7529670024720383"><ele>12.0</ele><time>2026-03-26T09:51:54.999Z</time></trkpt><trkpt lat="47.703633783269375" lon="-1.7531774178856312"><ele>11.0</ele><time>2026-03-26T09:51:55.999Z</time></trkpt><trkpt lat="47.70373321002889" lon="-1.7533828493942856"><ele>10.0</ele><time>2026-03-26T09:51:56.999Z</time></trkpt><trkpt lat="47.70382429890317" lon="-1.7535792961203984"><ele>9.0</ele><time>2026-03-26T09:51:57.999Z</time></trkpt><trkpt lat="47.70390614671412" lon="-1.75371637532304"><ele>8.6</ele><time>2026-03-26T09:51:58.999Z</time></trkpt><trkpt lat="47.703969999216774" lon="-1.7538577872291725"><ele>8.2</ele><time>2026-03-26T09:51:59.999Z</time></trkpt><trkpt lat="47.7040126774989" lon="-1.7539942713946908"><ele>7.799999999999999</ele><time>2026-03-26T09:52:00.999Z</time></trkpt><trkpt lat="47.704062203219706" lon="-1.7541173493216313"><ele>7.3999999999999995</ele><time>2026-03-26T09:52:01.999Z</time></trkpt><trkpt lat="47.70411096212606" lon="-1.7542325424438772"><ele>7.0</ele><time>2026-03-26T09:52:02.999Z</time></trkpt><trkpt lat="47.704148649980844" lon="-1.7543532443689849"><ele>7.25</ele><time>2026-03-26T09:52:03.999Z</time></trkpt><trkpt lat="47.70419005727052" lon="-1.7544938756382635"><ele>7.5</ele><time>2026-03-26T09:52:04.999Z</time></trkpt><trkpt lat="47.70424022794189" lon="-1.7546515542375707"><ele>7.75</ele><time>2026-03-26T09:52:05.999Z</time></trkpt><trkpt lat="47.704249451751764" lon="-1.7548393726149285"><ele>8.0</ele><time>2026-03-26T09:52:06.999Z</time></trkpt><trkpt lat="47.7042583661352" lon="-1.7550325249274283"><ele>7.5</ele><time>2026-03-26T09:52:07.999Z</time></trkpt><trkpt lat="47.704263978274255" lon="-1.7552500887864273"><ele>7.0</ele><time>2026-03-26T09:52:08.999Z</time></trkpt><trkpt lat="47.704261316374435" lon="-1.7554618788037"><ele>6.5</ele><time>2026-03-26T09:52:09.999Z</time></trkpt><trkpt lat="47.70424698202857" lon="-1.7556449273976003"><ele>6.0</ele><time>2026-03-26T09:52:10.999Z</time></trkpt><trkpt lat="47.704230229531895" lon="-1.7557979576382752"><ele>6.0</ele><time>2026-03-26T09:52:11.999Z</time></trkpt><trkpt lat="47.70419768210612" lon="-1.755916796060567"><ele>6.0</ele><time>2026-03-26T09:52:12.999Z</time></trkpt><trkpt lat="47.704138233028154" lon="-1.7560361447941566"><ele>6.0</ele><time>2026-03-26T09:52:13.999Z</time></trkpt><trkpt lat="47.70406786203384" lon="-1.7561532558796358"><ele>6.0</ele><time>2026-03-26T09:52:14.999Z</time></trkpt><trkpt lat="47.703934097115415" lon="-1.7562260899697912"><ele>6.0</ele><time>2026-03-26T09:52:15.999Z</time></trkpt><trkpt lat="47.70380384484751" lon="-1.7562997897781873"><ele>6.0</ele><time>2026-03-26T09:52:16.999Z</time></trkpt><trkpt lat="47.70366969961754" lon="-1.7563522869576649"><ele>6.0</ele><time>2026-03-26T09:52:17.999Z</time></trkpt><trkpt lat="47.70352798776055" lon="-1.7564046800506394"><ele>6.0</ele><time>2026-03-26T09:52:18.999Z</time></trkpt><trkpt lat="47.703378788856575" lon="-1.7564834425959357"><ele>6.0</ele><time>2026-03-26T09:52:19.999Z</time></trkpt><trkpt lat="47.703212424863494" lon="-1.756532553949168"><ele>6.333333333333334</ele><time>2026-03-26T09:52:20.999Z</time></trkpt><trkpt lat="47.70305388249075" lon="-1.7564992305844955"><ele>6.666666666666667</ele><time>2026-03-26T09:52:21.999Z</time></trkpt><trkpt lat="47.70288317558863" lon="-1.7564543705060243"><ele>7.0</ele><time>2026-03-26T09:52:22.999Z</time></trkpt><trkpt lat="47.7026989367026" lon="-1.7564091448206254"><ele>7.333333333333334</ele><time>2026-03-26T09:52:23.999Z</time></trkpt><trkpt lat="47.70249874107787" lon="-1.7563609329830094"><ele>7.666666666666666</ele><time>2026-03-26T09:52:24.999Z</time></trkpt><trkpt lat="47.7023141532454" lon="-1.7563148115554053"><ele>8.0</ele><time>2026-03-26T09:52:25.999Z</time></trkpt><trkpt lat="47.7021571034328" lon="-1.7562829003812614"><ele>8.0</ele><time>2026-03-26T09:52:26.999Z</time></trkpt><trkpt lat="47.7020207018412" lon="-1.7562645478076726"><ele>8.0</ele><time>2026-03-26T09:52:27.999Z</time></trkpt><trkpt lat="47.70188940178626" lon="-1.7562122102557511"><ele>8.0</ele><time>2026-03-26T09:52:28.999Z</time></trkpt><trkpt lat="47.70178057515562" lon="-1.7562006355126663"><ele>8.0</ele><time>2026-03-26T09:52:29.999Z</time></trkpt><trkpt lat="47.70167254052858" lon="-1.7561768371836386"><ele>8.8</ele><time>2026-03-26T09:52:30.999Z</time></trkpt><trkpt lat="47.70158669807267" lon="-1.7561866255295533"><ele>9.600000000000001</ele><time>2026-03-26T09:52:31.999Z</time></trkpt><trkpt lat="47.7015126547406" lon="-1.7561899211466077"><ele>10.399999999999999</ele><time>2026-03-26T09:52:32.999Z</time></trkpt><trkpt lat="47.70144259813689" lon="-1.7561807957339994"><ele>11.2</ele><time>2026-03-26T09:52:33.999Z</time></trkpt><trkpt lat="47.7013473605351" lon="-1.7562458086171708"><ele>12.0</ele><time>2026-03-26T09:52:35.998Z</time></trkpt><trkpt lat="47.701407864643734" lon="-1.7565003435883133"><ele>12.0</ele><time>2026-03-26T09:52:37.998Z</time></trkpt><trkpt lat="47.70141550952431" lon="-1.7566209238008756"><ele>12.0</ele><time>2026-03-26T09:52:38.998Z</time></trkpt><trkpt lat="47.70142140879938" lon="-1.7567407117714122"><ele>12.0</ele><time>2026-03-26T09:52:39.998Z</time></trkpt><trkpt lat="47.70142476106354" lon="-1.756861222304344"><ele>12.0</ele><time>2026-03-26T09:52:40.998Z</time></trkpt><trkpt lat="47.701417652732225" lon="-1.7569960506173274"><ele>12.0</ele><time>2026-03-26T09:52:41.998Z</time></trkpt><trkpt lat="47.70138178806432" lon="-1.7571349617629077"><ele>12.0</ele><time>2026-03-26T09:52:42.998Z</time></trkpt><trkpt lat="47.7013817069012" lon="-1.7572812404768026"><ele>12.166666666666666</ele><time>2026-03-26T09:52:43.998Z</time></trkpt><trkpt lat="47.701366259953595" lon="-1.7574381714493834"><ele>12.333333333333332</ele><time>2026-03-26T09:52:44.998Z</time></trkpt><trkpt lat="47.70135392613397" lon="-1.7575634751117029"><ele>12.5</ele><time>2026-03-26T09:52:45.998Z</time></trkpt><trkpt lat="47.70134241725157" lon="-1.7576737163064828"><ele>12.666666666666666</ele><time>2026-03-26T09:52:46.998Z</time></trkpt><trkpt lat="47.70131594038114" lon="-1.7577711519985078"><ele>12.833333333333332</ele><time>2026-03-26T09:52:47.998Z</time></trkpt><trkpt lat="47.70131401845538" lon="-1.7578763935215238"><ele>13.0</ele><time>2026-03-26T09:52:48.998Z</time></trkpt><trkpt lat="47.70129946338686" lon="-1.7579763793498544"><ele>12.999999999999998</ele><time>2026-03-26T09:52:49.998Z</time></trkpt><trkpt lat="47.70128855920728" lon="-1.7580689712259103"><ele>13.0</ele><time>2026-03-26T09:52:50.998Z</time></trkpt><trkpt lat="47.701271594587965" lon="-1.7581616775528217"><ele>13.0</ele><time>2026-03-26T09:52:51.998Z</time></trkpt><trkpt lat="47.70123336026359" lon="-1.7583592783482693"><ele>13.0</ele><time>2026-03-26T09:52:53.998Z</time></trkpt><trkpt lat="47.7012085267878" lon="-1.7584723315652624"><ele>12.999999999999998</ele><time>2026-03-26T09:52:55Z</time></trkpt><trkpt lat="47.701177644373814" lon="-1.758610083492833"><ele>13.0</ele><time>2026-03-26T09:52:57Z</time></trkpt><trkpt lat="47.70115892609522" lon="-1.7587125608813685"><ele>13.0</ele><time>2026-03-26T09:52:59Z</time></trkpt><trkpt lat="47.70111147007298" lon="-1.7588700251874345"><ele>13.0</ele><time>2026-03-26T09:53:01Z</time></trkpt><trkpt lat="47.70106660264418" lon="-1.7589834111299483"><ele>13.0</ele><time>2026-03-26T09:53:02Z</time></trkpt><trkpt lat="47.70103305542776" lon="-1.75910954963875"><ele>13.0</ele><time>2026-03-26T09:53:03Z</time></trkpt><trkpt lat="47.70100380342811" lon="-1.7592387956287263"><ele>13.0</ele><time>2026-03-26T09:53:04Z</time></trkpt><trkpt lat="47.70097093569871" lon="-1.7593849839730473"><ele>13.0</ele><time>2026-03-26T09:53:05Z</time></trkpt><trkpt lat="47.70094096882995" lon="-1.7595098043565776"><ele>13.0</ele><time>2026-03-26T09:53:06Z</time></trkpt><trkpt lat="47.70090995828571" lon="-1.7596360635764434"><ele>13.0</ele><time>2026-03-26T09:53:07Z</time></trkpt><trkpt lat="47.70089753192475" lon="-1.759776194591772"><ele>13.0</ele><time>2026-03-26T09:53:08Z</time></trkpt><trkpt lat="47.70085373246301" lon="-1.7599098465731962"><ele>13.0</ele><time>2026-03-26T09:53:09Z</time></trkpt><trkpt lat="47.70080300090121" lon="-1.7600363705127955"><ele>12.999999999999998</ele><time>2026-03-26T09:53:10Z</time></trkpt><trkpt lat="47.70073496454783" lon="-1.760142115365415"><ele>13.0</ele><time>2026-03-26T09:53:11Z</time></trkpt><trkpt lat="47.70067818973987" lon="-1.7602412125541118"><ele>13.0</ele><time>2026-03-26T09:53:12Z</time></trkpt><trkpt lat="47.70062581670387" lon="-1.760333113437756"><ele>13.0</ele><time>2026-03-26T09:53:13Z</time></trkpt><trkpt lat="47.700585906412336" lon="-1.76040687007299"><ele>12.999999999999998</ele><time>2026-03-26T09:53:14Z</time></trkpt><trkpt lat="47.70054320158598" lon="-1.7604776191368423"><ele>13.0</ele><time>2026-03-26T09:53:15Z</time></trkpt><trkpt lat="47.70049814303098" lon="-1.7605501331337827"><ele>12.600000000000001</ele><time>2026-03-26T09:53:16Z</time></trkpt><trkpt lat="47.700442191764004" lon="-1.7606884450914704"><ele>12.200000000000001</ele><time>2026-03-26T09:53:18Z</time></trkpt><trkpt lat="47.700432778307594" lon="-1.760848367669722"><ele>11.8</ele><time>2026-03-26T09:53:20Z</time></trkpt><trkpt lat="47.70043683184928" lon="-1.7609588748915281"><ele>11.4</ele><time>2026-03-26T09:53:21Z</time></trkpt><trkpt lat="47.70048613317527" lon="-1.7610716293528639"><ele>11.0</ele><time>2026-03-26T09:53:22Z</time></trkpt><trkpt lat="47.70053433689357" lon="-1.7611959906552674"><ele>10.333333333333332</ele><time>2026-03-26T09:53:23Z</time></trkpt><trkpt lat="47.70059241049663" lon="-1.7613332203492256"><ele>9.666666666666666</ele><time>2026-03-26T09:53:24Z</time></trkpt><trkpt lat="47.70063084587145" lon="-1.7614584909038298"><ele>9.0</ele><time>2026-03-26T09:53:25Z</time></trkpt><trkpt lat="47.70065004295235" lon="-1.7615790082057237"><ele>8.333333333333334</ele><time>2026-03-26T09:53:26Z</time></trkpt><trkpt lat="47.70063477078199" lon="-1.7617045173744033"><ele>7.666666666666667</ele><time>2026-03-26T09:53:27Z</time></trkpt><trkpt lat="47.700606761029086" lon="-1.7618086097780772"><ele>7.0</ele><time>2026-03-26T09:53:28Z</time></trkpt><trkpt lat="47.700557901325816" lon="-1.7619015904931288"><ele>6.8</ele><time>2026-03-26T09:53:29Z</time></trkpt><trkpt lat="47.70049112853594" lon="-1.7619813616717832"><ele>6.6</ele><time>2026-03-26T09:53:30Z</time></trkpt><trkpt lat="47.7004096363791" lon="-1.7620309451847422"><ele>6.3999999999999995</ele><time>2026-03-26T09:53:31Z</time></trkpt><trkpt lat="47.7003178249367" lon="-1.7620683144881713"><ele>6.199999999999999</ele><time>2026-03-26T09:53:32Z</time></trkpt><trkpt lat="47.70021629363065" lon="-1.7621318964317099"><ele>6.0</ele><time>2026-03-26T09:53:33Z</time></trkpt><trkpt lat="47.70011136538878" lon="-1.7621796751602365"><ele>7.25</ele><time>2026-03-26T09:53:34Z</time></trkpt><trkpt lat="47.700005724103846" lon="-1.7622281430871147"><ele>8.5</ele><time>2026-03-26T09:53:35Z</time></trkpt><trkpt lat="47.69989097959792" lon="-1.762288469378079"><ele>9.75</ele><time>2026-03-26T09:53:36Z</time></trkpt><trkpt lat="47.69977233583572" lon="-1.76235728623902"><ele>11.0</ele><time>2026-03-26T09:53:37Z</time></trkpt><trkpt lat="47.69964348391402" lon="-1.7624309345213873"><ele>11.0</ele><time>2026-03-26T09:53:38Z</time></trkpt><trkpt lat="47.699503168034994" lon="-1.7624984544249074"><ele>11.0</ele><time>2026-03-26T09:53:38.999Z</time></trkpt><trkpt lat="47.69936287349748" lon="-1.7625004890621656"><ele>11.0</ele><time>2026-03-26T09:53:39.999Z</time></trkpt><trkpt lat="47.69920997711527" lon="-1.7624722696331978"><ele>11.0</ele><time>2026-03-26T09:53:40.999Z</time></trkpt><trkpt lat="47.69904172918319" lon="-1.762455098540104"><ele>11.666666666666666</ele><time>2026-03-26T09:53:41.999Z</time></trkpt><trkpt lat="47.69887786279829" lon="-1.7624725112307378"><ele>12.333333333333332</ele><time>2026-03-26T09:53:42.999Z</time></trkpt><trkpt lat="47.698701284279025" lon="-1.7624468006312726"><ele>13.0</ele><time>2026-03-26T09:53:43.999Z</time></trkpt><trkpt lat="47.69853314692138" lon="-1.7624508697166812"><ele>13.666666666666666</ele><time>2026-03-26T09:53:44.999Z</time></trkpt><trkpt lat="47.698374384165334" lon="-1.7624489712357525"><ele>14.333333333333332</ele><time>2026-03-26T09:53:45.999Z</time></trkpt><trkpt lat="47.698210602760085" lon="-1.7624377146958066"><ele>15.0</ele><time>2026-03-26T09:53:46.999Z</time></trkpt><trkpt lat="47.69803914872483" lon="-1.7624192449713982"><ele>15.0</ele><time>2026-03-26T09:53:47.999Z</time></trkpt><trkpt lat="47.697867964719826" lon="-1.7623849156991138"><ele>15.0</ele><time>2026-03-26T09:53:48.999Z</time></trkpt><trkpt lat="47.69767765243714" lon="-1.762344575217595"><ele>15.0</ele><time>2026-03-26T09:53:49.999Z</time></trkpt><trkpt lat="47.69748450926972" lon="-1.7623112360095716"><ele>13.666666666666666</ele><time>2026-03-26T09:53:50.999Z</time></trkpt><trkpt lat="47.69728968322837" lon="-1.7622820310102103"><ele>12.333333333333332</ele><time>2026-03-26T09:53:51.999Z</time></trkpt><trkpt lat="47.697088706160876" lon="-1.762249646048276"><ele>11.0</ele><time>2026-03-26T09:53:52.999Z</time></trkpt><trkpt lat="47.69689852493184" lon="-1.7622012892167804"><ele>10.0</ele><time>2026-03-26T09:53:53.999Z</time></trkpt><trkpt lat="47.69673553545647" lon="-1.762160411387528"><ele>9.0</ele><time>2026-03-26T09:53:54.999Z</time></trkpt><trkpt lat="47.69658047201108" lon="-1.762154223587126"><ele>8.0</ele><time>2026-03-26T09:53:55.999Z</time></trkpt><trkpt lat="47.69643775836113" lon="-1.7621271986440623"><ele>8.0</ele><time>2026-03-26T09:53:56.999Z</time></trkpt><trkpt lat="47.69631655487636" lon="-1.7621043106030445"><ele>8.0</ele><time>2026-03-26T09:53:57.999Z</time></trkpt><trkpt lat="47.69621807002751" lon="-1.7620857127454623"><ele>8.0</ele><time>2026-03-26T09:53:58.999Z</time></trkpt><trkpt lat="47.69614190601821" lon="-1.7620713299542519"><ele>8.0</ele><time>2026-03-26T09:53:59.999Z</time></trkpt><trkpt lat="47.696017399566436" lon="-1.7620394796805137"><ele>8.0</ele><time>2026-03-26T09:54:01.999Z</time></trkpt><trkpt lat="47.69594488683608" lon="-1.7620589715548534"><ele>7.800000000000001</ele><time>2026-03-26T09:54:03.999Z</time></trkpt><trkpt lat="47.69595695551436" lon="-1.7622820335758518"><ele>7.6000000000000005</ele><time>2026-03-26T09:54:04.999Z</time></trkpt><trkpt lat="47.69594870950106" lon="-1.7623987717774752"><ele>7.3999999999999995</ele><time>2026-03-26T09:54:05.999Z</time></trkpt><trkpt lat="47.69594053893022" lon="-1.7625192170130677"><ele>7.199999999999999</ele><time>2026-03-26T09:54:06.999Z</time></trkpt><trkpt lat="47.695928998277246" lon="-1.762702143803927"><ele>7.0</ele><time>2026-03-26T09:54:07.999Z</time></trkpt><trkpt lat="47.69592038265666" lon="-1.7628677013815757"><ele>7.0</ele><time>2026-03-26T09:54:08.999Z</time></trkpt><trkpt lat="47.69590632012474" lon="-1.7630402813511052"><ele>7.0</ele><time>2026-03-26T09:54:09.999Z</time></trkpt><trkpt lat="47.69589591846547" lon="-1.7632360608083524"><ele>7.0</ele><time>2026-03-26T09:54:10.999Z</time></trkpt><trkpt lat="47.695893180171694" lon="-1.7634063306447452"><ele>7.0</ele><time>2026-03-26T09:54:11.999Z</time></trkpt><trkpt lat="47.695888518413796" lon="-1.76359779001842"><ele>7.0</ele><time>2026-03-26T09:54:12.999Z</time></trkpt><trkpt lat="47.69590069823005" lon="-1.7638045346866706"><ele>7.0</ele><time>2026-03-26T09:54:13.999Z</time></trkpt><trkpt lat="47.695899866245256" lon="-1.7640132397845742"><ele>7.0</ele><time>2026-03-26T09:54:14.999Z</time></trkpt><trkpt lat="47.69589875074897" lon="-1.7642353223765375"><ele>7.0</ele><time>2026-03-26T09:54:15.999Z</time></trkpt><trkpt lat="47.69588235783892" lon="-1.76445996985848"><ele>7.333333333333334</ele><time>2026-03-26T09:54:16.999Z</time></trkpt><trkpt lat="47.695893213938284" lon="-1.764694443547053"><ele>7.666666666666666</ele><time>2026-03-26T09:54:17.999Z</time></trkpt><trkpt lat="47.69588100761214" lon="-1.7649511520679795"><ele>8.0</ele><time>2026-03-26T09:54:18.999Z</time></trkpt><trkpt lat="47.69587235486421" lon="-1.765190765696531"><ele>7.333333333333333</ele><time>2026-03-26T09:54:19.999Z</time></trkpt><trkpt lat="47.695870616599436" lon="-1.7654131696547866"><ele>6.666666666666666</ele><time>2026-03-26T09:54:20.999Z</time></trkpt><trkpt lat="47.695867957190366" lon="-1.7656372102085203"><ele>6.0</ele><time>2026-03-26T09:54:21.999Z</time></trkpt><trkpt lat="47.69586568197878" lon="-1.7658667933079772"><ele>6.0</ele><time>2026-03-26T09:54:22.999Z</time></trkpt><trkpt lat="47.6958596968395" lon="-1.7661086731879894"><ele>6.0</ele><time>2026-03-26T09:54:23.999Z</time></trkpt><trkpt lat="47.69586124546217" lon="-1.7663470397905583"><ele>6.0</ele><time>2026-03-26T09:54:24.999Z</time></trkpt><trkpt lat="47.69585259442241" lon="-1.7665956050888338"><ele>6.0</ele><time>2026-03-26T09:54:25.999Z</time></trkpt><trkpt lat="47.695842420547976" lon="-1.7668469472455455"><ele>6.0</ele><time>2026-03-26T09:54:26.999Z</time></trkpt><trkpt lat="47.695852357379714" lon="-1.767105658426964"><ele>6.0</ele><time>2026-03-26T09:54:27.999Z</time></trkpt><trkpt lat="47.695833172150714" lon="-1.7673710171349812"><ele>5.666666666666667</ele><time>2026-03-26T09:54:28.999Z</time></trkpt><trkpt lat="47.695829258378964" lon="-1.767631328572528"><ele>5.333333333333334</ele><time>2026-03-26T09:54:29.999Z</time></trkpt><trkpt lat="47.69583013496668" lon="-1.7678882049435494"><ele>5.0</ele><time>2026-03-26T09:54:30.999Z</time></trkpt><trkpt lat="47.695822168357985" lon="-1.7681729894841627"><ele>5.0</ele><time>2026-03-26T09:54:31.999Z</time></trkpt><trkpt lat="47.695821172455716" lon="-1.768446807980229"><ele>5.0</ele><time>2026-03-26T09:54:32.999Z</time></trkpt><trkpt lat="47.69582246768691" lon="-1.7687017518673454"><ele>5.0</ele><time>2026-03-26T09:54:33.999Z</time></trkpt><trkpt lat="47.695821743889915" lon="-1.76894256927183"><ele>5.0</ele><time>2026-03-26T09:54:34.999Z</time></trkpt><trkpt lat="47.69580773350794" lon="-1.7691680039998308"><ele>5.0</ele><time>2026-03-26T09:54:35.999Z</time></trkpt><trkpt lat="47.695780443854986" lon="-1.7693821919166741"><ele>5.0</ele><time>2026-03-26T09:54:36.999Z</time></trkpt><trkpt lat="47.69573969804532" lon="-1.769573038980649"><ele>5.0</ele><time>2026-03-26T09:54:37.999Z</time></trkpt><trkpt lat="47.69568850008214" lon="-1.7697832447079953"><ele>5.0</ele><time>2026-03-26T09:54:38.998Z</time></trkpt><trkpt lat="47.69562582701686" lon="-1.7700057095460893"><ele>5.0</ele><time>2026-03-26T09:54:39.998Z</time></trkpt><trkpt lat="47.69553580493315" lon="-1.7702187359523163"><ele>5.0</ele><time>2026-03-26T09:54:40.998Z</time></trkpt><trkpt lat="47.695449911023715" lon="-1.7704331205645378"><ele>5.0</ele><time>2026-03-26T09:54:41.998Z</time></trkpt><trkpt lat="47.69537240141175" lon="-1.770640165562157"><ele>5.0</ele><time>2026-03-26T09:54:42.998Z</time></trkpt><trkpt lat="47.69532008825017" lon="-1.7708228323219726"><ele>5.0</ele><time>2026-03-26T09:54:43.998Z</time></trkpt><trkpt lat="47.69525524917883" lon="-1.7709957471488647"><ele>5.0</ele><time>2026-03-26T09:54:44.998Z</time></trkpt><trkpt lat="47.6951934408546" lon="-1.7711605794826173"><ele>5.0</ele><time>2026-03-26T09:54:45.998Z</time></trkpt><trkpt lat="47.69513842655503" lon="-1.7713125479981269"><ele>5.0</ele><time>2026-03-26T09:54:46.998Z</time></trkpt><trkpt lat="47.695083236173126" lon="-1.7714723786248758"><ele>5.0</ele><time>2026-03-26T09:54:47.998Z</time></trkpt><trkpt lat="47.69502137354031" lon="-1.7716430043545706"><ele>5.0</ele><time>2026-03-26T09:54:48.998Z</time></trkpt><trkpt lat="47.69494006808779" lon="-1.7718133539051086"><ele>4.666666666666667</ele><time>2026-03-26T09:54:49.998Z</time></trkpt><trkpt lat="47.69488152087982" lon="-1.772020983983002"><ele>4.333333333333333</ele><time>2026-03-26T09:54:50.998Z</time></trkpt><trkpt lat="47.69480343189179" lon="-1.7722314414413314"><ele>4.0</ele><time>2026-03-26T09:54:51.998Z</time></trkpt><trkpt lat="47.69473128252988" lon="-1.7724246272838626"><ele>4.0</ele><time>2026-03-26T09:54:52.998Z</time></trkpt><trkpt lat="47.694632668728055" lon="-1.7726417388070739"><ele>4.0</ele><time>2026-03-26T09:54:53.998Z</time></trkpt><trkpt lat="47.69456824269301" lon="-1.7728862418604083"><ele>4.0</ele><time>2026-03-26T09:54:54.998Z</time></trkpt><trkpt lat="47.694485480432775" lon="-1.773110582558361"><ele>4.333333333333333</ele><time>2026-03-26T09:54:55.998Z</time></trkpt><trkpt lat="47.69438726236221" lon="-1.7733377256530654"><ele>4.666666666666667</ele><time>2026-03-26T09:54:56.998Z</time></trkpt><trkpt lat="47.69428413811694" lon="-1.773568919880779"><ele>5.0</ele><time>2026-03-26T09:54:57.998Z</time></trkpt><trkpt lat="47.694167610962964" lon="-1.7737947505552878"><ele>5.0</ele><time>2026-03-26T09:54:58.998Z</time></trkpt><trkpt lat="47.69405128742029" lon="-1.7740141946264303"><ele>5.0</ele><time>2026-03-26T09:55:00Z</time></trkpt><trkpt lat="47.693916958304285" lon="-1.774236980113707"><ele>5.0</ele><time>2026-03-26T09:55:01Z</time></trkpt><trkpt lat="47.69379357427135" lon="-1.7744580043128906"><ele>5.333333333333334</ele><time>2026-03-26T09:55:02Z</time></trkpt><trkpt lat="47.693668335142135" lon="-1.774676025150615"><ele>5.666666666666667</ele><time>2026-03-26T09:55:03Z</time></trkpt><trkpt lat="47.693546302154516" lon="-1.7748851075693564"><ele>6.0</ele><time>2026-03-26T09:55:04Z</time></trkpt><trkpt lat="47.69342417336083" lon="-1.7751051748340028"><ele>6.0</ele><time>2026-03-26T09:55:05Z</time></trkpt><trkpt lat="47.69330496867464" lon="-1.7753135785219567"><ele>6.0</ele><time>2026-03-26T09:55:06Z</time></trkpt><trkpt lat="47.69319998250449" lon="-1.7755160026158248"><ele>6.0</ele><time>2026-03-26T09:55:07Z</time></trkpt><trkpt lat="47.693106273360826" lon="-1.7756876608677616"><ele>6.0</ele><time>2026-03-26T09:55:08Z</time></trkpt><trkpt lat="47.69301083703322" lon="-1.7758395424592097"><ele>6.0</ele><time>2026-03-26T09:55:09Z</time></trkpt><trkpt lat="47.69293007519196" lon="-1.7759783509277796"><ele>6.0</ele><time>2026-03-26T09:55:10Z</time></trkpt><trkpt lat="47.6928507090869" lon="-1.7761187794161748"><ele>6.0</ele><time>2026-03-26T09:55:11Z</time></trkpt><trkpt lat="47.6927766810355" lon="-1.7762594395614462"><ele>6.25</ele><time>2026-03-26T09:55:12Z</time></trkpt><trkpt lat="47.69270977509894" lon="-1.776403242448299"><ele>6.5</ele><time>2026-03-26T09:55:13Z</time></trkpt><trkpt lat="47.6926276519622" lon="-1.776546204902556"><ele>6.75</ele><time>2026-03-26T09:55:14Z</time></trkpt><trkpt lat="47.69254704559783" lon="-1.7766871568799112"><ele>7.0</ele><time>2026-03-26T09:55:15Z</time></trkpt><trkpt lat="47.69245891241131" lon="-1.776828646632557"><ele>6.666666666666667</ele><time>2026-03-26T09:55:16Z</time></trkpt><trkpt lat="47.69238290460359" lon="-1.7769617878896629"><ele>6.333333333333334</ele><time>2026-03-26T09:55:17Z</time></trkpt><trkpt lat="47.692323849524236" lon="-1.7770724076279558"><ele>6.0</ele><time>2026-03-26T09:55:18Z</time></trkpt><trkpt lat="47.69226615368938" lon="-1.7771626592903356"><ele>5.666666666666667</ele><time>2026-03-26T09:55:19Z</time></trkpt><trkpt lat="47.69221589122139" lon="-1.777256571122097"><ele>5.333333333333334</ele><time>2026-03-26T09:55:20Z</time></trkpt><trkpt lat="47.6921747151848" lon="-1.7773337382743863"><ele>5.0</ele><time>2026-03-26T09:55:21Z</time></trkpt><trkpt lat="47.692120249563146" lon="-1.7774692219744739"><ele>5.0</ele><time>2026-03-26T09:55:23Z</time></trkpt><trkpt lat="47.69223380664391" lon="-1.7776923823877253"><ele>5.0</ele><time>2026-03-26T09:55:54.999Z</time></trkpt><trkpt lat="47.69229727194533" lon="-1.7777518381446082"><ele>5.0</ele><time>2026-03-26T09:55:55.999Z</time></trkpt><trkpt lat="47.692359487325646" lon="-1.7778156873454736"><ele>5.0</ele><time>2026-03-26T09:55:56.999Z</time></trkpt><trkpt lat="47.692434103861125" lon="-1.777916977210464"><ele>5.0</ele><time>2026-03-26T09:55:57.999Z</time></trkpt><trkpt lat="47.69250935922054" lon="-1.7780565724008681"><ele>5.0</ele><time>2026-03-26T09:55:58.999Z</time></trkpt><trkpt lat="47.692588931732224" lon="-1.7782255787024974"><ele>5.0</ele><time>2026-03-26T09:55:59.999Z</time></trkpt><trkpt lat="47.692648636795894" lon="-1.7783633675040182"><ele>5.0</ele><time>2026-03-26T09:56:00.999Z</time></trkpt><trkpt lat="47.692694848445065" lon="-1.7785227912882207"><ele>5.0</ele><time>2026-03-26T09:56:01.999Z</time></trkpt><trkpt lat="47.6927402478874" lon="-1.7787024319687084"><ele>5.0</ele><time>2026-03-26T09:56:02.999Z</time></trkpt><trkpt lat="47.692776037844546" lon="-1.7788921766733656"><ele>5.0</ele><time>2026-03-26T09:56:03.999Z</time></trkpt><trkpt lat="47.692803363474496" lon="-1.7790918155179154"><ele>5.0</ele><time>2026-03-26T09:56:04.999Z</time></trkpt><trkpt lat="47.69281593104422" lon="-1.7793037967379088"><ele>5.0</ele><time>2026-03-26T09:56:05.999Z</time></trkpt><trkpt lat="47.6928234344539" lon="-1.779531501726228"><ele>5.25</ele><time>2026-03-26T09:56:06.999Z</time></trkpt><trkpt lat="47.69284956762916" lon="-1.7797598718464487"><ele>5.5</ele><time>2026-03-26T09:56:07.999Z</time></trkpt><trkpt lat="47.692890280877606" lon="-1.7799227289119302"><ele>5.75</ele><time>2026-03-26T09:56:08.999Z</time></trkpt><trkpt lat="47.69291384354559" lon="-1.7800469031009638"><ele>6.0</ele><time>2026-03-26T09:56:09.999Z</time></trkpt><trkpt lat="47.693038902880055" lon="-1.7801540281536254"><ele>6.333333333333334</ele><time>2026-03-26T09:56:10.999Z</time></trkpt><trkpt lat="47.69315357433376" lon="-1.7802705065371747"><ele>6.666666666666667</ele><time>2026-03-26T09:56:11.999Z</time></trkpt><trkpt lat="47.693273948893506" lon="-1.7804305771146907"><ele>7.0</ele><time>2026-03-26T09:56:12.999Z</time></trkpt><trkpt lat="47.6933934642559" lon="-1.7806281279782885"><ele>7.0</ele><time>2026-03-26T09:56:13.999Z</time></trkpt><trkpt lat="47.69351004020414" lon="-1.7808134530534725"><ele>7.0</ele><time>2026-03-26T09:56:14.999Z</time></trkpt><trkpt lat="47.693631521535536" lon="-1.7810246908344562"><ele>7.0</ele><time>2026-03-26T09:56:15.999Z</time></trkpt><trkpt lat="47.693743431109546" lon="-1.7812621769744734"><ele>7.333333333333334</ele><time>2026-03-26T09:56:16.999Z</time></trkpt><trkpt lat="47.6938664087281" lon="-1.7814386624340242"><ele>7.666666666666666</ele><time>2026-03-26T09:56:17.999Z</time></trkpt><trkpt lat="47.69397806939135" lon="-1.7816037299006733"><ele>8.0</ele><time>2026-03-26T09:56:18.999Z</time></trkpt><trkpt lat="47.69407448532158" lon="-1.7817374485235717"><ele>8.25</ele><time>2026-03-26T09:56:19.999Z</time></trkpt><trkpt lat="47.694165546671435" lon="-1.7818502535728653"><ele>8.5</ele><time>2026-03-26T09:56:20.999Z</time></trkpt><trkpt lat="47.69427152472727" lon="-1.7819596042901065"><ele>8.75</ele><time>2026-03-26T09:56:21.999Z</time></trkpt><trkpt lat="47.694393956718436" lon="-1.782058255536128"><ele>9.0</ele><time>2026-03-26T09:56:22.999Z</time></trkpt><trkpt lat="47.69452914830573" lon="-1.7821337296954152"><ele>9.333333333333334</ele><time>2026-03-26T09:56:23.999Z</time></trkpt><trkpt lat="47.69467611551232" lon="-1.7822297600573518"><ele>9.666666666666668</ele><time>2026-03-26T09:56:24.999Z</time></trkpt><trkpt lat="47.69482389511129" lon="-1.7823242935036643"><ele>10.0</ele><time>2026-03-26T09:56:25.999Z</time></trkpt><trkpt lat="47.69496299770095" lon="-1.7824132763405172"><ele>10.0</ele><time>2026-03-26T09:56:26.999Z</time></trkpt><trkpt lat="47.695095108101064" lon="-1.7824897771429922"><ele>10.0</ele><time>2026-03-26T09:56:27.999Z</time></trkpt><trkpt lat="47.695211573250795" lon="-1.782539221457922"><ele>10.0</ele><time>2026-03-26T09:56:28.999Z</time></trkpt><trkpt lat="47.69530145336526" lon="-1.782556377313252"><ele>10.0</ele><time>2026-03-26T09:56:29.999Z</time></trkpt><trkpt lat="47.69539088596216" lon="-1.7825642273984"><ele>10.0</ele><time>2026-03-26T09:56:30.999Z</time></trkpt><trkpt lat="47.69548441249486" lon="-1.7825593979886158"><ele>10.5</ele><time>2026-03-26T09:56:31.999Z</time></trkpt><trkpt lat="47.69560405064229" lon="-1.7825199142828598"><ele>11.0</ele><time>2026-03-26T09:56:32.999Z</time></trkpt><trkpt lat="47.69573416581917" lon="-1.7824793729608408"><ele>11.5</ele><time>2026-03-26T09:56:33.999Z</time></trkpt><trkpt lat="47.695892944269524" lon="-1.7824646046516894"><ele>12.0</ele><time>2026-03-26T09:56:34.999Z</time></trkpt><trkpt lat="47.696020018395366" lon="-1.782455725550016"><ele>12.2</ele><time>2026-03-26T09:56:35.999Z</time></trkpt><trkpt lat="47.69615762556868" lon="-1.7824833089020007"><ele>12.399999999999999</ele><time>2026-03-26T09:56:36.999Z</time></trkpt><trkpt lat="47.696273844228706" lon="-1.7825138487706582"><ele>12.600000000000001</ele><time>2026-03-26T09:56:37.999Z</time></trkpt><trkpt lat="47.69635614764817" lon="-1.7825296473134875"><ele>12.8</ele><time>2026-03-26T09:56:38.999Z</time></trkpt><trkpt lat="47.69642517920297" lon="-1.782537509097731"><ele>13.0</ele><time>2026-03-26T09:56:39.999Z</time></trkpt><trkpt lat="47.696519083805455" lon="-1.7825463963109605"><ele>13.666666666666666</ele><time>2026-03-26T09:56:41.998Z</time></trkpt><trkpt lat="47.696595313291" lon="-1.782857683416021"><ele>14.333333333333332</ele><time>2026-03-26T09:56:43.998Z</time></trkpt><trkpt lat="47.69661323275932" lon="-1.7830459671513825"><ele>15.0</ele><time>2026-03-26T09:56:44.998Z</time></trkpt><trkpt lat="47.69664770775474" lon="-1.7832398442874584"><ele>15.0</ele><time>2026-03-26T09:56:45.998Z</time></trkpt><trkpt lat="47.696699154735455" lon="-1.7834640805756061"><ele>15.0</ele><time>2026-03-26T09:56:46.998Z</time></trkpt><trkpt lat="47.69672931504182" lon="-1.7836791852636225"><ele>15.0</ele><time>2026-03-26T09:56:47.998Z</time></trkpt><trkpt lat="47.69675818550738" lon="-1.783874195152735"><ele>15.0</ele><time>2026-03-26T09:56:48.998Z</time></trkpt><trkpt lat="47.69678780899469" lon="-1.7840953256897016"><ele>15.0</ele><time>2026-03-26T09:56:49.998Z</time></trkpt><trkpt lat="47.6968232734246" lon="-1.7843388931643505"><ele>15.0</ele><time>2026-03-26T09:56:50.998Z</time></trkpt><trkpt lat="47.696866378812906" lon="-1.7845889973294462"><ele>15.0</ele><time>2026-03-26T09:56:51.998Z</time></trkpt><trkpt lat="47.696929222579726" lon="-1.784842680825447"><ele>14.666666666666668</ele><time>2026-03-26T09:56:52.998Z</time></trkpt><trkpt lat="47.69699759172224" lon="-1.7850709929913355"><ele>14.333333333333334</ele><time>2026-03-26T09:56:53.998Z</time></trkpt><trkpt lat="47.69706307747125" lon="-1.7852821760004354"><ele>14.0</ele><time>2026-03-26T09:56:54.998Z</time></trkpt><trkpt lat="47.69712078389174" lon="-1.7855221936005827"><ele>14.0</ele><time>2026-03-26T09:56:55.998Z</time></trkpt><trkpt lat="47.69716791686695" lon="-1.7857529704886002"><ele>14.0</ele><time>2026-03-26T09:56:56.998Z</time></trkpt><trkpt lat="47.69719550693814" lon="-1.7859458284949565"><ele>14.0</ele><time>2026-03-26T09:56:57.998Z</time></trkpt><trkpt lat="47.69722216795424" lon="-1.7861246409221654"><ele>14.0</ele><time>2026-03-26T09:56:58.998Z</time></trkpt><trkpt lat="47.697250800231025" lon="-1.786274866118533"><ele>14.166666666666668</ele><time>2026-03-26T09:56:59.998Z</time></trkpt><trkpt lat="47.69725355942632" lon="-1.7863948494257305"><ele>14.333333333333334</ele><time>2026-03-26T09:57:00.998Z</time></trkpt><trkpt lat="47.69726240918573" lon="-1.7864890378253189"><ele>14.5</ele><time>2026-03-26T09:57:01.998Z</time></trkpt><trkpt lat="47.69728202038749" lon="-1.7866082124444866"><ele>14.666666666666668</ele><time>2026-03-26T09:57:03.998Z</time></trkpt><trkpt lat="47.697404830904546" lon="-1.7866778882618821"><ele>14.833333333333334</ele><time>2026-03-26T09:57:06Z</time></trkpt><trkpt lat="47.69749261016429" lon="-1.7866977793930026"><ele>15.0</ele><time>2026-03-26T09:57:07Z</time></trkpt><trkpt lat="47.69759970709038" lon="-1.7867304295654665"><ele>15.0</ele><time>2026-03-26T09:57:08Z</time></trkpt><trkpt lat="47.6977116293142" lon="-1.786770476215182"><ele>15.0</ele><time>2026-03-26T09:57:09Z</time></trkpt><trkpt lat="47.697805190679766" lon="-1.786795321847674"><ele>15.0</ele><time>2026-03-26T09:57:10Z</time></trkpt><trkpt lat="47.69791170031018" lon="-1.7868116086450856"><ele>15.0</ele><time>2026-03-26T09:57:11Z</time></trkpt><trkpt lat="47.69802007889738" lon="-1.7868116856350509"><ele>15.0</ele><time>2026-03-26T09:57:12Z</time></trkpt><trkpt lat="47.69813692111651" lon="-1.786735277079619"><ele>14.75</ele><time>2026-03-26T09:57:13Z</time></trkpt><trkpt lat="47.69828174143054" lon="-1.7866466301625954"><ele>14.5</ele><time>2026-03-26T09:57:14Z</time></trkpt><trkpt lat="47.69842399657326" lon="-1.7865470937001873"><ele>14.25</ele><time>2026-03-26T09:57:15Z</time></trkpt><trkpt lat="47.69854695614932" lon="-1.7864838952304873"><ele>14.0</ele><time>2026-03-26T09:57:16Z</time></trkpt><trkpt lat="47.69866241626493" lon="-1.786389855871506"><ele>13.333333333333334</ele><time>2026-03-26T09:57:17Z</time></trkpt><trkpt lat="47.69879666869386" lon="-1.7862902246860346"><ele>12.666666666666668</ele><time>2026-03-26T09:57:18Z</time></trkpt><trkpt lat="47.69894364000448" lon="-1.7861841166701973"><ele>12.0</ele><time>2026-03-26T09:57:19Z</time></trkpt><trkpt lat="47.6990995709605" lon="-1.786092086849197"><ele>11.25</ele><time>2026-03-26T09:57:20Z</time></trkpt><trkpt lat="47.699247356097516" lon="-1.7860069902205338"><ele>10.5</ele><time>2026-03-26T09:57:21Z</time></trkpt><trkpt lat="47.69936933280779" lon="-1.785940430701931"><ele>9.75</ele><time>2026-03-26T09:57:22Z</time></trkpt><trkpt lat="47.699483547421615" lon="-1.785869879341849"><ele>9.0</ele><time>2026-03-26T09:57:23Z</time></trkpt><trkpt lat="47.69960264953656" lon="-1.7857937806562871"><ele>8.5</ele><time>2026-03-26T09:57:24Z</time></trkpt><trkpt lat="47.69974521490115" lon="-1.7857336115028866"><ele>8.0</ele><time>2026-03-26T09:57:25Z</time></trkpt><trkpt lat="47.69986975996572" lon="-1.7856501831549354"><ele>7.5</ele><time>2026-03-26T09:57:26Z</time></trkpt><trkpt lat="47.7000072216523" lon="-1.7855685277174314"><ele>7.0</ele><time>2026-03-26T09:57:27Z</time></trkpt><trkpt lat="47.70016679814295" lon="-1.7854796564593476"><ele>6.333333333333334</ele><time>2026-03-26T09:57:28Z</time></trkpt><trkpt lat="47.70031471946912" lon="-1.7854122138534392"><ele>5.666666666666667</ele><time>2026-03-26T09:57:29Z</time></trkpt><trkpt lat="47.70046474082217" lon="-1.785323588703751"><ele>5.0</ele><time>2026-03-26T09:57:30Z</time></trkpt><trkpt lat="47.70062383705921" lon="-1.7852301783681692"><ele>5.0</ele><time>2026-03-26T09:57:31Z</time></trkpt><trkpt lat="47.70076872242719" lon="-1.7851330080152783"><ele>5.0</ele><time>2026-03-26T09:57:32Z</time></trkpt><trkpt lat="47.700922290539694" lon="-1.7850242096898297"><ele>5.0</ele><time>2026-03-26T09:57:33Z</time></trkpt><trkpt lat="47.70108045514355" lon="-1.7849365823462298"><ele>4.75</ele><time>2026-03-26T09:57:34Z</time></trkpt><trkpt lat="47.70122497239811" lon="-1.7848490789310532"><ele>4.5</ele><time>2026-03-26T09:57:35Z</time></trkpt><trkpt lat="47.70134329801666" lon="-1.784758364555168"><ele>4.25</ele><time>2026-03-26T09:57:36Z</time></trkpt><trkpt lat="47.701462433233246" lon="-1.7846564347172542"><ele>4.0</ele><time>2026-03-26T09:57:37Z</time></trkpt><trkpt lat="47.70158918788344" lon="-1.7845533502067727"><ele>4.0</ele><time>2026-03-26T09:57:38Z</time></trkpt><trkpt lat="47.701717301818306" lon="-1.7844166757839461"><ele>4.0</ele><time>2026-03-26T09:57:39Z</time></trkpt><trkpt lat="47.70187138418592" lon="-1.7842815328718935"><ele>4.0</ele><time>2026-03-26T09:57:40Z</time></trkpt><trkpt lat="47.70202180984291" lon="-1.7841240127180593"><ele>5.333333333333333</ele><time>2026-03-26T09:57:41Z</time></trkpt><trkpt lat="47.70217429566471" lon="-1.78396172021293"><ele>6.666666666666666</ele><time>2026-03-26T09:57:42Z</time></trkpt><trkpt lat="47.70232412519314" lon="-1.78380264185943"><ele>8.0</ele><time>2026-03-26T09:57:43Z</time></trkpt><trkpt lat="47.702469211267555" lon="-1.783657068944001"><ele>8.0</ele><time>2026-03-26T09:57:44Z</time></trkpt><trkpt lat="47.70259349777773" lon="-1.783519977868327"><ele>8.0</ele><time>2026-03-26T09:57:45Z</time></trkpt><trkpt lat="47.702722235332395" lon="-1.783398791133696"><ele>8.0</ele><time>2026-03-26T09:57:46Z</time></trkpt><trkpt lat="47.70285402458735" lon="-1.7832449864702211"><ele>8.666666666666666</ele><time>2026-03-26T09:57:46.999Z</time></trkpt><trkpt lat="47.702984611745904" lon="-1.783134415151979"><ele>9.333333333333334</ele><time>2026-03-26T09:57:47.999Z</time></trkpt><trkpt lat="47.703125741739825" lon="-1.7830050988053376"><ele>10.0</ele><time>2026-03-26T09:57:48.999Z</time></trkpt><trkpt lat="47.70327502885376" lon="-1.78285239456959"><ele>10.0</ele><time>2026-03-26T09:57:49.999Z</time></trkpt><trkpt lat="47.70340978907732" lon="-1.7827006242392542"><ele>10.0</ele><time>2026-03-26T09:57:50.999Z</time></trkpt><trkpt lat="47.7035472084076" lon="-1.7825536140097331"><ele>10.0</ele><time>2026-03-26T09:57:51.999Z</time></trkpt><trkpt lat="47.7036980835267" lon="-1.7824017413786113"><ele>10.666666666666668</ele><time>2026-03-26T09:57:52.999Z</time></trkpt><trkpt lat="47.703857260246636" lon="-1.7822369684786168"><ele>11.333333333333334</ele><time>2026-03-26T09:57:53.999Z</time></trkpt><trkpt lat="47.704016920828124" lon="-1.7820683264945496"><ele>12.0</ele><time>2026-03-26T09:57:54.999Z</time></trkpt><trkpt lat="47.70418477559771" lon="-1.7818974075518277"><ele>12.0</ele><time>2026-03-26T09:57:55.999Z</time></trkpt><trkpt lat="47.704354854028225" lon="-1.7817226064392593"><ele>12.0</ele><time>2026-03-26T09:57:56.999Z</time></trkpt><trkpt lat="47.70452158957656" lon="-1.7815540002570824"><ele>12.0</ele><time>2026-03-26T09:57:57.999Z</time></trkpt><trkpt lat="47.70468952454157" lon="-1.7813813910788225"><ele>12.666666666666668</ele><time>2026-03-26T09:57:58.999Z</time></trkpt><trkpt lat="47.704860448562236" lon="-1.78121128739404"><ele>13.333333333333334</ele><time>2026-03-26T09:57:59.999Z</time></trkpt><trkpt lat="47.70503434545335" lon="-1.7810244185598987"><ele>14.0</ele><time>2026-03-26T09:58:00.999Z</time></trkpt><trkpt lat="47.70521219905322" lon="-1.7808544919402975"><ele>14.0</ele><time>2026-03-26T09:58:01.999Z</time></trkpt><trkpt lat="47.705378375842216" lon="-1.7806855370614794"><ele>14.0</ele><time>2026-03-26T09:58:02.999Z</time></trkpt><trkpt lat="47.70554996092263" lon="-1.7805192459491905"><ele>14.0</ele><time>2026-03-26T09:58:03.999Z</time></trkpt><trkpt lat="47.705715213882215" lon="-1.7803598963509821"><ele>14.0</ele><time>2026-03-26T09:58:04.999Z</time></trkpt><trkpt lat="47.70587122557848" lon="-1.7801846700345632"><ele>14.0</ele><time>2026-03-26T09:58:05.999Z</time></trkpt><trkpt lat="47.70603183459688" lon="-1.7800085938181123"><ele>14.0</ele><time>2026-03-26T09:58:06.999Z</time></trkpt><trkpt lat="47.70618635756993" lon="-1.7798303644967068"><ele>14.0</ele><time>2026-03-26T09:58:07.999Z</time></trkpt><trkpt lat="47.70634884908958" lon="-1.779665110253016"><ele>14.0</ele><time>2026-03-26T09:58:08.999Z</time></trkpt><trkpt lat="47.70651311830571" lon="-1.7794938173493189"><ele>14.0</ele><time>2026-03-26T09:58:09.999Z</time></trkpt><trkpt lat="47.706684483558504" lon="-1.7793289791891143"><ele>14.333333333333334</ele><time>2026-03-26T09:58:10.999Z</time></trkpt><trkpt lat="47.70684979599078" lon="-1.7791600750181458"><ele>14.666666666666668</ele><time>2026-03-26T09:58:11.999Z</time></trkpt><trkpt lat="47.70701887210101" lon="-1.7789981788822096"><ele>15.0</ele><time>2026-03-26T09:58:12.999Z</time></trkpt><trkpt lat="47.70719648290628" lon="-1.7788206866233998"><ele>14.666666666666668</ele><time>2026-03-26T09:58:13.999Z</time></trkpt><trkpt lat="47.707368783163524" lon="-1.7786442393546766"><ele>14.333333333333334</ele><time>2026-03-26T09:58:14.999Z</time></trkpt><trkpt lat="47.707541316163436" lon="-1.7784711835922413"><ele>14.0</ele><time>2026-03-26T09:58:15.999Z</time></trkpt><trkpt lat="47.70770919275089" lon="-1.7782965659318128"><ele>14.0</ele><time>2026-03-26T09:58:16.999Z</time></trkpt><trkpt lat="47.70787600398139" lon="-1.7781287722483423"><ele>14.0</ele><time>2026-03-26T09:58:17.999Z</time></trkpt><trkpt lat="47.70804019590394" lon="-1.777962005085867"><ele>14.0</ele><time>2026-03-26T09:58:18.999Z</time></trkpt><trkpt lat="47.70820813854417" lon="-1.777794634594617"><ele>14.0</ele><time>2026-03-26T09:58:19.999Z</time></trkpt><trkpt lat="47.708375358927704" lon="-1.7776203361109582"><ele>14.0</ele><time>2026-03-26T09:58:20.999Z</time></trkpt><trkpt lat="47.70853148579763" lon="-1.7774498560823606"><ele>14.0</ele><time>2026-03-26T09:58:21.999Z</time></trkpt><trkpt lat="47.70869966349227" lon="-1.777270734584792"><ele>14.0</ele><time>2026-03-26T09:58:22.999Z</time></trkpt><trkpt lat="47.70886024850815" lon="-1.7770970926687235"><ele>14.0</ele><time>2026-03-26T09:58:23.999Z</time></trkpt><trkpt lat="47.70902057661216" lon="-1.7769235764934321"><ele>14.0</ele><time>2026-03-26T09:58:24.999Z</time></trkpt><trkpt lat="47.70918164763794" lon="-1.776736046846937"><ele>14.666666666666668</ele><time>2026-03-26T09:58:25.999Z</time></trkpt><trkpt lat="47.70934111490464" lon="-1.7765452562212785"><ele>15.333333333333332</ele><time>2026-03-26T09:58:26.999Z</time></trkpt><trkpt lat="47.70949421594522" lon="-1.7763392653833843"><ele>16.0</ele><time>2026-03-26T09:58:27.999Z</time></trkpt><trkpt lat="47.709631903519465" lon="-1.7761207204188663"><ele>17.0</ele><time>2026-03-26T09:58:28.999Z</time></trkpt><trkpt lat="47.70973204521158" lon="-1.7758600532745197"><ele>18.0</ele><time>2026-03-26T09:58:29.999Z</time></trkpt><trkpt lat="47.70982275115419" lon="-1.775572596352721"><ele>19.0</ele><time>2026-03-26T09:58:30.999Z</time></trkpt><trkpt lat="47.709890450902506" lon="-1.7753062242158468"><ele>20.0</ele><time>2026-03-26T09:58:31.999Z</time></trkpt><trkpt lat="47.70995597306014" lon="-1.7750679407715477"><ele>21.0</ele><time>2026-03-26T09:58:32.999Z</time></trkpt><trkpt lat="47.710016348148216" lon="-1.7748402677425548"><ele>22.0</ele><time>2026-03-26T09:58:33.999Z</time></trkpt><trkpt lat="47.710086562781505" lon="-1.7745957049647552"><ele>22.0</ele><time>2026-03-26T09:58:34.999Z</time></trkpt><trkpt lat="47.7101583887082" lon="-1.7743526089791444"><ele>22.0</ele><time>2026-03-26T09:58:35.999Z</time></trkpt><trkpt lat="47.710226657559396" lon="-1.7741027272288215"><ele>22.0</ele><time>2026-03-26T09:58:36.999Z</time></trkpt><trkpt lat="47.71030087064976" lon="-1.7738526832071153"><ele>22.0</ele><time>2026-03-26T09:58:37.999Z</time></trkpt><trkpt lat="47.710384366594916" lon="-1.7735883577110667"><ele>22.0</ele><time>2026-03-26T09:58:38.999Z</time></trkpt><trkpt lat="47.71045850460845" lon="-1.773330626225241"><ele>22.0</ele><time>2026-03-26T09:58:39.999Z</time></trkpt><trkpt lat="47.710538208762756" lon="-1.7730483216749597"><ele>22.666666666666664</ele><time>2026-03-26T09:58:40.999Z</time></trkpt><trkpt lat="47.71061651835732" lon="-1.7727678808375833"><ele>23.333333333333332</ele><time>2026-03-26T09:58:41.999Z</time></trkpt><trkpt lat="47.7106947189621" lon="-1.7725056378016415"><ele>24.0</ele><time>2026-03-26T09:58:42.999Z</time></trkpt><trkpt lat="47.71076382444412" lon="-1.7722672286896104"><ele>24.0</ele><time>2026-03-26T09:58:43.999Z</time></trkpt><trkpt lat="47.71082576695364" lon="-1.7720523349705528"><ele>24.0</ele><time>2026-03-26T09:58:44.999Z</time></trkpt><trkpt lat="47.7108812675142" lon="-1.7718467484852343"><ele>24.0</ele><time>2026-03-26T09:58:45.999Z</time></trkpt><trkpt lat="47.71092507311367" lon="-1.7716615591893627"><ele>24.0</ele><time>2026-03-26T09:58:46.998Z</time></trkpt><trkpt lat="47.71098133799961" lon="-1.7714797215204576"><ele>24.0</ele><time>2026-03-26T09:58:47.998Z</time></trkpt><trkpt lat="47.71103182601245" lon="-1.7713137942303085"><ele>24.0</ele><time>2026-03-26T09:58:48.998Z</time></trkpt><trkpt lat="47.7110721086345" lon="-1.7711634978298176"><ele>24.0</ele><time>2026-03-26T09:58:49.998Z</time></trkpt><trkpt lat="47.711107958094566" lon="-1.7710346729147117"><ele>24.0</ele><time>2026-03-26T09:58:50.998Z</time></trkpt><trkpt lat="47.711144173182134" lon="-1.7709384350180875"><ele>24.0</ele><time>2026-03-26T09:58:51.998Z</time></trkpt><trkpt lat="47.71118169601925" lon="-1.7708054719950066"><ele>24.0</ele><time>2026-03-26T09:58:53.998Z</time></trkpt><trkpt lat="47.71140142228799" lon="-1.7708742280309642"><ele>24.0</ele><time>2026-03-26T09:58:55.998Z</time></trkpt><trkpt lat="47.7115025117989" lon="-1.7709400915471991"><ele>24.0</ele><time>2026-03-26T09:58:56.998Z</time></trkpt><trkpt lat="47.7116313789735" lon="-1.770992879299256"><ele>24.25</ele><time>2026-03-26T09:58:57.998Z</time></trkpt><trkpt lat="47.711750346779986" lon="-1.7710732854142595"><ele>24.5</ele><time>2026-03-26T09:58:58.998Z</time></trkpt><trkpt lat="47.71187560995929" lon="-1.7711128498095186"><ele>24.75</ele><time>2026-03-26T09:58:59.998Z</time></trkpt><trkpt lat="47.71198609634525" lon="-1.7711686741593549"><ele>25.0</ele><time>2026-03-26T09:59:00.998Z</time></trkpt><trkpt lat="47.71210409302235" lon="-1.7712254723132217"><ele>25.25</ele><time>2026-03-26T09:59:01.998Z</time></trkpt><trkpt lat="47.71220939521488" lon="-1.7712886735236257"><ele>25.5</ele><time>2026-03-26T09:59:02.998Z</time></trkpt><trkpt lat="47.712337816644244" lon="-1.7713559657418656"><ele>25.75</ele><time>2026-03-26T09:59:03.998Z</time></trkpt><trkpt lat="47.7124711616221" lon="-1.7714276557210018"><ele>26.0</ele><time>2026-03-26T09:59:04.998Z</time></trkpt><trkpt lat="47.71261062949768" lon="-1.7714961109408098"><ele>26.666666666666664</ele><time>2026-03-26T09:59:05.998Z</time></trkpt><trkpt lat="47.71275763560365" lon="-1.7715713871992211"><ele>27.333333333333336</ele><time>2026-03-26T09:59:06.998Z</time></trkpt><trkpt lat="47.71292014534867" lon="-1.7716476325093433"><ele>28.0</ele><time>2026-03-26T09:59:07.998Z</time></trkpt><trkpt lat="47.71308437394024" lon="-1.771723030005449"><ele>28.0</ele><time>2026-03-26T09:59:08.998Z</time></trkpt><trkpt lat="47.713252833452074" lon="-1.771806708141481"><ele>28.0</ele><time>2026-03-26T09:59:09.998Z</time></trkpt><trkpt lat="47.713396530995134" lon="-1.7718691996640203"><ele>28.0</ele><time>2026-03-26T09:59:11Z</time></trkpt><trkpt lat="47.71353665068494" lon="-1.7719371669045414"><ele>28.333333333333336</ele><time>2026-03-26T09:59:12Z</time></trkpt><trkpt lat="47.713676760801484" lon="-1.77199800534804"><ele>28.666666666666664</ele><time>2026-03-26T09:59:13Z</time></trkpt><trkpt lat="47.71382840118004" lon="-1.7720637177394039"><ele>29.0</ele><time>2026-03-26T09:59:14Z</time></trkpt><trkpt lat="47.71397542999565" lon="-1.7721369795105117"><ele>29.0</ele><time>2026-03-26T09:59:15Z</time></trkpt><trkpt lat="47.71411453482533" lon="-1.7722055983759395"><ele>29.0</ele><time>2026-03-26T09:59:16Z</time></trkpt><trkpt lat="47.71425757931764" lon="-1.772284060857388"><ele>29.0</ele><time>2026-03-26T09:59:17Z</time></trkpt><trkpt lat="47.71439530616399" lon="-1.7723681728570477"><ele>29.0</ele><time>2026-03-26T09:59:18Z</time></trkpt><trkpt lat="47.71454663381108" lon="-1.7724586209166542"><ele>28.666666666666664</ele><time>2026-03-26T09:59:19Z</time></trkpt><trkpt lat="47.714699692388606" lon="-1.7725681440572298"><ele>28.333333333333336</ele><time>2026-03-26T09:59:20Z</time></trkpt><trkpt lat="47.71484479388156" lon="-1.7727012422278536"><ele>28.0</ele><time>2026-03-26T09:59:21Z</time></trkpt><trkpt lat="47.714970078732044" lon="-1.7728467215690638"><ele>27.75</ele><time>2026-03-26T09:59:22Z</time></trkpt><trkpt lat="47.7150931109501" lon="-1.7729911704826886"><ele>27.5</ele><time>2026-03-26T09:59:23Z</time></trkpt><trkpt lat="47.715207300330235" lon="-1.7730983027032416"><ele>27.25</ele><time>2026-03-26T09:59:24Z</time></trkpt><trkpt lat="47.71531617964033" lon="-1.7731605282311498"><ele>27.0</ele><time>2026-03-26T09:59:25Z</time></trkpt><trkpt lat="47.71543811382963" lon="-1.773181029269744"><ele>26.666666666666664</ele><time>2026-03-26T09:59:26Z</time></trkpt><trkpt lat="47.715573436242025" lon="-1.7731842458751101"><ele>26.333333333333332</ele><time>2026-03-26T09:59:27Z</time></trkpt><trkpt lat="47.71573017990787" lon="-1.7731846074370208"><ele>26.0</ele><time>2026-03-26T09:59:28Z</time></trkpt><trkpt lat="47.71589416973928" lon="-1.7731898544878388"><ele>26.0</ele><time>2026-03-26T09:59:29Z</time></trkpt><trkpt lat="47.716054962632604" lon="-1.77321336286594"><ele>26.0</ele><time>2026-03-26T09:59:30Z</time></trkpt><trkpt lat="47.71620013357413" lon="-1.7732169639288"><ele>26.0</ele><time>2026-03-26T09:59:31Z</time></trkpt><trkpt lat="47.71635176148176" lon="-1.7732155172741584"><ele>26.0</ele><time>2026-03-26T09:59:32Z</time></trkpt><trkpt lat="47.716509187850264" lon="-1.7731999800727651"><ele>26.0</ele><time>2026-03-26T09:59:33Z</time></trkpt><trkpt lat="47.71665643785147" lon="-1.7732261042811155"><ele>26.0</ele><time>2026-03-26T09:59:34Z</time></trkpt><trkpt lat="47.71680083910782" lon="-1.7732292576384732"><ele>26.4</ele><time>2026-03-26T09:59:35Z</time></trkpt><trkpt lat="47.71692010201298" lon="-1.7732220461052064"><ele>26.8</ele><time>2026-03-26T09:59:36Z</time></trkpt><trkpt lat="47.71703968684719" lon="-1.7732150486704217"><ele>27.199999999999996</ele><time>2026-03-26T09:59:37Z</time></trkpt><trkpt lat="47.717132176194276" lon="-1.7732154711274815"><ele>27.599999999999998</ele><time>2026-03-26T09:59:38Z</time></trkpt><trkpt lat="47.717206009445974" lon="-1.7732073490020999"><ele>28.0</ele><time>2026-03-26T09:59:39Z</time></trkpt><trkpt lat="47.717272390382995" lon="-1.7731962073343577"><ele>28.0</ele><time>2026-03-26T09:59:40Z</time></trkpt><trkpt lat="47.717335090387735" lon="-1.7731640428667284"><ele>28.0</ele><time>2026-03-26T09:59:41Z</time></trkpt><trkpt lat="47.71745063440949" lon="-1.773137871431801"><ele>28.0</ele><time>2026-03-26T09:59:43Z</time></trkpt><trkpt lat="47.71757116946916" lon="-1.7734273670423815"><ele>28.0</ele><time>2026-03-26T09:59:45Z</time></trkpt><trkpt lat="47.717612607790784" lon="-1.7735779875465978"><ele>28.0</ele><time>2026-03-26T09:59:46Z</time></trkpt><trkpt lat="47.71764723052007" lon="-1.7737480544910753"><ele>28.0</ele><time>2026-03-26T09:59:47Z</time></trkpt><trkpt lat="47.71768004438738" lon="-1.773936202049828"><ele>28.0</ele><time>2026-03-26T09:59:48Z</time></trkpt><trkpt lat="47.71772921107097" lon="-1.7741335894330372"><ele>28.0</ele><time>2026-03-26T09:59:49Z</time></trkpt><trkpt lat="47.71776792236957" lon="-1.7743455055397388"><ele>28.75</ele><time>2026-03-26T09:59:50Z</time></trkpt><trkpt lat="47.7177908954761" lon="-1.774528154019709"><ele>29.5</ele><time>2026-03-26T09:59:51Z</time></trkpt><trkpt lat="47.717826354194884" lon="-1.7747249063169406"><ele>30.25</ele><time>2026-03-26T09:59:52Z</time></trkpt><trkpt lat="47.717838219624184" lon="-1.7749414080673915"><ele>31.0</ele><time>2026-03-26T09:59:52.999Z</time></trkpt><trkpt lat="47.71787034328442" lon="-1.7751545037794025"><ele>30.666666666666668</ele><time>2026-03-26T09:59:53.999Z</time></trkpt><trkpt lat="47.71789113101756" lon="-1.7753841586376327"><ele>30.333333333333336</ele><time>2026-03-26T09:59:54.999Z</time></trkpt><trkpt lat="47.71792029143623" lon="-1.775611375014091"><ele>30.0</ele><time>2026-03-26T09:59:55.999Z</time></trkpt><trkpt lat="47.717961061728666" lon="-1.7758421674794749"><ele>30.333333333333336</ele><time>2026-03-26T09:59:56.999Z</time></trkpt><trkpt lat="47.71800466237303" lon="-1.7760742171467603"><ele>30.666666666666668</ele><time>2026-03-26T09:59:57.999Z</time></trkpt><trkpt lat="47.718061589716875" lon="-1.7762975131840737"><ele>31.0</ele><time>2026-03-26T09:59:58.999Z</time></trkpt><trkpt lat="47.71812456756698" lon="-1.7765417738649953"><ele>31.0</ele><time>2026-03-26T09:59:59.999Z</time></trkpt><trkpt lat="47.718184659172884" lon="-1.7767814393673753"><ele>31.0</ele><time>2026-03-26T10:00:00.999Z</time></trkpt><trkpt lat="47.71825464518204" lon="-1.777008646839707"><ele>31.0</ele><time>2026-03-26T10:00:01.999Z</time></trkpt><trkpt lat="47.71831154460077" lon="-1.777213561352399"><ele>30.75</ele><time>2026-03-26T10:00:02.999Z</time></trkpt><trkpt lat="47.71836749398973" lon="-1.7774051236450352"><ele>30.5</ele><time>2026-03-26T10:00:03.999Z</time></trkpt><trkpt lat="47.71842847972612" lon="-1.7775941139986502"><ele>30.25</ele><time>2026-03-26T10:00:04.999Z</time></trkpt><trkpt lat="47.71849735248653" lon="-1.777793654736241"><ele>30.0</ele><time>2026-03-26T10:00:05.999Z</time></trkpt><trkpt lat="47.718565502214965" lon="-1.777999000587008"><ele>31.25</ele><time>2026-03-26T10:00:06.999Z</time></trkpt><trkpt lat="47.71863132920343" lon="-1.7781923867360487"><ele>32.5</ele><time>2026-03-26T10:00:07.999Z</time></trkpt><trkpt lat="47.718684177183015" lon="-1.7783512004446766"><ele>33.75</ele><time>2026-03-26T10:00:08.999Z</time></trkpt><trkpt lat="47.71872910039944" lon="-1.7784920660644405"><ele>35.0</ele><time>2026-03-26T10:00:09.999Z</time></trkpt><trkpt lat="47.71877388138649" lon="-1.7786145707640801"><ele>35.25</ele><time>2026-03-26T10:00:10.999Z</time></trkpt><trkpt lat="47.718808399491635" lon="-1.7787396788981071"><ele>35.5</ele><time>2026-03-26T10:00:11.999Z</time></trkpt><trkpt lat="47.71883108364485" lon="-1.7788748410474786"><ele>35.75</ele><time>2026-03-26T10:00:12.999Z</time></trkpt><trkpt lat="47.71903645301466" lon="-1.778901239683794"><ele>36.0</ele><time>2026-03-26T10:00:13.999Z</time></trkpt><trkpt lat="47.71915674578598" lon="-1.778983632472067"><ele>36.0</ele><time>2026-03-26T10:00:14.999Z</time></trkpt><trkpt lat="47.71927155980864" lon="-1.7791024461366702"><ele>36.0</ele><time>2026-03-26T10:00:15.999Z</time></trkpt><trkpt lat="47.719359510085276" lon="-1.7792372031038126"><ele>36.0</ele><time>2026-03-26T10:00:16.999Z</time></trkpt><trkpt lat="47.71943126005614" lon="-1.7793691061814498"><ele>36.0</ele><time>2026-03-26T10:00:17.999Z</time></trkpt><trkpt lat="47.719484052116314" lon="-1.7795183816731477"><ele>37.0</ele><time>2026-03-26T10:00:18.999Z</time></trkpt><trkpt lat="47.7195236620023" lon="-1.7796934324816274"><ele>38.0</ele><time>2026-03-26T10:00:19.999Z</time></trkpt><trkpt lat="47.71955327068654" lon="-1.7798864943225352"><ele>39.0</ele><time>2026-03-26T10:00:20.999Z</time></trkpt><trkpt lat="47.71957821630386" lon="-1.780067062874734"><ele>40.0</ele><time>2026-03-26T10:00:21.999Z</time></trkpt><trkpt lat="47.719621844078766" lon="-1.7802831532097618"><ele>40.0</ele><time>2026-03-26T10:00:22.999Z</time></trkpt><trkpt lat="47.719662566912035" lon="-1.7805091567781803"><ele>40.0</ele><time>2026-03-26T10:00:23.999Z</time></trkpt><trkpt lat="47.71970424693606" lon="-1.7807459806442745"><ele>40.0</ele><time>2026-03-26T10:00:24.999Z</time></trkpt><trkpt lat="47.71974454155895" lon="-1.780971439676054"><ele>40.0</ele><time>2026-03-26T10:00:25.999Z</time></trkpt><trkpt lat="47.71979359845456" lon="-1.7811565367526898"><ele>40.0</ele><time>2026-03-26T10:00:26.999Z</time></trkpt><trkpt lat="47.71988212582452" lon="-1.7813379416011024"><ele>40.0</ele><time>2026-03-26T10:00:27.999Z</time></trkpt><trkpt lat="47.71998573457926" lon="-1.7815192721318025"><ele>40.0</ele><time>2026-03-26T10:00:28.999Z</time></trkpt><trkpt lat="47.72010956833357" lon="-1.781708237106499"><ele>42.0</ele><time>2026-03-26T10:00:29.999Z</time></trkpt><trkpt lat="47.720240374921076" lon="-1.7818860380198296"><ele>44.0</ele><time>2026-03-26T10:00:30.999Z</time></trkpt><trkpt lat="47.72035791705124" lon="-1.78207732110945"><ele>46.0</ele><time>2026-03-26T10:00:31.999Z</time></trkpt><trkpt lat="47.72049272818824" lon="-1.7822520039805188"><ele>46.0</ele><time>2026-03-26T10:00:32.999Z</time></trkpt><trkpt lat="47.720593496178225" lon="-1.782446970434005"><ele>46.0</ele><time>2026-03-26T10:00:33.999Z</time></trkpt><trkpt lat="47.72064334915912" lon="-1.7826457835147587"><ele>46.0</ele><time>2026-03-26T10:00:34.999Z</time></trkpt><trkpt lat="47.72068774316405" lon="-1.7828588699878436"><ele>45.66666666666667</ele><time>2026-03-26T10:00:35.999Z</time></trkpt><trkpt lat="47.7207249043195" lon="-1.783092985086619"><ele>45.333333333333336</ele><time>2026-03-26T10:00:36.999Z</time></trkpt><trkpt lat="47.72078003925383" lon="-1.7833193735348354"><ele>45.0</ele><time>2026-03-26T10:00:37.999Z</time></trkpt><trkpt lat="47.72082755610387" lon="-1.7835758504597625"><ele>44.333333333333336</ele><time>2026-03-26T10:00:38.999Z</time></trkpt><trkpt lat="47.72087631906335" lon="-1.7838164580063431"><ele>43.66666666666667</ele><time>2026-03-26T10:00:39.999Z</time></trkpt><trkpt lat="47.720928270028345" lon="-1.7840211431072677"><ele>43.0</ele><time>2026-03-26T10:00:40.999Z</time></trkpt><trkpt lat="47.720979564988546" lon="-1.7842078979679692"><ele>43.0</ele><time>2026-03-26T10:00:41.999Z</time></trkpt><trkpt lat="47.72102629145297" lon="-1.784362136152605"><ele>43.0</ele><time>2026-03-26T10:00:42.999Z</time></trkpt><trkpt lat="47.72106798073025" lon="-1.7845112289390557"><ele>43.0</ele><time>2026-03-26T10:00:43.999Z</time></trkpt><trkpt lat="47.72111196338212" lon="-1.7846212523172698"><ele>43.0</ele><time>2026-03-26T10:00:44.999Z</time></trkpt><trkpt lat="47.72125381613234" lon="-1.7846371907076213"><ele>44.333333333333336</ele><time>2026-03-26T10:00:45.999Z</time></trkpt><trkpt lat="47.721390566398725" lon="-1.7846932404163052"><ele>45.666666666666664</ele><time>2026-03-26T10:00:46.999Z</time></trkpt><trkpt lat="47.72154558776851" lon="-1.784753210427048"><ele>47.0</ele><time>2026-03-26T10:00:47.999Z</time></trkpt><trkpt lat="47.72169971219496" lon="-1.7848333067633357"><ele>47.0</ele><time>2026-03-26T10:00:48.999Z</time></trkpt><trkpt lat="47.721831192180304" lon="-1.7848590677086027"><ele>47.0</ele><time>2026-03-26T10:00:49.999Z</time></trkpt><trkpt lat="47.721938048834836" lon="-1.7848909524478915"><ele>47.0</ele><time>2026-03-26T10:00:50.999Z</time></trkpt><trkpt lat="47.72203339394255" lon="-1.784898942377104"><ele>47.0</ele><time>2026-03-26T10:00:51.999Z</time></trkpt><trkpt lat="47.722138781879764" lon="-1.7849010618003875"><ele>47.0</ele><time>2026-03-26T10:00:52.998Z</time></trkpt><trkpt lat="47.72226678916732" lon="-1.784868529935705"><ele>47.0</ele><time>2026-03-26T10:00:53.998Z</time></trkpt><trkpt lat="47.722393107022825" lon="-1.7848482048126304"><ele>47.0</ele><time>2026-03-26T10:00:54.998Z</time></trkpt><trkpt lat="47.722519746643194" lon="-1.7848310897050816"><ele>47.0</ele><time>2026-03-26T10:00:55.998Z</time></trkpt><trkpt lat="47.72265798426819" lon="-1.7848076436371756"><ele>47.0</ele><time>2026-03-26T10:00:56.998Z</time></trkpt><trkpt lat="47.72275757943307" lon="-1.7848269918248776"><ele>47.0</ele><time>2026-03-26T10:00:57.998Z</time></trkpt><trkpt lat="47.72287797105512" lon="-1.7848313118842942"><ele>47.0</ele><time>2026-03-26T10:00:58.998Z</time></trkpt><trkpt lat="47.72300194178776" lon="-1.784847498542077"><ele>47.0</ele><time>2026-03-26T10:00:59.998Z</time></trkpt><trkpt lat="47.72312931869376" lon="-1.7848579204748836"><ele>47.0</ele><time>2026-03-26T10:01:00.998Z</time></trkpt><trkpt lat="47.72325324174299" lon="-1.7848576844708406"><ele>47.0</ele><time>2026-03-26T10:01:01.998Z</time></trkpt><trkpt lat="47.7233726524332" lon="-1.784842322676705"><ele>47.0</ele><time>2026-03-26T10:01:02.998Z</time></trkpt><trkpt lat="47.7235060781258" lon="-1.784829078087234"><ele>47.0</ele><time>2026-03-26T10:01:03.998Z</time></trkpt><trkpt lat="47.72363204455251" lon="-1.7848270312779266"><ele>47.0</ele><time>2026-03-26T10:01:04.998Z</time></trkpt><trkpt lat="47.723760037599156" lon="-1.7848323145250915"><ele>47.33333333333333</ele><time>2026-03-26T10:01:05.998Z</time></trkpt><trkpt lat="47.723909779667" lon="-1.7848512998099875"><ele>47.666666666666664</ele><time>2026-03-26T10:01:06.998Z</time></trkpt><trkpt lat="47.724058589188914" lon="-1.7848858012217834"><ele>48.0</ele><time>2026-03-26T10:01:07.998Z</time></trkpt><trkpt lat="47.72420638068007" lon="-1.7849232697922628"><ele>48.0</ele><time>2026-03-26T10:01:08.998Z</time></trkpt><trkpt lat="47.72436891300449" lon="-1.7849320337407566"><ele>48.0</ele><time>2026-03-26T10:01:09.998Z</time></trkpt><trkpt lat="47.724534524250494" lon="-1.7849613035196947"><ele>48.0</ele><time>2026-03-26T10:01:10.998Z</time></trkpt><trkpt lat="47.724713355925786" lon="-1.7850013102146145"><ele>48.75</ele><time>2026-03-26T10:01:11.998Z</time></trkpt><trkpt lat="47.72487572161994" lon="-1.7850583899119212"><ele>49.5</ele><time>2026-03-26T10:01:12.998Z</time></trkpt><trkpt lat="47.725014633577096" lon="-1.7850855366358562"><ele>50.25</ele><time>2026-03-26T10:01:13.998Z</time></trkpt><trkpt lat="47.72511992815722" lon="-1.7851064736834146"><ele>51.0</ele><time>2026-03-26T10:01:14.998Z</time></trkpt><trkpt lat="47.725211211181595" lon="-1.7851175245029798"><ele>51.0</ele><time>2026-03-26T10:01:15.998Z</time></trkpt><trkpt lat="47.72528798863287" lon="-1.7851237969026292"><ele>51.0</ele><time>2026-03-26T10:01:17Z</time></trkpt><trkpt lat="47.725369103434616" lon="-1.7851158382208911"><ele>51.0</ele><time>2026-03-26T10:01:19Z</time></trkpt><trkpt lat="47.72549565224815" lon="-1.7851378250586132"><ele>51.0</ele><time>2026-03-26T10:01:26Z</time></trkpt><trkpt lat="47.72556632994364" lon="-1.7851484911844584"><ele>51.0</ele><time>2026-03-26T10:01:27Z</time></trkpt><trkpt lat="47.72570284254794" lon="-1.785130549038447"><ele>51.0</ele><time>2026-03-26T10:01:29Z</time></trkpt><trkpt lat="47.72580819123254" lon="-1.7851245763546548"><ele>51.0</ele><time>2026-03-26T10:01:30Z</time></trkpt><trkpt lat="47.72590293981904" lon="-1.78512227165089"><ele>51.0</ele><time>2026-03-26T10:01:31Z</time></trkpt><trkpt lat="47.726008014489985" lon="-1.7851197157782757"><ele>51.0</ele><time>2026-03-26T10:01:32Z</time></trkpt><trkpt lat="47.726124309431015" lon="-1.785139045424815"><ele>51.0</ele><time>2026-03-26T10:01:33Z</time></trkpt><trkpt lat="47.726232302473406" lon="-1.7851160404768711"><ele>50.75</ele><time>2026-03-26T10:01:34Z</time></trkpt><trkpt lat="47.72635417391487" lon="-1.7851214469699699"><ele>50.5</ele><time>2026-03-26T10:01:35Z</time></trkpt><trkpt lat="47.726481637444564" lon="-1.7851221824132342"><ele>50.25</ele><time>2026-03-26T10:01:36Z</time></trkpt><trkpt lat="47.72662647885017" lon="-1.7851229777360298"><ele>50.0</ele><time>2026-03-26T10:01:37Z</time></trkpt><trkpt lat="47.72676214654227" lon="-1.7851184817270698"><ele>49.5</ele><time>2026-03-26T10:01:38Z</time></trkpt><trkpt lat="47.7269091838543" lon="-1.785117682004563"><ele>49.0</ele><time>2026-03-26T10:01:39Z</time></trkpt><trkpt lat="47.72705384393704" lon="-1.78509549853115"><ele>48.5</ele><time>2026-03-26T10:01:40Z</time></trkpt><trkpt lat="47.7271866021112" lon="-1.7850963017771297"><ele>48.0</ele><time>2026-03-26T10:01:41Z</time></trkpt><trkpt lat="47.72731607548872" lon="-1.785102020053324"><ele>48.0</ele><time>2026-03-26T10:01:42Z</time></trkpt><trkpt lat="47.727467826186896" lon="-1.785134696781788"><ele>48.0</ele><time>2026-03-26T10:01:43Z</time></trkpt><trkpt lat="47.72761028883283" lon="-1.7851896477235236"><ele>48.0</ele><time>2026-03-26T10:01:44Z</time></trkpt><trkpt lat="47.727763677707316" lon="-1.785257093598896"><ele>45.666666666666664</ele><time>2026-03-26T10:01:45Z</time></trkpt><trkpt lat="47.72792320818628" lon="-1.7853275288938"><ele>43.33333333333333</ele><time>2026-03-26T10:01:46Z</time></trkpt><trkpt lat="47.72808856210746" lon="-1.7853897297784902"><ele>41.0</ele><time>2026-03-26T10:01:47Z</time></trkpt><trkpt lat="47.72826925847641" lon="-1.7854593299539805"><ele>41.0</ele><time>2026-03-26T10:01:48Z</time></trkpt><trkpt lat="47.72843992978524" lon="-1.785527325091131"><ele>41.0</ele><time>2026-03-26T10:01:49Z</time></trkpt><trkpt lat="47.728604837157505" lon="-1.7855950265530396"><ele>41.0</ele><time>2026-03-26T10:01:50Z</time></trkpt><trkpt lat="47.7287812565011" lon="-1.7856394884935431"><ele>40.33333333333333</ele><time>2026-03-26T10:01:51Z</time></trkpt><trkpt lat="47.72896348258054" lon="-1.7857284680371575"><ele>39.666666666666664</ele><time>2026-03-26T10:01:52Z</time></trkpt><trkpt lat="47.729164231668165" lon="-1.7858021120938712"><ele>39.0</ele><time>2026-03-26T10:01:53Z</time></trkpt><trkpt lat="47.72934590325878" lon="-1.7858782002145677"><ele>37.0</ele><time>2026-03-26T10:01:54Z</time></trkpt><trkpt lat="47.72950876007612" lon="-1.7859133331813846"><ele>35.0</ele><time>2026-03-26T10:01:55Z</time></trkpt><trkpt lat="47.729656655563765" lon="-1.7859675600727565"><ele>33.0</ele><time>2026-03-26T10:01:56Z</time></trkpt><trkpt lat="47.72980206481693" lon="-1.7860198287183078"><ele>32.6</ele><time>2026-03-26T10:01:57Z</time></trkpt><trkpt lat="47.72994037613722" lon="-1.7860683431457245"><ele>32.199999999999996</ele><time>2026-03-26T10:01:58Z</time></trkpt><trkpt lat="47.7300516226862" lon="-1.7861073642596914"><ele>31.8</ele><time>2026-03-26T10:01:58.999Z</time></trkpt><trkpt lat="47.730146009521974" lon="-1.7861423802293672"><ele>31.4</ele><time>2026-03-26T10:01:59.999Z</time></trkpt><trkpt lat="47.7302355759616" lon="-1.7861792400802896"><ele>31.0</ele><time>2026-03-26T10:02:00.999Z</time></trkpt><trkpt lat="47.7302978394538" lon="-1.7862112846061686"><ele>31.0</ele><time>2026-03-26T10:02:01.999Z</time></trkpt><trkpt lat="47.73038880512016" lon="-1.78623952765558"><ele>31.0</ele><time>2026-03-26T10:02:03.999Z</time></trkpt><trkpt lat="47.73052579272308" lon="-1.7860089820058327"><ele>31.0</ele><time>2026-03-26T10:02:06.999Z</time></trkpt><trkpt lat="47.7305564319031" lon="-1.7858781236157308"><ele>31.0</ele><time>2026-03-26T10:02:07.999Z</time></trkpt><trkpt lat="47.73057979749831" lon="-1.7857168948702349"><ele>31.0</ele><time>2026-03-26T10:02:08.999Z</time></trkpt><trkpt lat="47.73060911235978" lon="-1.7855302347290987"><ele>31.0</ele><time>2026-03-26T10:02:09.999Z</time></trkpt><trkpt lat="47.73062968050122" lon="-1.7853109826656495"><ele>31.0</ele><time>2026-03-26T10:02:10.999Z</time></trkpt><trkpt lat="47.73063266471594" lon="-1.785084382045945"><ele>31.0</ele><time>2026-03-26T10:02:11.999Z</time></trkpt><trkpt lat="47.7306269677372" lon="-1.7848743223431838"><ele>31.333333333333336</ele><time>2026-03-26T10:02:12.999Z</time></trkpt><trkpt lat="47.7306261539615" lon="-1.784654662275484"><ele>31.666666666666664</ele><time>2026-03-26T10:02:13.999Z</time></trkpt><trkpt lat="47.730626199837296" lon="-1.7844197592349778"><ele>32.0</ele><time>2026-03-26T10:02:14.999Z</time></trkpt><trkpt lat="47.7306225877353" lon="-1.7841825062422294"><ele>32.666666666666664</ele><time>2026-03-26T10:02:15.999Z</time></trkpt><trkpt lat="47.730618918346195" lon="-1.7839272931821712"><ele>33.333333333333336</ele><time>2026-03-26T10:02:16.999Z</time></trkpt><trkpt lat="47.7306186716442" lon="-1.7836772690419587"><ele>34.0</ele><time>2026-03-26T10:02:17.999Z</time></trkpt><trkpt lat="47.73061003351086" lon="-1.7834651813680118"><ele>34.66666666666667</ele><time>2026-03-26T10:02:18.999Z</time></trkpt><trkpt lat="47.730599940927725" lon="-1.7832925623604048"><ele>35.333333333333336</ele><time>2026-03-26T10:02:19.999Z</time></trkpt><trkpt lat="47.73060020818323" lon="-1.7831454502723252"><ele>36.0</ele><time>2026-03-26T10:02:20.999Z</time></trkpt><trkpt lat="47.730602002083174" lon="-1.7830136808903563"><ele>36.666666666666664</ele><time>2026-03-26T10:02:21.999Z</time></trkpt><trkpt lat="47.73060923909183" lon="-1.7829042937452628"><ele>37.33333333333333</ele><time>2026-03-26T10:02:22.999Z</time></trkpt><trkpt lat="47.73061359558341" lon="-1.782808481779818"><ele>38.0</ele><time>2026-03-26T10:02:23.999Z</time></trkpt><trkpt lat="47.73064212607553" lon="-1.7826595435207913"><ele>38.0</ele><time>2026-03-26T10:02:25.999Z</time></trkpt><trkpt lat="47.73067306294213" lon="-1.7825457291107716"><ele>38.0</ele><time>2026-03-26T10:02:27.999Z</time></trkpt><trkpt lat="47.730610834795726" lon="-1.7826590029048548"><ele>38.0</ele><time>2026-03-26T10:02:34.999Z</time></trkpt><trkpt lat="47.730615517897" lon="-1.7827651737846706"><ele>38.0</ele><time>2026-03-26T10:02:35.999Z</time></trkpt><trkpt lat="47.73060121099196" lon="-1.782864432943397"><ele>38.0</ele><time>2026-03-26T10:02:36.999Z</time></trkpt><trkpt lat="47.73058515783445" lon="-1.782979335131309"><ele>38.0</ele><time>2026-03-26T10:02:37.999Z</time></trkpt><trkpt lat="47.730583579858674" lon="-1.7831122935570263"><ele>38.0</ele><time>2026-03-26T10:02:38.999Z</time></trkpt><trkpt lat="47.73059292771707" lon="-1.783282284209044"><ele>38.0</ele><time>2026-03-26T10:02:39.999Z</time></trkpt><trkpt lat="47.73060769844611" lon="-1.7834410987297247"><ele>38.0</ele><time>2026-03-26T10:02:40.999Z</time></trkpt><trkpt lat="47.73060566606322" lon="-1.783583681416175"><ele>38.0</ele><time>2026-03-26T10:02:41.999Z</time></trkpt><trkpt lat="47.730603450874256" lon="-1.7837452464493198"><ele>38.0</ele><time>2026-03-26T10:02:42.999Z</time></trkpt><trkpt lat="47.73060233027002" lon="-1.7839138712756761"><ele>37.0</ele><time>2026-03-26T10:02:43.999Z</time></trkpt><trkpt lat="47.73060845472048" lon="-1.7841021283647525"><ele>36.0</ele><time>2026-03-26T10:02:44.999Z</time></trkpt><trkpt lat="47.7306142478149" lon="-1.784293097805843"><ele>35.0</ele><time>2026-03-26T10:02:45.999Z</time></trkpt><trkpt lat="47.73061439736684" lon="-1.78450805372858"><ele>34.0</ele><time>2026-03-26T10:02:46.999Z</time></trkpt><trkpt lat="47.730616992431706" lon="-1.784706016930397"><ele>33.5</ele><time>2026-03-26T10:02:47.999Z</time></trkpt><trkpt lat="47.73062385383175" lon="-1.784902784019059"><ele>33.0</ele><time>2026-03-26T10:02:48.999Z</time></trkpt><trkpt lat="47.73062450395624" lon="-1.7851026521651472"><ele>32.5</ele><time>2026-03-26T10:02:49.999Z</time></trkpt><trkpt lat="47.73062119966783" lon="-1.7852842861621474"><ele>32.0</ele><time>2026-03-26T10:02:50.999Z</time></trkpt><trkpt lat="47.7306159472192" lon="-1.7854522569049964"><ele>31.8</ele><time>2026-03-26T10:02:51.999Z</time></trkpt><trkpt lat="47.73060040899617" lon="-1.7856251870573934"><ele>31.6</ele><time>2026-03-26T10:02:52.999Z</time></trkpt><trkpt lat="47.73056538601849" lon="-1.7858024772614471"><ele>31.400000000000002</ele><time>2026-03-26T10:02:53.999Z</time></trkpt><trkpt lat="47.730536497287055" lon="-1.7859413276041238"><ele>31.200000000000003</ele><time>2026-03-26T10:02:54.999Z</time></trkpt><trkpt lat="47.7305066747223" lon="-1.7860743239801942"><ele>31.0</ele><time>2026-03-26T10:02:55.999Z</time></trkpt><trkpt lat="47.73047890872592" lon="-1.7861713316438286"><ele>30.833333333333336</ele><time>2026-03-26T10:02:56.999Z</time></trkpt><trkpt lat="47.730447170929125" lon="-1.786267350479087"><ele>30.666666666666668</ele><time>2026-03-26T10:02:57.999Z</time></trkpt><trkpt lat="47.7304239113093" lon="-1.7863598044564217"><ele>30.5</ele><time>2026-03-26T10:02:58.998Z</time></trkpt><trkpt lat="47.730430705953815" lon="-1.7864671810596942"><ele>30.333333333333336</ele><time>2026-03-26T10:02:59.998Z</time></trkpt><trkpt lat="47.73040537173844" lon="-1.7866000606425803"><ele>30.166666666666668</ele><time>2026-03-26T10:03:00.998Z</time></trkpt><trkpt lat="47.730374696925246" lon="-1.786760951890595"><ele>30.0</ele><time>2026-03-26T10:03:01.998Z</time></trkpt><trkpt lat="47.7303457805514" lon="-1.786932710846931"><ele>29.75</ele><time>2026-03-26T10:03:02.998Z</time></trkpt><trkpt lat="47.73030924888239" lon="-1.7871206617220934"><ele>29.5</ele><time>2026-03-26T10:03:03.998Z</time></trkpt><trkpt lat="47.73027890076611" lon="-1.7873270724633332"><ele>29.25</ele><time>2026-03-26T10:03:04.998Z</time></trkpt><trkpt lat="47.73025443914787" lon="-1.7875304441662565"><ele>29.0</ele><time>2026-03-26T10:03:05.998Z</time></trkpt><trkpt lat="47.73022766226488" lon="-1.787754972940536"><ele>29.25</ele><time>2026-03-26T10:03:06.998Z</time></trkpt><trkpt lat="47.73020128786838" lon="-1.7879643380211219"><ele>29.5</ele><time>2026-03-26T10:03:07.998Z</time></trkpt><trkpt lat="47.73017858930766" lon="-1.7881871394102857"><ele>29.75</ele><time>2026-03-26T10:03:08.998Z</time></trkpt><trkpt lat="47.73015950274366" lon="-1.7884004563400466"><ele>30.0</ele><time>2026-03-26T10:03:09.998Z</time></trkpt><trkpt lat="47.730133586053675" lon="-1.7886359652946375"><ele>30.0</ele><time>2026-03-26T10:03:10.998Z</time></trkpt><trkpt lat="47.73011353796548" lon="-1.7888425793440077"><ele>30.0</ele><time>2026-03-26T10:03:11.998Z</time></trkpt><trkpt lat="47.73009960051031" lon="-1.7890714758970296"><ele>30.0</ele><time>2026-03-26T10:03:12.998Z</time></trkpt><trkpt lat="47.730099138986155" lon="-1.789277384884468"><ele>30.0</ele><time>2026-03-26T10:03:13.998Z</time></trkpt><trkpt lat="47.73010640987903" lon="-1.7894961660981272"><ele>30.0</ele><time>2026-03-26T10:03:14.998Z</time></trkpt><trkpt lat="47.73011588496653" lon="-1.789711962320101"><ele>30.0</ele><time>2026-03-26T10:03:15.998Z</time></trkpt><trkpt lat="47.73012355993763" lon="-1.7899100923858586"><ele>30.0</ele><time>2026-03-26T10:03:16.998Z</time></trkpt><trkpt lat="47.73012904175308" lon="-1.790083223488519"><ele>30.0</ele><time>2026-03-26T10:03:17.998Z</time></trkpt><trkpt lat="47.73013633279015" lon="-1.7902495040610835"><ele>30.0</ele><time>2026-03-26T10:03:18.998Z</time></trkpt><trkpt lat="47.73014430126535" lon="-1.7904204138170137"><ele>30.0</ele><time>2026-03-26T10:03:19.998Z</time></trkpt><trkpt lat="47.73015105806528" lon="-1.79059233842415"><ele>30.0</ele><time>2026-03-26T10:03:20.998Z</time></trkpt><trkpt lat="47.73015950898418" lon="-1.7907680071719074"><ele>30.0</ele><time>2026-03-26T10:03:21.998Z</time></trkpt><trkpt lat="47.730183033797225" lon="-1.790909654205343"><ele>30.0</ele><time>2026-03-26T10:03:23Z</time></trkpt><trkpt lat="47.730194401839505" lon="-1.79102627260368"><ele>30.2</ele><time>2026-03-26T10:03:24Z</time></trkpt><trkpt lat="47.73019251587388" lon="-1.7911422404828747"><ele>30.4</ele><time>2026-03-26T10:03:25Z</time></trkpt><trkpt lat="47.730218809452644" lon="-1.7912503903435433"><ele>30.6</ele><time>2026-03-26T10:03:26Z</time></trkpt><trkpt lat="47.73021809680873" lon="-1.7913801118565116"><ele>30.8</ele><time>2026-03-26T10:03:27Z</time></trkpt><trkpt lat="47.730229269760194" lon="-1.7915197470122328"><ele>31.0</ele><time>2026-03-26T10:03:28Z</time></trkpt><trkpt lat="47.73023829910378" lon="-1.7916865336528685"><ele>31.25</ele><time>2026-03-26T10:03:29Z</time></trkpt><trkpt lat="47.73019147892079" lon="-1.7918584838693898"><ele>31.5</ele><time>2026-03-26T10:03:30Z</time></trkpt><trkpt lat="47.730154281808375" lon="-1.792038526254509"><ele>31.75</ele><time>2026-03-26T10:03:31Z</time></trkpt><trkpt lat="47.73011201181411" lon="-1.7922212068696515"><ele>32.0</ele><time>2026-03-26T10:03:32Z</time></trkpt><trkpt lat="47.73006782981117" lon="-1.7923698841035884"><ele>31.999999999999996</ele><time>2026-03-26T10:03:33Z</time></trkpt><trkpt lat="47.73004793950239" lon="-1.7925107474055553"><ele>32.0</ele><time>2026-03-26T10:03:34Z</time></trkpt><trkpt lat="47.73006839496538" lon="-1.79263298040721"><ele>32.0</ele><time>2026-03-26T10:03:35Z</time></trkpt><trkpt lat="47.73008593939502" lon="-1.7927307931945642"><ele>32.0</ele><time>2026-03-26T10:03:36Z</time></trkpt><trkpt lat="47.73012472337002" lon="-1.7928981650193103"><ele>31.999999999999996</ele><time>2026-03-26T10:03:38Z</time></trkpt><trkpt lat="47.73019599606402" lon="-1.7929341758569592"><ele>32.0</ele><time>2026-03-26T10:03:39Z</time></trkpt><trkpt lat="47.73027184743608" lon="-1.7929663655835388"><ele>31.6</ele><time>2026-03-26T10:03:40Z</time></trkpt><trkpt lat="47.73035352222519" lon="-1.7930596798425602"><ele>31.200000000000003</ele><time>2026-03-26T10:03:41Z</time></trkpt><trkpt lat="47.73041118078871" lon="-1.7931849216764237"><ele>30.8</ele><time>2026-03-26T10:03:42Z</time></trkpt><trkpt lat="47.73045821265547" lon="-1.793345824830177"><ele>30.4</ele><time>2026-03-26T10:03:43Z</time></trkpt><trkpt lat="47.730473967130116" lon="-1.7935317281722383"><ele>30.0</ele><time>2026-03-26T10:03:44Z</time></trkpt><trkpt lat="47.73047729760986" lon="-1.7937345465237045"><ele>30.0</ele><time>2026-03-26T10:03:45Z</time></trkpt><trkpt lat="47.73050701621936" lon="-1.7939041227750887"><ele>30.0</ele><time>2026-03-26T10:03:46Z</time></trkpt><trkpt lat="47.73052122648085" lon="-1.7940728209973895"><ele>30.0</ele><time>2026-03-26T10:03:47Z</time></trkpt><trkpt lat="47.730510146061754" lon="-1.7942684531861894"><ele>30.0</ele><time>2026-03-26T10:03:48Z</time></trkpt><trkpt lat="47.73052823638128" lon="-1.7944638533168586"><ele>30.2</ele><time>2026-03-26T10:03:49Z</time></trkpt><trkpt lat="47.73053861521812" lon="-1.7946591778669152"><ele>30.4</ele><time>2026-03-26T10:03:50Z</time></trkpt><trkpt lat="47.730557485470754" lon="-1.7948363978543913"><ele>30.6</ele><time>2026-03-26T10:03:51Z</time></trkpt><trkpt lat="47.730619344209686" lon="-1.7949581495471076"><ele>30.8</ele><time>2026-03-26T10:03:52Z</time></trkpt><trkpt lat="47.73067428809632" lon="-1.7950700057198845"><ele>31.0</ele><time>2026-03-26T10:03:53Z</time></trkpt><trkpt lat="47.730758365759826" lon="-1.7950936728406308"><ele>31.0</ele><time>2026-03-26T10:03:54Z</time></trkpt><trkpt lat="47.73083359945957" lon="-1.795166551830857"><ele>31.0</ele><time>2026-03-26T10:03:55Z</time></trkpt><trkpt lat="47.73089450683109" lon="-1.7952625507030413"><ele>31.0</ele><time>2026-03-26T10:03:56Z</time></trkpt><trkpt lat="47.730956992141095" lon="-1.7954200387280261"><ele>31.0</ele><time>2026-03-26T10:03:57Z</time></trkpt><trkpt lat="47.73096699407666" lon="-1.7956215170382779"><ele>31.0</ele><time>2026-03-26T10:03:58Z</time></trkpt><trkpt lat="47.730989496077974" lon="-1.7958288530917697"><ele>31.0</ele><time>2026-03-26T10:03:59Z</time></trkpt><trkpt lat="47.73100366562033" lon="-1.7960277971942864"><ele>31.0</ele><time>2026-03-26T10:04:00Z</time></trkpt><trkpt lat="47.731024036881536" lon="-1.7962258196932035"><ele>31.0</ele><time>2026-03-26T10:04:01Z</time></trkpt><trkpt lat="47.73104717579148" lon="-1.796422952234139"><ele>31.0</ele><time>2026-03-26T10:04:02Z</time></trkpt><trkpt lat="47.73106501221195" lon="-1.7965462289901954"><ele>30.4</ele><time>2026-03-26T10:04:03Z</time></trkpt><trkpt lat="47.73109208518858" lon="-1.7966826359176569"><ele>29.8</ele><time>2026-03-26T10:04:04Z</time></trkpt><trkpt lat="47.731125415942515" lon="-1.7967766126990614"><ele>29.199999999999996</ele><time>2026-03-26T10:04:05Z</time></trkpt><trkpt lat="47.73113504711322" lon="-1.7968785598370967"><ele>28.599999999999998</ele><time>2026-03-26T10:04:06Z</time></trkpt><trkpt lat="47.731327758485605" lon="-1.7967799499845243"><ele>28.0</ele><time>2026-03-26T10:04:07Z</time></trkpt><trkpt lat="47.73144062348953" lon="-1.7968062412263526"><ele>28.0</ele><time>2026-03-26T10:04:07.999Z</time></trkpt><trkpt lat="47.731597551203315" lon="-1.7968627314459236"><ele>28.0</ele><time>2026-03-26T10:04:08.999Z</time></trkpt><trkpt lat="47.73174283863282" lon="-1.7969190942554918"><ele>28.0</ele><time>2026-03-26T10:04:09.999Z</time></trkpt><trkpt lat="47.73187279255012" lon="-1.7969661646338468"><ele>28.0</ele><time>2026-03-26T10:04:10.999Z</time></trkpt><trkpt lat="47.73203281186221" lon="-1.7970209574336005"><ele>27.666666666666668</ele><time>2026-03-26T10:04:11.999Z</time></trkpt><trkpt lat="47.7322070824051" lon="-1.7971043322578588"><ele>27.333333333333336</ele><time>2026-03-26T10:04:12.999Z</time></trkpt><trkpt lat="47.73236770330366" lon="-1.7971569983594327"><ele>27.0</ele><time>2026-03-26T10:04:13.999Z</time></trkpt><trkpt lat="47.73253349393966" lon="-1.797221717220305"><ele>27.0</ele><time>2026-03-26T10:04:14.999Z</time></trkpt><trkpt lat="47.73267603677291" lon="-1.7972649912513603"><ele>27.0</ele><time>2026-03-26T10:04:15.999Z</time></trkpt><trkpt lat="47.73280972084644" lon="-1.797320336129917"><ele>27.0</ele><time>2026-03-26T10:04:16.999Z</time></trkpt><trkpt lat="47.73292381502995" lon="-1.7973646000896168"><ele>27.0</ele><time>2026-03-26T10:04:17.999Z</time></trkpt><trkpt lat="47.73303942022097" lon="-1.7973923518491894"><ele>27.200000000000003</ele><time>2026-03-26T10:04:18.999Z</time></trkpt><trkpt lat="47.73314295062042" lon="-1.7974329523274604"><ele>27.400000000000002</ele><time>2026-03-26T10:04:19.999Z</time></trkpt><trkpt lat="47.73322760639436" lon="-1.7974730204332126"><ele>27.599999999999998</ele><time>2026-03-26T10:04:20.999Z</time></trkpt><trkpt lat="47.733283358684766" lon="-1.79759585777203"><ele>27.799999999999997</ele><time>2026-03-26T10:04:21.999Z</time></trkpt><trkpt lat="47.73332214849493" lon="-1.7977250994982341"><ele>28.0</ele><time>2026-03-26T10:04:22.999Z</time></trkpt><trkpt lat="47.73334665227389" lon="-1.79787732710058"><ele>28.0</ele><time>2026-03-26T10:04:23.999Z</time></trkpt><trkpt lat="47.73340317131887" lon="-1.798023130242959"><ele>28.0</ele><time>2026-03-26T10:04:24.999Z</time></trkpt><trkpt lat="47.73349248032479" lon="-1.7981341280820455"><ele>28.0</ele><time>2026-03-26T10:04:25.999Z</time></trkpt><trkpt lat="47.73360671210056" lon="-1.7981514633217106"><ele>28.0</ele><time>2026-03-26T10:04:26.999Z</time></trkpt><trkpt lat="47.733702102338206" lon="-1.7980787375719158"><ele>27.25</ele><time>2026-03-26T10:04:27.999Z</time></trkpt><trkpt lat="47.73379949460768" lon="-1.7980418822707689"><ele>26.5</ele><time>2026-03-26T10:04:28.999Z</time></trkpt><trkpt lat="47.73393662276777" lon="-1.797987376134032"><ele>25.75</ele><time>2026-03-26T10:04:29.999Z</time></trkpt><trkpt lat="47.73406956351603" lon="-1.7979308008599666"><ele>25.0</ele><time>2026-03-26T10:04:30.999Z</time></trkpt><trkpt lat="47.734265181436555" lon="-1.7978513747835074"><ele>25.0</ele><time>2026-03-26T10:04:31.999Z</time></trkpt><trkpt lat="47.73443102928875" lon="-1.797807388327887"><ele>25.0</ele><time>2026-03-26T10:04:32.999Z</time></trkpt><trkpt lat="47.73456618311172" lon="-1.7977296343767926"><ele>25.0</ele><time>2026-03-26T10:04:33.999Z</time></trkpt><trkpt lat="47.73470614289974" lon="-1.7976800403192728"><ele>25.0</ele><time>2026-03-26T10:04:34.999Z</time></trkpt><trkpt lat="47.73486339982538" lon="-1.7976689633224965"><ele>25.0</ele><time>2026-03-26T10:04:35.999Z</time></trkpt><trkpt lat="47.73502891631514" lon="-1.797677023406617"><ele>25.0</ele><time>2026-03-26T10:04:36.999Z</time></trkpt><trkpt lat="47.73517315068402" lon="-1.797673055958104"><ele>26.0</ele><time>2026-03-26T10:04:37.999Z</time></trkpt><trkpt lat="47.735345018148166" lon="-1.797664093767353"><ele>27.0</ele><time>2026-03-26T10:04:38.999Z</time></trkpt><trkpt lat="47.73552032971909" lon="-1.7976541464994105"><ele>28.0</ele><time>2026-03-26T10:04:39.999Z</time></trkpt><trkpt lat="47.73570151107083" lon="-1.7976527827989166"><ele>28.0</ele><time>2026-03-26T10:04:40.999Z</time></trkpt><trkpt lat="47.73588761821525" lon="-1.7976559386472366"><ele>28.0</ele><time>2026-03-26T10:04:41.999Z</time></trkpt><trkpt lat="47.73607563940469" lon="-1.797641748680726"><ele>28.0</ele><time>2026-03-26T10:04:42.999Z</time></trkpt><trkpt lat="47.73627105616609" lon="-1.7976280022164561"><ele>29.5</ele><time>2026-03-26T10:04:43.999Z</time></trkpt><trkpt lat="47.73644295127481" lon="-1.7976200757501104"><ele>31.0</ele><time>2026-03-26T10:04:44.999Z</time></trkpt><trkpt lat="47.73658048815438" lon="-1.797621330374971"><ele>32.5</ele><time>2026-03-26T10:04:45.999Z</time></trkpt><trkpt lat="47.7367097256721" lon="-1.7976253210227113"><ele>34.0</ele><time>2026-03-26T10:04:46.999Z</time></trkpt><trkpt lat="47.73682311839656" lon="-1.7976280603114518"><ele>34.833333333333336</ele><time>2026-03-26T10:04:47.999Z</time></trkpt><trkpt lat="47.73692533737224" lon="-1.797608535828012"><ele>35.66666666666667</ele><time>2026-03-26T10:04:48.999Z</time></trkpt><trkpt lat="47.73700658262756" lon="-1.7976155221508316"><ele>36.5</ele><time>2026-03-26T10:04:49.999Z</time></trkpt><trkpt lat="47.737078492660956" lon="-1.7976290001863735"><ele>37.333333333333336</ele><time>2026-03-26T10:04:50.999Z</time></trkpt><trkpt lat="47.73717615646092" lon="-1.7976671965926119"><ele>38.166666666666664</ele><time>2026-03-26T10:04:52.999Z</time></trkpt><trkpt lat="47.7372551526252" lon="-1.797725153078301"><ele>39.0</ele><time>2026-03-26T10:04:54.999Z</time></trkpt><trkpt lat="47.73719663311818" lon="-1.7976528525189273"><ele>39.0</ele><time>2026-03-26T10:05:02.999Z</time></trkpt><trkpt lat="47.73713388559781" lon="-1.797487684976223"><ele>39.0</ele><time>2026-03-26T10:05:03.999Z</time></trkpt><trkpt lat="47.737146201494475" lon="-1.7972534856756814"><ele>39.0</ele><time>2026-03-26T10:05:04.999Z</time></trkpt><trkpt lat="47.73712311186544" lon="-1.797089874649051"><ele>39.0</ele><time>2026-03-26T10:05:05.999Z</time></trkpt><trkpt lat="47.73710186724105" lon="-1.7969402099245517"><ele>39.25</ele><time>2026-03-26T10:05:06.999Z</time></trkpt><trkpt lat="47.73707664417051" lon="-1.7967870962322066"><ele>39.5</ele><time>2026-03-26T10:05:07.999Z</time></trkpt><trkpt lat="47.737058034451195" lon="-1.7966176865008434"><ele>39.75</ele><time>2026-03-26T10:05:08.998Z</time></trkpt><trkpt lat="47.73705240166485" lon="-1.7964329061250157"><ele>40.0</ele><time>2026-03-26T10:05:09.998Z</time></trkpt><trkpt lat="47.737048508830256" lon="-1.7962510854365366"><ele>40.0</ele><time>2026-03-26T10:05:10.998Z</time></trkpt><trkpt lat="47.73706777827279" lon="-1.7960447752921933"><ele>40.0</ele><time>2026-03-26T10:05:11.998Z</time></trkpt><trkpt lat="47.73707863873189" lon="-1.7958270731929735"><ele>40.0</ele><time>2026-03-26T10:05:12.998Z</time></trkpt><trkpt lat="47.737102138831055" lon="-1.7955927307755433"><ele>40.0</ele><time>2026-03-26T10:05:13.998Z</time></trkpt><trkpt lat="47.73711680142574" lon="-1.7953661249572965"><ele>41.66666666666667</ele><time>2026-03-26T10:05:14.998Z</time></trkpt><trkpt lat="47.73712935370404" lon="-1.795143094755364"><ele>43.333333333333336</ele><time>2026-03-26T10:05:15.998Z</time></trkpt><trkpt lat="47.73714433803841" lon="-1.7948941789375297"><ele>45.0</ele><time>2026-03-26T10:05:16.998Z</time></trkpt><trkpt lat="47.73715593282095" lon="-1.7946962911965056"><ele>45.0</ele><time>2026-03-26T10:05:17.998Z</time></trkpt><trkpt lat="47.73717090587066" lon="-1.7945430053155125"><ele>45.0</ele><time>2026-03-26T10:05:18.998Z</time></trkpt><trkpt lat="47.7371853493402" lon="-1.7944253782236521"><ele>45.0</ele><time>2026-03-26T10:05:19.998Z</time></trkpt><trkpt lat="47.73719649632154" lon="-1.7942568557410232"><ele>45.0</ele><time>2026-03-26T10:05:21.998Z</time></trkpt><trkpt lat="47.73720197349317" lon="-1.7941234989898402"><ele>45.0</ele><time>2026-03-26T10:05:23.998Z</time></trkpt><trkpt lat="47.73720619540455" lon="-1.793976219496815"><ele>45.2</ele><time>2026-03-26T10:05:25.998Z</time></trkpt><trkpt lat="47.73719517249928" lon="-1.7938063621694886"><ele>45.4</ele><time>2026-03-26T10:05:27.998Z</time></trkpt><trkpt lat="47.73718520919405" lon="-1.7937113585494608"><ele>45.599999999999994</ele><time>2026-03-26T10:05:29Z</time></trkpt><trkpt lat="47.73718475629391" lon="-1.7935253347533868"><ele>45.8</ele><time>2026-03-26T10:05:31Z</time></trkpt><trkpt lat="47.73717094892119" lon="-1.79333186911127"><ele>46.0</ele><time>2026-03-26T10:05:33Z</time></trkpt><trkpt lat="47.73716334821623" lon="-1.7931588304668882"><ele>46.16666666666667</ele><time>2026-03-26T10:05:35Z</time></trkpt><trkpt lat="47.737158131463616" lon="-1.7929785160491363"><ele>46.333333333333336</ele><time>2026-03-26T10:05:37Z</time></trkpt><trkpt lat="47.737160100561226" lon="-1.7928002712686875"><ele>46.5</ele><time>2026-03-26T10:05:39Z</time></trkpt><trkpt lat="47.73716251855873" lon="-1.7927054333105479"><ele>46.666666666666664</ele><time>2026-03-26T10:05:40Z</time></trkpt><trkpt lat="47.7371588373223" lon="-1.7926091754168194"><ele>46.83333333333333</ele><time>2026-03-26T10:05:41Z</time></trkpt><trkpt lat="47.73715438280005" lon="-1.7925042287753328"><ele>47.0</ele><time>2026-03-26T10:05:42Z</time></trkpt><trkpt lat="47.737138695526845" lon="-1.7923847640731392"><ele>47.285714285714285</ele><time>2026-03-26T10:05:43Z</time></trkpt><trkpt lat="47.73713083069513" lon="-1.79227709991222"><ele>47.57142857142857</ele><time>2026-03-26T10:05:44Z</time></trkpt><trkpt lat="47.73713325836873" lon="-1.7921640909727226"><ele>47.85714285714286</ele><time>2026-03-26T10:05:45Z</time></trkpt><trkpt lat="47.73713433127941" lon="-1.792063931569592"><ele>48.14285714285714</ele><time>2026-03-26T10:05:46Z</time></trkpt><trkpt lat="47.73712390858457" lon="-1.7919618362935388"><ele>48.42857142857143</ele><time>2026-03-26T10:05:47Z</time></trkpt><trkpt lat="47.73712449774136" lon="-1.791862357750765"><ele>48.714285714285715</ele><time>2026-03-26T10:05:48Z</time></trkpt><trkpt lat="47.73711815880131" lon="-1.791744344406842"><ele>49.0</ele><time>2026-03-26T10:05:49Z</time></trkpt><trkpt lat="47.73711570710019" lon="-1.7916262314881544"><ele>48.99999999999999</ele><time>2026-03-26T10:05:50Z</time></trkpt><trkpt lat="47.73711862984302" lon="-1.7914932292509915"><ele>49.0</ele><time>2026-03-26T10:05:51Z</time></trkpt><trkpt lat="47.737119498179815" lon="-1.7913838534519253"><ele>49.0</ele><time>2026-03-26T10:05:52Z</time></trkpt><trkpt lat="47.737109960582146" lon="-1.7912799458487467"><ele>49.0</ele><time>2026-03-26T10:05:53Z</time></trkpt><trkpt lat="47.73709971319636" lon="-1.7911574050305257"><ele>48.99999999999999</ele><time>2026-03-26T10:05:54Z</time></trkpt><trkpt lat="47.73706955078614" lon="-1.7910380467351754"><ele>49.0</ele><time>2026-03-26T10:05:55Z</time></trkpt><trkpt lat="47.73706679224327" lon="-1.7909188196030887"><ele>49.166666666666664</ele><time>2026-03-26T10:05:56Z</time></trkpt><trkpt lat="47.73705929565527" lon="-1.7908015477943204"><ele>49.33333333333333</ele><time>2026-03-26T10:05:57Z</time></trkpt><trkpt lat="47.737050857156284" lon="-1.7906933711958328"><ele>49.5</ele><time>2026-03-26T10:05:58Z</time></trkpt><trkpt lat="47.73705649556743" lon="-1.790573009177285"><ele>49.66666666666667</ele><time>2026-03-26T10:05:59Z</time></trkpt><trkpt lat="47.737043545278596" lon="-1.790454729036958"><ele>49.833333333333336</ele><time>2026-03-26T10:06:00Z</time></trkpt><trkpt lat="47.737040042714106" lon="-1.7903407747759614"><ele>50.0</ele><time>2026-03-26T10:06:01Z</time></trkpt><trkpt lat="47.737020765677684" lon="-1.7902301570320605"><ele>49.833333333333336</ele><time>2026-03-26T10:06:02Z</time></trkpt><trkpt lat="47.73701033779478" lon="-1.7901335851166857"><ele>49.66666666666667</ele><time>2026-03-26T10:06:03Z</time></trkpt><trkpt lat="47.73699959073357" lon="-1.7900383341715485"><ele>49.5</ele><time>2026-03-26T10:06:04Z</time></trkpt><trkpt lat="47.73699347100834" lon="-1.7898502111101657"><ele>49.33333333333333</ele><time>2026-03-26T10:06:06Z</time></trkpt><trkpt lat="47.73697999047652" lon="-1.789755347346776"><ele>49.166666666666664</ele><time>2026-03-26T10:06:07Z</time></trkpt><trkpt lat="47.736971483962236" lon="-1.789598586547883"><ele>49.0</ele><time>2026-03-26T10:06:09Z</time></trkpt><trkpt lat="47.736946611543964" lon="-1.7894934183990776"><ele>49.0</ele><time>2026-03-26T10:06:10.999Z</time></trkpt><trkpt lat="47.73707081214768" lon="-1.7894465718807662"><ele>49.0</ele><time>2026-03-26T10:06:12.999Z</time></trkpt><trkpt lat="47.737200221609534" lon="-1.789447982746271"><ele>49.0</ele><time>2026-03-26T10:06:14.999Z</time></trkpt><trkpt lat="47.73729158374759" lon="-1.7894512298877534"><ele>49.0</ele><time>2026-03-26T10:06:15.999Z</time></trkpt><trkpt lat="47.73737390487445" lon="-1.7894305637046035"><ele>49.0</ele><time>2026-03-26T10:06:16.999Z</time></trkpt><trkpt lat="47.737445999249836" lon="-1.7894331282107858"><ele>49.0</ele><time>2026-03-26T10:06:17.999Z</time></trkpt><trkpt lat="47.73753668422815" lon="-1.789425179439325"><ele>49.0</ele><time>2026-03-26T10:06:18.999Z</time></trkpt><trkpt lat="47.737629466931324" lon="-1.789402083657738"><ele>49.0</ele><time>2026-03-26T10:06:19.999Z</time></trkpt><trkpt lat="47.737741533269954" lon="-1.789393834420637"><ele>49.0</ele><time>2026-03-26T10:06:20.999Z</time></trkpt><trkpt lat="47.7378756643347" lon="-1.78937935711163"><ele>49.0</ele><time>2026-03-26T10:06:21.999Z</time></trkpt><trkpt lat="47.73800049806611" lon="-1.7893625157826079"><ele>49.75</ele><time>2026-03-26T10:06:22.999Z</time></trkpt><trkpt lat="47.73813460007855" lon="-1.7893584091256611"><ele>50.5</ele><time>2026-03-26T10:06:23.999Z</time></trkpt><trkpt lat="47.73826380396144" lon="-1.7893083907279534"><ele>51.25</ele><time>2026-03-26T10:06:24.999Z</time></trkpt><trkpt lat="47.738388533763725" lon="-1.7892671951032737"><ele>52.0</ele><time>2026-03-26T10:06:25.999Z</time></trkpt><trkpt lat="47.73850620449788" lon="-1.789193526363828"><ele>52.6</ele><time>2026-03-26T10:06:26.999Z</time></trkpt><trkpt lat="47.73861189564876" lon="-1.78910477859033"><ele>53.2</ele><time>2026-03-26T10:06:27.999Z</time></trkpt><trkpt lat="47.73869417697491" lon="-1.7890381578177899"><ele>53.8</ele><time>2026-03-26T10:06:28.999Z</time></trkpt><trkpt lat="47.738768629225625" lon="-1.7889778760656356"><ele>54.4</ele><time>2026-03-26T10:06:29.999Z</time></trkpt><trkpt lat="47.7388401090058" lon="-1.7889458126174538"><ele>55.0</ele><time>2026-03-26T10:06:30.999Z</time></trkpt><trkpt lat="47.73889727213064" lon="-1.788858556220057"><ele>55.0</ele><time>2026-03-26T10:06:32.999Z</time></trkpt><trkpt lat="47.73897499464752" lon="-1.7888355505996036"><ele>55.0</ele><time>2026-03-26T10:06:34.999Z</time></trkpt><trkpt lat="47.73891122465378" lon="-1.788607444147543"><ele>55.0</ele><time>2026-03-26T10:06:42.999Z</time></trkpt><trkpt lat="47.73888087558852" lon="-1.788512397489942"><ele>55.0</ele><time>2026-03-26T10:06:43.999Z</time></trkpt><trkpt lat="47.73883108747052" lon="-1.7884289803698243"><ele>55.0</ele><time>2026-03-26T10:06:44.999Z</time></trkpt><trkpt lat="47.738798666029275" lon="-1.78830875195195"><ele>54.4</ele><time>2026-03-26T10:06:45.999Z</time></trkpt><trkpt lat="47.738746530723695" lon="-1.7881850636286558"><ele>53.8</ele><time>2026-03-26T10:06:46.999Z</time></trkpt><trkpt lat="47.73869212996447" lon="-1.7880697710410272"><ele>53.2</ele><time>2026-03-26T10:06:47.999Z</time></trkpt><trkpt lat="47.73863380104937" lon="-1.78795305584028"><ele>52.6</ele><time>2026-03-26T10:06:48.999Z</time></trkpt><trkpt lat="47.73856453679875" lon="-1.7877857488454019"><ele>52.0</ele><time>2026-03-26T10:06:49.999Z</time></trkpt><trkpt lat="47.73845584238688" lon="-1.7876278190387684"><ele>51.0</ele><time>2026-03-26T10:06:50.999Z</time></trkpt><trkpt lat="47.73836702804117" lon="-1.7874407268321577"><ele>50.0</ele><time>2026-03-26T10:06:51.999Z</time></trkpt><trkpt lat="47.738266429996195" lon="-1.7872616704965654"><ele>49.0</ele><time>2026-03-26T10:06:52.999Z</time></trkpt><trkpt lat="47.738165030080296" lon="-1.787099565641667"><ele>49.0</ele><time>2026-03-26T10:06:53.999Z</time></trkpt><trkpt lat="47.73805920461887" lon="-1.7869144531612298"><ele>49.0</ele><time>2026-03-26T10:06:54.999Z</time></trkpt><trkpt lat="47.73794800179665" lon="-1.786743804264333"><ele>49.0</ele><time>2026-03-26T10:06:55.999Z</time></trkpt><trkpt lat="47.73785552505294" lon="-1.7865675049108656"><ele>48.0</ele><time>2026-03-26T10:06:56.999Z</time></trkpt><trkpt lat="47.73772513036547" lon="-1.7863970731439933"><ele>47.0</ele><time>2026-03-26T10:06:57.999Z</time></trkpt><trkpt lat="47.73760726110167" lon="-1.7862123649944506"><ele>46.0</ele><time>2026-03-26T10:06:58.999Z</time></trkpt><trkpt lat="47.737506660245366" lon="-1.786054756882441"><ele>44.333333333333336</ele><time>2026-03-26T10:06:59.999Z</time></trkpt><trkpt lat="47.737389259622475" lon="-1.7858526643749226"><ele>42.666666666666664</ele><time>2026-03-26T10:07:00.999Z</time></trkpt><trkpt lat="47.73727553270288" lon="-1.7856872657370944"><ele>41.0</ele><time>2026-03-26T10:07:01.999Z</time></trkpt><trkpt lat="47.7371605042721" lon="-1.7855121803666871"><ele>41.0</ele><time>2026-03-26T10:07:02.999Z</time></trkpt><trkpt lat="47.73704191696465" lon="-1.78532506178741"><ele>41.0</ele><time>2026-03-26T10:07:03.999Z</time></trkpt><trkpt lat="47.73691937268531" lon="-1.7851318823267"><ele>41.0</ele><time>2026-03-26T10:07:04.999Z</time></trkpt><trkpt lat="47.73678478108232" lon="-1.7849216623027793"><ele>41.0</ele><time>2026-03-26T10:07:05.999Z</time></trkpt><trkpt lat="47.73665059147289" lon="-1.7847120700837695"><ele>41.0</ele><time>2026-03-26T10:07:06.999Z</time></trkpt><trkpt lat="47.7365151303496" lon="-1.7844999296017943"><ele>41.0</ele><time>2026-03-26T10:07:07.999Z</time></trkpt><trkpt lat="47.736373673627696" lon="-1.7842779467338044"><ele>40.33333333333333</ele><time>2026-03-26T10:07:08.999Z</time></trkpt><trkpt lat="47.736239329433936" lon="-1.7840671252545914"><ele>39.666666666666664</ele><time>2026-03-26T10:07:09.999Z</time></trkpt><trkpt lat="47.73610802099161" lon="-1.7838608350080363"><ele>39.0</ele><time>2026-03-26T10:07:10.998Z</time></trkpt><trkpt lat="47.73597971670147" lon="-1.783659214071162"><ele>39.333333333333336</ele><time>2026-03-26T10:07:11.998Z</time></trkpt><trkpt lat="47.73584815540792" lon="-1.7834524747984946"><ele>39.66666666666667</ele><time>2026-03-26T10:07:12.998Z</time></trkpt><trkpt lat="47.73571550557307" lon="-1.7832467086309176"><ele>40.0</ele><time>2026-03-26T10:07:13.998Z</time></trkpt><trkpt lat="47.73558073253166" lon="-1.7830384290273555"><ele>40.0</ele><time>2026-03-26T10:07:14.998Z</time></trkpt><trkpt lat="47.73544085305928" lon="-1.7828222578312625"><ele>40.0</ele><time>2026-03-26T10:07:15.998Z</time></trkpt><trkpt lat="47.735311367491455" lon="-1.7825863872953398"><ele>40.0</ele><time>2026-03-26T10:07:16.998Z</time></trkpt><trkpt lat="47.73517846960287" lon="-1.782358852794858"><ele>38.66666666666667</ele><time>2026-03-26T10:07:17.998Z</time></trkpt><trkpt lat="47.73504859424289" lon="-1.7821227018683432"><ele>37.333333333333336</ele><time>2026-03-26T10:07:18.998Z</time></trkpt><trkpt lat="47.734921749781755" lon="-1.7818944700351629"><ele>36.0</ele><time>2026-03-26T10:07:19.998Z</time></trkpt><trkpt lat="47.734808910633454" lon="-1.7816344405696947"><ele>36.0</ele><time>2026-03-26T10:07:20.998Z</time></trkpt><trkpt lat="47.73471901571823" lon="-1.7813549274410678"><ele>36.0</ele><time>2026-03-26T10:07:21.998Z</time></trkpt><trkpt lat="47.73462508519953" lon="-1.781090017290775"><ele>36.0</ele><time>2026-03-26T10:07:22.998Z</time></trkpt><trkpt lat="47.73454007954578" lon="-1.7808039014531105"><ele>36.333333333333336</ele><time>2026-03-26T10:07:23.998Z</time></trkpt><trkpt lat="47.73447505966596" lon="-1.7805213273950649"><ele>36.66666666666667</ele><time>2026-03-26T10:07:24.998Z</time></trkpt><trkpt lat="47.734414161696435" lon="-1.7802343540992813"><ele>37.0</ele><time>2026-03-26T10:07:25.998Z</time></trkpt><trkpt lat="47.734361359639955" lon="-1.779940249979204"><ele>37.0</ele><time>2026-03-26T10:07:26.998Z</time></trkpt><trkpt lat="47.73431380989171" lon="-1.7796539744031066"><ele>37.0</ele><time>2026-03-26T10:07:27.998Z</time></trkpt><trkpt lat="47.73427187449797" lon="-1.7793564616131412"><ele>37.0</ele><time>2026-03-26T10:07:28.998Z</time></trkpt><trkpt lat="47.734233332585035" lon="-1.7790554209136649"><ele>37.0</ele><time>2026-03-26T10:07:29.998Z</time></trkpt><trkpt lat="47.73418658658469" lon="-1.7787648570848777"><ele>37.0</ele><time>2026-03-26T10:07:30.998Z</time></trkpt><trkpt lat="47.734138193046824" lon="-1.778470501355869"><ele>37.0</ele><time>2026-03-26T10:07:31.998Z</time></trkpt><trkpt lat="47.73409688346391" lon="-1.7781713631084661"><ele>37.333333333333336</ele><time>2026-03-26T10:07:32.998Z</time></trkpt><trkpt lat="47.73405027838303" lon="-1.777871045618763"><ele>37.666666666666664</ele><time>2026-03-26T10:07:33.998Z</time></trkpt><trkpt lat="47.73401204745733" lon="-1.7775741927474447"><ele>38.0</ele><time>2026-03-26T10:07:35Z</time></trkpt><trkpt lat="47.73396544307328" lon="-1.7772774326606369"><ele>38.666666666666664</ele><time>2026-03-26T10:07:36Z</time></trkpt><trkpt lat="47.73392969281865" lon="-1.7769797531909506"><ele>39.333333333333336</ele><time>2026-03-26T10:07:37Z</time></trkpt><trkpt lat="47.73388701543432" lon="-1.7766815920689176"><ele>40.0</ele><time>2026-03-26T10:07:38Z</time></trkpt><trkpt lat="47.73384587680473" lon="-1.7763864423177775"><ele>40.333333333333336</ele><time>2026-03-26T10:07:39Z</time></trkpt><trkpt lat="47.73380197596517" lon="-1.7760909693755682"><ele>40.666666666666664</ele><time>2026-03-26T10:07:40Z</time></trkpt><trkpt lat="47.73375368756258" lon="-1.7757906168375932"><ele>41.0</ele><time>2026-03-26T10:07:41Z</time></trkpt><trkpt lat="47.73371328035179" lon="-1.7754870116497377"><ele>41.33333333333333</ele><time>2026-03-26T10:07:42Z</time></trkpt><trkpt lat="47.733656299093504" lon="-1.7752001497144534"><ele>41.666666666666664</ele><time>2026-03-26T10:07:43Z</time></trkpt><trkpt lat="47.733611656277944" lon="-1.7748945043399842"><ele>42.0</ele><time>2026-03-26T10:07:44Z</time></trkpt><trkpt lat="47.733567315369775" lon="-1.7745909259488275"><ele>42.0</ele><time>2026-03-26T10:07:45Z</time></trkpt><trkpt lat="47.73352464733072" lon="-1.7743022240993247"><ele>42.0</ele><time>2026-03-26T10:07:46Z</time></trkpt><trkpt lat="47.73347948665241" lon="-1.7739967321622072"><ele>42.0</ele><time>2026-03-26T10:07:47Z</time></trkpt><trkpt lat="47.733434405736794" lon="-1.7736917797965843"><ele>43.0</ele><time>2026-03-26T10:07:48Z</time></trkpt><trkpt lat="47.73340616304895" lon="-1.7733937088972416"><ele>44.0</ele><time>2026-03-26T10:07:49Z</time></trkpt><trkpt lat="47.7333570093074" lon="-1.7731083827039145"><ele>45.0</ele><time>2026-03-26T10:07:50Z</time></trkpt><trkpt lat="47.73331598519188" lon="-1.7728198877645687"><ele>45.666666666666664</ele><time>2026-03-26T10:07:51Z</time></trkpt><trkpt lat="47.73327735832863" lon="-1.772527455436273"><ele>46.33333333333333</ele><time>2026-03-26T10:07:52Z</time></trkpt><trkpt lat="47.73323585691773" lon="-1.77223383782671"><ele>47.0</ele><time>2026-03-26T10:07:53Z</time></trkpt><trkpt lat="47.73318769661245" lon="-1.7719416146897409"><ele>47.33333333333333</ele><time>2026-03-26T10:07:54Z</time></trkpt><trkpt lat="47.73314289028964" lon="-1.7716433001109513"><ele>47.666666666666664</ele><time>2026-03-26T10:07:55Z</time></trkpt><trkpt lat="47.7331007610785" lon="-1.7713484380208997"><ele>48.0</ele><time>2026-03-26T10:07:56Z</time></trkpt><trkpt lat="47.73305406618322" lon="-1.7710458551828312"><ele>48.0</ele><time>2026-03-26T10:07:57Z</time></trkpt><trkpt lat="47.733009818380296" lon="-1.770742754706409"><ele>48.0</ele><time>2026-03-26T10:07:58Z</time></trkpt><trkpt lat="47.73295995366228" lon="-1.7704447611237724"><ele>48.0</ele><time>2026-03-26T10:07:59Z</time></trkpt><trkpt lat="47.73289988153567" lon="-1.7701520008234843"><ele>48.0</ele><time>2026-03-26T10:08:00Z</time></trkpt><trkpt lat="47.732838114992305" lon="-1.7698499111398573"><ele>48.0</ele><time>2026-03-26T10:08:01Z</time></trkpt><trkpt lat="47.73276895861658" lon="-1.769554860592182"><ele>48.0</ele><time>2026-03-26T10:08:02Z</time></trkpt><trkpt lat="47.73269808688706" lon="-1.7692685991751813"><ele>48.0</ele><time>2026-03-26T10:08:03Z</time></trkpt><trkpt lat="47.732618196993826" lon="-1.7689826156760755"><ele>48.0</ele><time>2026-03-26T10:08:04Z</time></trkpt><trkpt lat="47.73253477100423" lon="-1.7686986937610856"><ele>48.0</ele><time>2026-03-26T10:08:05Z</time></trkpt><trkpt lat="47.732457878715564" lon="-1.7684109072947922"><ele>49.0</ele><time>2026-03-26T10:08:06Z</time></trkpt><trkpt lat="47.73238043042807" lon="-1.7681320336270059"><ele>50.0</ele><time>2026-03-26T10:08:07Z</time></trkpt><trkpt lat="47.73231347686795" lon="-1.7678485528937624"><ele>51.0</ele><time>2026-03-26T10:08:08Z</time></trkpt><trkpt lat="47.73224729862149" lon="-1.76756428928863"><ele>52.0</ele><time>2026-03-26T10:08:09Z</time></trkpt><trkpt lat="47.73217488353547" lon="-1.7672656011836443"><ele>53.0</ele><time>2026-03-26T10:08:10Z</time></trkpt><trkpt lat="47.73210877456914" lon="-1.76697636143589"><ele>54.0</ele><time>2026-03-26T10:08:11Z</time></trkpt><trkpt lat="47.73203409040559" lon="-1.7666949844985984"><ele>53.66666666666667</ele><time>2026-03-26T10:08:12Z</time></trkpt><trkpt lat="47.73195720049553" lon="-1.766414300984712"><ele>53.333333333333336</ele><time>2026-03-26T10:08:13Z</time></trkpt><trkpt lat="47.7318823402272" lon="-1.7661393724793162"><ele>53.0</ele><time>2026-03-26T10:08:14Z</time></trkpt><trkpt lat="47.731811045741665" lon="-1.7658670138264037"><ele>54.0</ele><time>2026-03-26T10:08:15Z</time></trkpt><trkpt lat="47.73174345727862" lon="-1.7656039168762518"><ele>55.0</ele><time>2026-03-26T10:08:16Z</time></trkpt><trkpt lat="47.73166063234467" lon="-1.7653329882741662"><ele>56.0</ele><time>2026-03-26T10:08:17Z</time></trkpt><trkpt lat="47.73158780660322" lon="-1.7650602809225353"><ele>57.0</ele><time>2026-03-26T10:08:18Z</time></trkpt><trkpt lat="47.731515735889424" lon="-1.7647857191339955"><ele>58.0</ele><time>2026-03-26T10:08:19Z</time></trkpt><trkpt lat="47.73144455850561" lon="-1.7644891892869716"><ele>59.0</ele><time>2026-03-26T10:08:19.999Z</time></trkpt><trkpt lat="47.73136676664464" lon="-1.764198593392002"><ele>61.0</ele><time>2026-03-26T10:08:20.999Z</time></trkpt><trkpt lat="47.73129426668561" lon="-1.763891254063829"><ele>63.0</ele><time>2026-03-26T10:08:21.999Z</time></trkpt><trkpt lat="47.73120077262272" lon="-1.7635685415549989"><ele>65.5</ele><time>2026-03-26T10:08:22.999Z</time></trkpt><trkpt lat="47.73111120383419" lon="-1.7632272765408084"><ele>68.0</ele><time>2026-03-26T10:08:23.999Z</time></trkpt><trkpt lat="47.73101374079443" lon="-1.762869266523967"><ele>69.5</ele><time>2026-03-26T10:08:24.999Z</time></trkpt><trkpt lat="47.730914270888164" lon="-1.7625349528295102"><ele>71.0</ele><time>2026-03-26T10:08:25.999Z</time></trkpt><trkpt lat="47.73082447730732" lon="-1.7622196790708247"><ele>71.0</ele><time>2026-03-26T10:08:26.999Z</time></trkpt><trkpt lat="47.730744927243954" lon="-1.7619172716446678"><ele>71.0</ele><time>2026-03-26T10:08:27.999Z</time></trkpt><trkpt lat="47.730682863320126" lon="-1.7616088168215955"><ele>71.0</ele><time>2026-03-26T10:08:28.999Z</time></trkpt><trkpt lat="47.73060474023096" lon="-1.7613111466345759"><ele>71.33333333333334</ele><time>2026-03-26T10:08:29.999Z</time></trkpt><trkpt lat="47.73052733535823" lon="-1.7610098261285383"><ele>71.66666666666667</ele><time>2026-03-26T10:08:30.999Z</time></trkpt><trkpt lat="47.73044006681805" lon="-1.7606913064431668"><ele>72.0</ele><time>2026-03-26T10:08:31.999Z</time></trkpt><trkpt lat="47.73034571793306" lon="-1.7603541374286376"><ele>71.5</ele><time>2026-03-26T10:08:32.999Z</time></trkpt><trkpt lat="47.730252724181774" lon="-1.7599920339657282"><ele>71.0</ele><time>2026-03-26T10:08:33.999Z</time></trkpt><trkpt lat="47.73016404763956" lon="-1.759647627517949"><ele>70.5</ele><time>2026-03-26T10:08:34.999Z</time></trkpt><trkpt lat="47.73007650326317" lon="-1.7593189695636942"><ele>70.0</ele><time>2026-03-26T10:08:35.999Z</time></trkpt><trkpt lat="47.729986052985495" lon="-1.7589974268625392"><ele>70.0</ele><time>2026-03-26T10:08:36.999Z</time></trkpt><trkpt lat="47.72989973972895" lon="-1.758671709639003"><ele>70.0</ele><time>2026-03-26T10:08:37.999Z</time></trkpt><trkpt lat="47.72982089131916" lon="-1.7583557766144622"><ele>69.5</ele><time>2026-03-26T10:08:38.999Z</time></trkpt><trkpt lat="47.72974028602647" lon="-1.7580356336826464"><ele>69.0</ele><time>2026-03-26T10:08:39.999Z</time></trkpt><trkpt lat="47.72965251614593" lon="-1.757713234974268"><ele>69.5</ele><time>2026-03-26T10:08:40.999Z</time></trkpt><trkpt lat="47.729566981993095" lon="-1.7574023680988755"><ele>70.0</ele><time>2026-03-26T10:08:41.999Z</time></trkpt><trkpt lat="47.72948539024578" lon="-1.7570856060856026"><ele>70.0</ele><time>2026-03-26T10:08:42.999Z</time></trkpt><trkpt lat="47.7294028165405" lon="-1.7567686811656835"><ele>70.0</ele><time>2026-03-26T10:08:43.999Z</time></trkpt><trkpt lat="47.72931743469292" lon="-1.7564493244972774"><ele>70.0</ele><time>2026-03-26T10:08:44.999Z</time></trkpt><trkpt lat="47.72923375408666" lon="-1.7561280682966631"><ele>70.0</ele><time>2026-03-26T10:08:45.999Z</time></trkpt><trkpt lat="47.72914845911052" lon="-1.7558034955487045"><ele>70.0</ele><time>2026-03-26T10:08:46.999Z</time></trkpt><trkpt lat="47.72906583217694" lon="-1.7554841230179705"><ele>70.0</ele><time>2026-03-26T10:08:47.999Z</time></trkpt><trkpt lat="47.7289851196955" lon="-1.7551718032949328"><ele>70.0</ele><time>2026-03-26T10:08:48.999Z</time></trkpt><trkpt lat="47.72890241675304" lon="-1.7548666979695724"><ele>70.0</ele><time>2026-03-26T10:08:49.999Z</time></trkpt><trkpt lat="47.72882206009237" lon="-1.7545561955883728"><ele>70.0</ele><time>2026-03-26T10:08:50.999Z</time></trkpt><trkpt lat="47.72874227575152" lon="-1.7542558613266286"><ele>69.66666666666666</ele><time>2026-03-26T10:08:51.999Z</time></trkpt><trkpt lat="47.728658443094474" lon="-1.7539549454728816"><ele>69.33333333333333</ele><time>2026-03-26T10:08:52.999Z</time></trkpt><trkpt lat="47.72857827645562" lon="-1.7536589876228237"><ele>69.0</ele><time>2026-03-26T10:08:53.999Z</time></trkpt><trkpt lat="47.728496863743594" lon="-1.7533531090443126"><ele>69.0</ele><time>2026-03-26T10:08:54.999Z</time></trkpt><trkpt lat="47.728418760856385" lon="-1.753054467383219"><ele>69.0</ele><time>2026-03-26T10:08:55.999Z</time></trkpt><trkpt lat="47.72834275603693" lon="-1.7527606730688703"><ele>69.0</ele><time>2026-03-26T10:08:56.999Z</time></trkpt><trkpt lat="47.728272497052" lon="-1.752472225009177"><ele>68.66666666666667</ele><time>2026-03-26T10:08:57.999Z</time></trkpt><trkpt lat="47.72820218945109" lon="-1.752192314858267"><ele>68.33333333333334</ele><time>2026-03-26T10:08:58.999Z</time></trkpt><trkpt lat="47.728130498675014" lon="-1.7519208643273936"><ele>68.0</ele><time>2026-03-26T10:08:59.999Z</time></trkpt><trkpt lat="47.72806482130405" lon="-1.7516686226266378"><ele>68.0</ele><time>2026-03-26T10:09:00.999Z</time></trkpt><trkpt lat="47.72800641701714" lon="-1.7514362907769454"><ele>68.0</ele><time>2026-03-26T10:09:01.999Z</time></trkpt><trkpt lat="47.72794862713773" lon="-1.7512174069049438"><ele>68.0</ele><time>2026-03-26T10:09:02.999Z</time></trkpt><trkpt lat="47.72788550557799" lon="-1.7509893922702475"><ele>68.0</ele><time>2026-03-26T10:09:03.999Z</time></trkpt><trkpt lat="47.72782189987327" lon="-1.750754211342853"><ele>68.0</ele><time>2026-03-26T10:09:04.999Z</time></trkpt><trkpt lat="47.7277457779864" lon="-1.7505021742188622"><ele>68.0</ele><time>2026-03-26T10:09:05.999Z</time></trkpt><trkpt lat="47.72767233611688" lon="-1.75024417027935"><ele>68.66666666666667</ele><time>2026-03-26T10:09:06.999Z</time></trkpt><trkpt lat="47.72760745025415" lon="-1.7499762581273677"><ele>69.33333333333333</ele><time>2026-03-26T10:09:07.999Z</time></trkpt><trkpt lat="47.727525294694445" lon="-1.749720539896663"><ele>70.0</ele><time>2026-03-26T10:09:08.999Z</time></trkpt><trkpt lat="47.72745885142004" lon="-1.749467343875285"><ele>70.0</ele><time>2026-03-26T10:09:09.999Z</time></trkpt><trkpt lat="47.72739642920886" lon="-1.74922843462918"><ele>70.0</ele><time>2026-03-26T10:09:10.999Z</time></trkpt><trkpt lat="47.72733889429896" lon="-1.7490091132262187"><ele>70.0</ele><time>2026-03-26T10:09:11.999Z</time></trkpt><trkpt lat="47.72728435289335" lon="-1.7488045486028387"><ele>70.0</ele><time>2026-03-26T10:09:12.999Z</time></trkpt><trkpt lat="47.72722793014703" lon="-1.7485929277806262"><ele>70.0</ele><time>2026-03-26T10:09:13.999Z</time></trkpt><trkpt lat="47.72716741837345" lon="-1.7483612524225984"><ele>70.0</ele><time>2026-03-26T10:09:14.999Z</time></trkpt><trkpt lat="47.72710443838232" lon="-1.7481180199045292"><ele>70.0</ele><time>2026-03-26T10:09:15.999Z</time></trkpt><trkpt lat="47.727051252977155" lon="-1.7478488748185708"><ele>70.0</ele><time>2026-03-26T10:09:16.999Z</time></trkpt><trkpt lat="47.726977963422655" lon="-1.7475676560820461"><ele>70.0</ele><time>2026-03-26T10:09:17.999Z</time></trkpt><trkpt lat="47.72690783053242" lon="-1.7472831095159242"><ele>70.0</ele><time>2026-03-26T10:09:18.999Z</time></trkpt><trkpt lat="47.726843042326436" lon="-1.7470348172084285"><ele>70.0</ele><time>2026-03-26T10:09:19.999Z</time></trkpt><trkpt lat="47.7267799589352" lon="-1.7467986324195242"><ele>70.0</ele><time>2026-03-26T10:09:20.998Z</time></trkpt><trkpt lat="47.726726521001446" lon="-1.7465480825533866"><ele>70.0</ele><time>2026-03-26T10:09:21.998Z</time></trkpt><trkpt lat="47.726665091361795" lon="-1.7462957323250325"><ele>70.0</ele><time>2026-03-26T10:09:22.998Z</time></trkpt><trkpt lat="47.72660202840689" lon="-1.74604504111997"><ele>70.0</ele><time>2026-03-26T10:09:23.998Z</time></trkpt><trkpt lat="47.72653471846153" lon="-1.7457975327748703"><ele>70.0</ele><time>2026-03-26T10:09:24.998Z</time></trkpt><trkpt lat="47.72647737275877" lon="-1.745536314799453"><ele>70.0</ele><time>2026-03-26T10:09:25.998Z</time></trkpt><trkpt lat="47.72641701491679" lon="-1.745272499036141"><ele>70.0</ele><time>2026-03-26T10:09:26.998Z</time></trkpt><trkpt lat="47.726340686685326" lon="-1.7450308213764711"><ele>70.0</ele><time>2026-03-26T10:09:27.998Z</time></trkpt><trkpt lat="47.726293338708835" lon="-1.7447667004060943"><ele>70.0</ele><time>2026-03-26T10:09:28.998Z</time></trkpt><trkpt lat="47.72622846095366" lon="-1.744528433760782"><ele>70.0</ele><time>2026-03-26T10:09:29.998Z</time></trkpt><trkpt lat="47.72616508439568" lon="-1.7442780048333173"><ele>70.0</ele><time>2026-03-26T10:09:30.998Z</time></trkpt><trkpt lat="47.726106330786536" lon="-1.7440230971162667"><ele>70.0</ele><time>2026-03-26T10:09:31.998Z</time></trkpt><trkpt lat="47.72604702593962" lon="-1.7437721684846579"><ele>70.0</ele><time>2026-03-26T10:09:32.998Z</time></trkpt><trkpt lat="47.72598986015771" lon="-1.743522245637981"><ele>69.66666666666666</ele><time>2026-03-26T10:09:33.998Z</time></trkpt><trkpt lat="47.72591444094389" lon="-1.7432814894466206"><ele>69.33333333333333</ele><time>2026-03-26T10:09:34.998Z</time></trkpt><trkpt lat="47.72585245146757" lon="-1.7430259860446686"><ele>69.0</ele><time>2026-03-26T10:09:35.998Z</time></trkpt><trkpt lat="47.72580653816468" lon="-1.7427697644449374"><ele>68.66666666666667</ele><time>2026-03-26T10:09:36.998Z</time></trkpt><trkpt lat="47.725729309365356" lon="-1.7425287816159611"><ele>68.33333333333334</ele><time>2026-03-26T10:09:37.998Z</time></trkpt><trkpt lat="47.72567454944941" lon="-1.7422650867570766"><ele>68.0</ele><time>2026-03-26T10:09:38.998Z</time></trkpt><trkpt lat="47.725609531755204" lon="-1.7419870451100856"><ele>67.33333333333334</ele><time>2026-03-26T10:09:39.998Z</time></trkpt><trkpt lat="47.72552812096668" lon="-1.7417194083086232"><ele>66.66666666666667</ele><time>2026-03-26T10:09:41Z</time></trkpt><trkpt lat="47.72545632555225" lon="-1.7414344343424915"><ele>66.0</ele><time>2026-03-26T10:09:42Z</time></trkpt><trkpt lat="47.72538882972411" lon="-1.7411606897039806"><ele>65.66666666666667</ele><time>2026-03-26T10:09:43Z</time></trkpt><trkpt lat="47.72532948912579" lon="-1.740914043437951"><ele>65.33333333333334</ele><time>2026-03-26T10:09:44Z</time></trkpt><trkpt lat="47.72528248227772" lon="-1.7406921436563423"><ele>65.0</ele><time>2026-03-26T10:09:45Z</time></trkpt><trkpt lat="47.725241901165354" lon="-1.7404637237109017"><ele>64.25</ele><time>2026-03-26T10:09:46Z</time></trkpt><trkpt lat="47.72521361878518" lon="-1.7402408497376995"><ele>63.5</ele><time>2026-03-26T10:09:47Z</time></trkpt><trkpt lat="47.72519643429162" lon="-1.7400211155590062"><ele>62.75</ele><time>2026-03-26T10:09:48Z</time></trkpt><trkpt lat="47.72518235805854" lon="-1.7398162566644404"><ele>62.0</ele><time>2026-03-26T10:09:49Z</time></trkpt><trkpt lat="47.72517214342026" lon="-1.7396303328138605"><ele>61.25</ele><time>2026-03-26T10:09:50Z</time></trkpt><trkpt lat="47.725163227140015" lon="-1.7394522949316635"><ele>60.5</ele><time>2026-03-26T10:09:51Z</time></trkpt><trkpt lat="47.72516907978412" lon="-1.7392629509285158"><ele>59.75</ele><time>2026-03-26T10:09:52Z</time></trkpt><trkpt lat="47.72513870669195" lon="-1.7390819401957378"><ele>59.0</ele><time>2026-03-26T10:09:53Z</time></trkpt><trkpt lat="47.72514082588409" lon="-1.7389266578226992"><ele>58.6</ele><time>2026-03-26T10:09:54Z</time></trkpt><trkpt lat="47.725134957986484" lon="-1.738783142675596"><ele>58.2</ele><time>2026-03-26T10:09:55Z</time></trkpt><trkpt lat="47.725128394361185" lon="-1.7386444373463452"><ele>57.800000000000004</ele><time>2026-03-26T10:09:56Z</time></trkpt><trkpt lat="47.725123757051634" lon="-1.738465362828368"><ele>57.400000000000006</ele><time>2026-03-26T10:09:57Z</time></trkpt><trkpt lat="47.72511472644861" lon="-1.7382826274478862"><ele>57.0</ele><time>2026-03-26T10:09:58Z</time></trkpt><trkpt lat="47.725109278398385" lon="-1.7380802282159005"><ele>56.25</ele><time>2026-03-26T10:09:59Z</time></trkpt><trkpt lat="47.72510849239151" lon="-1.7378828713332781"><ele>55.5</ele><time>2026-03-26T10:10:00Z</time></trkpt><trkpt lat="47.725084982196464" lon="-1.737689231843849"><ele>54.75</ele><time>2026-03-26T10:10:01Z</time></trkpt><trkpt lat="47.72508498610023" lon="-1.7374927109061684"><ele>54.0</ele><time>2026-03-26T10:10:02Z</time></trkpt><trkpt lat="47.72506348521729" lon="-1.737290032796883"><ele>53.33333333333333</ele><time>2026-03-26T10:10:03Z</time></trkpt><trkpt lat="47.72503105083694" lon="-1.7370569206043165"><ele>52.666666666666664</ele><time>2026-03-26T10:10:04Z</time></trkpt><trkpt lat="47.72499560304364" lon="-1.7368393857957927"><ele>52.0</ele><time>2026-03-26T10:10:05Z</time></trkpt><trkpt lat="47.724958094179485" lon="-1.7366121673320913"><ele>52.0</ele><time>2026-03-26T10:10:06Z</time></trkpt><trkpt lat="47.72489802352768" lon="-1.7363988286486856"><ele>52.0</ele><time>2026-03-26T10:10:07Z</time></trkpt><trkpt lat="47.72484717327342" lon="-1.7361593789379968"><ele>52.0</ele><time>2026-03-26T10:10:08Z</time></trkpt><trkpt lat="47.72480113609612" lon="-1.7359327202402657"><ele>52.0</ele><time>2026-03-26T10:10:09Z</time></trkpt><trkpt lat="47.72475426413838" lon="-1.7357255492945547"><ele>52.0</ele><time>2026-03-26T10:10:10Z</time></trkpt><trkpt lat="47.724708564990095" lon="-1.7355320785832158"><ele>52.0</ele><time>2026-03-26T10:10:11Z</time></trkpt><trkpt lat="47.724675407818886" lon="-1.735381571661351"><ele>52.0</ele><time>2026-03-26T10:10:12Z</time></trkpt><trkpt lat="47.724656858065856" lon="-1.7352296270627445"><ele>52.33333333333333</ele><time>2026-03-26T10:10:13Z</time></trkpt><trkpt lat="47.724626641068014" lon="-1.7350912540023018"><ele>52.666666666666664</ele><time>2026-03-26T10:10:14Z</time></trkpt><trkpt lat="47.7245854239948" lon="-1.7349727595878939"><ele>53.0</ele><time>2026-03-26T10:10:15Z</time></trkpt><trkpt lat="47.724561027009166" lon="-1.7348646605021303"><ele>53.33333333333333</ele><time>2026-03-26T10:10:16Z</time></trkpt><trkpt lat="47.72452769115931" lon="-1.7347825459049537"><ele>53.666666666666664</ele><time>2026-03-26T10:10:17Z</time></trkpt><trkpt lat="47.72445659005048" lon="-1.7346968314634503"><ele>54.0</ele><time>2026-03-26T10:10:19Z</time></trkpt><trkpt lat="47.72419504660005" lon="-1.7348091104862133"><ele>52.75</ele><time>2026-03-26T10:10:20Z</time></trkpt><trkpt lat="47.724077808594245" lon="-1.7348327074950758"><ele>51.5</ele><time>2026-03-26T10:10:21Z</time></trkpt><trkpt lat="47.723972084561616" lon="-1.7348592546397787"><ele>50.25</ele><time>2026-03-26T10:10:22Z</time></trkpt><trkpt lat="47.7238575075767" lon="-1.7348725811952554"><ele>49.0</ele><time>2026-03-26T10:10:23Z</time></trkpt><trkpt lat="47.72373797110776" lon="-1.7348827039421022"><ele>49.0</ele><time>2026-03-26T10:10:24Z</time></trkpt><trkpt lat="47.72361521469547" lon="-1.7348794317975893"><ele>49.0</ele><time>2026-03-26T10:10:25Z</time></trkpt><trkpt lat="47.72347198622286" lon="-1.7348965829521457"><ele>49.0</ele><time>2026-03-26T10:10:26Z</time></trkpt><trkpt lat="47.72334482133188" lon="-1.7348820478251465"><ele>49.0</ele><time>2026-03-26T10:10:27Z</time></trkpt><trkpt lat="47.72324047959411" lon="-1.7348753123630096"><ele>49.400000000000006</ele><time>2026-03-26T10:10:27.999Z</time></trkpt><trkpt lat="47.7231250818558" lon="-1.7348846828667739"><ele>49.8</ele><time>2026-03-26T10:10:28.999Z</time></trkpt><trkpt lat="47.72303306577222" lon="-1.734878263136659"><ele>50.2</ele><time>2026-03-26T10:10:29.999Z</time></trkpt><trkpt lat="47.72293859540369" lon="-1.7348666093190388"><ele>50.599999999999994</ele><time>2026-03-26T10:10:30.999Z</time></trkpt><trkpt lat="47.722845199058504" lon="-1.734856029065955"><ele>51.0</ele><time>2026-03-26T10:10:31.999Z</time></trkpt><trkpt lat="47.72275691962657" lon="-1.73485534862827"><ele>50.5</ele><time>2026-03-26T10:10:32.999Z</time></trkpt><trkpt lat="47.722673063542" lon="-1.7348470201647532"><ele>50.0</ele><time>2026-03-26T10:10:33.999Z</time></trkpt><trkpt lat="47.72259338959053" lon="-1.7348404735549465"><ele>49.5</ele><time>2026-03-26T10:10:34.999Z</time></trkpt><trkpt lat="47.7225207633536" lon="-1.7348330077499232"><ele>49.0</ele><time>2026-03-26T10:10:35.999Z</time></trkpt><trkpt lat="47.72245569266794" lon="-1.7348300441572015"><ele>48.5</ele><time>2026-03-26T10:10:36.999Z</time></trkpt><trkpt lat="47.72235715786258" lon="-1.7348148699023513"><ele>48.0</ele><time>2026-03-26T10:10:38.999Z</time></trkpt><trkpt lat="47.72226582885693" lon="-1.734809536351147"><ele>48.0</ele><time>2026-03-26T10:10:40.999Z</time></trkpt><trkpt lat="47.722198452889515" lon="-1.7348068141475337"><ele>48.0</ele><time>2026-03-26T10:10:44.999Z</time></trkpt><trkpt lat="47.7221334129158" lon="-1.734781276981339"><ele>48.0</ele><time>2026-03-26T10:10:55.999Z</time></trkpt><trkpt lat="47.72209354092527" lon="-1.7346053464772582"><ele>48.0</ele><time>2026-03-26T10:10:58.999Z</time></trkpt><trkpt lat="47.72209546902191" lon="-1.7345114564205897"><ele>48.0</ele><time>2026-03-26T10:10:59.999Z</time></trkpt><trkpt lat="47.722098689440145" lon="-1.7343853722501927"><ele>48.0</ele><time>2026-03-26T10:11:00.999Z</time></trkpt><trkpt lat="47.722100720662354" lon="-1.7342861983476374"><ele>48.599999999999994</ele><time>2026-03-26T10:11:01.999Z</time></trkpt><trkpt lat="47.72210322253493" lon="-1.7341601596724687"><ele>49.199999999999996</ele><time>2026-03-26T10:11:02.999Z</time></trkpt><trkpt lat="47.72210721738232" lon="-1.733985725973822"><ele>49.8</ele><time>2026-03-26T10:11:03.999Z</time></trkpt><trkpt lat="47.72209145363865" lon="-1.7338647409074404"><ele>50.4</ele><time>2026-03-26T10:11:04.999Z</time></trkpt><trkpt lat="47.722068846664946" lon="-1.733744939520207"><ele>51.0</ele><time>2026-03-26T10:11:05.999Z</time></trkpt><trkpt lat="47.722075839510275" lon="-1.733615663538443"><ele>51.5</ele><time>2026-03-26T10:11:06.999Z</time></trkpt><trkpt lat="47.72207958121783" lon="-1.7334961356834055"><ele>52.0</ele><time>2026-03-26T10:11:07.999Z</time></trkpt><trkpt lat="47.7220837841408" lon="-1.7333618744369428"><ele>52.5</ele><time>2026-03-26T10:11:08.999Z</time></trkpt><trkpt lat="47.72208773751625" lon="-1.7332355851950068"><ele>53.0</ele><time>2026-03-26T10:11:09.999Z</time></trkpt><trkpt lat="47.72209154077881" lon="-1.733114091039258"><ele>53.5</ele><time>2026-03-26T10:11:10.999Z</time></trkpt><trkpt lat="47.72209550545086" lon="-1.7329913195217932"><ele>54.0</ele><time>2026-03-26T10:11:11.999Z</time></trkpt><trkpt lat="47.722100436745215" lon="-1.7328516541456773"><ele>54.0</ele><time>2026-03-26T10:11:12.999Z</time></trkpt><trkpt lat="47.72210458679875" lon="-1.7326946558029699"><ele>54.00000000000001</ele><time>2026-03-26T10:11:13.999Z</time></trkpt><trkpt lat="47.7221065021637" lon="-1.7325766833817529"><ele>54.00000000000001</ele><time>2026-03-26T10:11:14.999Z</time></trkpt><trkpt lat="47.72210808317761" lon="-1.7324793041948123"><ele>54.0</ele><time>2026-03-26T10:11:15.999Z</time></trkpt><trkpt lat="47.72214686199438" lon="-1.7327438012895258"><ele>54.0</ele><time>2026-03-26T10:11:17.999Z</time></trkpt><trkpt lat="47.72213517159375" lon="-1.7326335081352593"><ele>54.5</ele><time>2026-03-26T10:11:20.999Z</time></trkpt><trkpt lat="47.72215201823411" lon="-1.7325406475559604"><ele>55.0</ele><time>2026-03-26T10:11:31.998Z</time></trkpt><trkpt lat="47.72225531591175" lon="-1.7325183277505611"><ele>55.5</ele><time>2026-03-26T10:11:32.998Z</time></trkpt><trkpt lat="47.722320000256445" lon="-1.7325066315356992"><ele>56.0</ele><time>2026-03-26T10:11:33.998Z</time></trkpt><trkpt lat="47.72243468709683" lon="-1.732514337585863"><ele>56.5</ele><time>2026-03-26T10:11:35.998Z</time></trkpt><trkpt lat="47.722508723655594" lon="-1.7325165769904198"><ele>57.0</ele><time>2026-03-26T10:11:36.998Z</time></trkpt><trkpt lat="47.72257987373119" lon="-1.7325311193643487"><ele>57.0</ele><time>2026-03-26T10:11:37.998Z</time></trkpt><trkpt lat="47.722666364871266" lon="-1.7325373657295184"><ele>57.0</ele><time>2026-03-26T10:11:38.998Z</time></trkpt><trkpt lat="47.72275101689164" lon="-1.7325400680928391"><ele>57.0</ele><time>2026-03-26T10:11:39.998Z</time></trkpt><trkpt lat="47.72287951342905" lon="-1.7325385956501163"><ele>57.0</ele><time>2026-03-26T10:11:40.998Z</time></trkpt><trkpt lat="47.72296832223469" lon="-1.7325298611585263"><ele>57.0</ele><time>2026-03-26T10:11:41.998Z</time></trkpt><trkpt lat="47.7230534278123" lon="-1.7325386153958757"><ele>57.5</ele><time>2026-03-26T10:11:43.998Z</time></trkpt><trkpt lat="47.72312774670777" lon="-1.7325358651502234"><ele>58.0</ele><time>2026-03-26T10:11:47Z</time></trkpt><trkpt lat="47.723201033905504" lon="-1.7325422776916881"><ele>58.5</ele><time>2026-03-26T10:11:50Z</time></trkpt><trkpt lat="47.7232715462471" lon="-1.7325395667242844"><ele>59.0</ele><time>2026-03-26T10:11:53Z</time></trkpt><trkpt lat="47.72331794355869" lon="-1.7324683181922027"><ele>59.5</ele><time>2026-03-26T10:11:57Z</time></trkpt><trkpt lat="47.72332965083656" lon="-1.7323201363897691"><ele>60.0</ele><time>2026-03-26T10:12:03Z</time></trkpt><trkpt lat="47.72344855433909" lon="-1.7324708077355329"><ele>60.0</ele><time>2026-03-26T10:12:08Z</time></trkpt><trkpt lat="47.72351773257712" lon="-1.7324546039205357"><ele>60.0</ele><time>2026-03-26T10:12:11Z</time></trkpt><trkpt lat="47.723572675467906" lon="-1.7325131290786497"><ele>60.0</ele><time>2026-03-26T10:12:15Z</time></trkpt><trkpt lat="47.7234555048118" lon="-1.7325636004635463"><ele>60.0</ele><time>2026-03-26T10:17:45.998Z</time></trkpt><trkpt lat="47.72333482268264" lon="-1.7325602533455657"><ele>60.0</ele><time>2026-03-26T10:17:47.998Z</time></trkpt><trkpt lat="47.72323037405668" lon="-1.7325812478395917"><ele>60.0</ele><time>2026-03-26T10:17:49.998Z</time></trkpt><trkpt lat="47.72315401700521" lon="-1.7325750278939385"><ele>60.0</ele><time>2026-03-26T10:17:51.998Z</time></trkpt><trkpt lat="47.723077656707815" lon="-1.7325853647927951"><ele>60.0</ele><time>2026-03-26T10:17:53.998Z</time></trkpt><trkpt lat="47.723003636824124" lon="-1.732593631020634"><ele>60.0</ele><time>2026-03-26T10:17:55.998Z</time></trkpt><trkpt lat="47.722867919478" lon="-1.732596787369447"><ele>60.0</ele><time>2026-03-26T10:17:57.998Z</time></trkpt><trkpt lat="47.722802089021286" lon="-1.732617933758021"><ele>60.0</ele><time>2026-03-26T10:17:58.998Z</time></trkpt><trkpt lat="47.72268931286128" lon="-1.7325876609652018"><ele>59.5</ele><time>2026-03-26T10:18:00.998Z</time></trkpt><trkpt lat="47.72258894539252" lon="-1.7326146298520855"><ele>59.0</ele><time>2026-03-26T10:18:02.998Z</time></trkpt><trkpt lat="47.72250009162928" lon="-1.7326096081776063"><ele>58.5</ele><time>2026-03-26T10:18:05Z</time></trkpt><trkpt lat="47.72243140572735" lon="-1.732615700775257"><ele>58.0</ele><time>2026-03-26T10:18:06Z</time></trkpt><trkpt lat="47.722359085312775" lon="-1.732618458127094"><ele>57.5</ele><time>2026-03-26T10:18:07Z</time></trkpt><trkpt lat="47.72227104577882" lon="-1.73263008504494"><ele>57.0</ele><time>2026-03-26T10:18:08Z</time></trkpt><trkpt lat="47.72218024261625" lon="-1.732636470872061"><ele>57.0</ele><time>2026-03-26T10:18:09Z</time></trkpt><trkpt lat="47.7220792317203" lon="-1.7326383758845412"><ele>57.0</ele><time>2026-03-26T10:18:10Z</time></trkpt><trkpt lat="47.72199315765703" lon="-1.7326288032531716"><ele>57.0</ele><time>2026-03-26T10:18:11Z</time></trkpt><trkpt lat="47.721920264283746" lon="-1.7326069703371647"><ele>57.0</ele><time>2026-03-26T10:18:12Z</time></trkpt><trkpt lat="47.72184965719162" lon="-1.7325996936423051"><ele>57.0</ele><time>2026-03-26T10:18:13Z</time></trkpt><trkpt lat="47.72174582012909" lon="-1.7326033585478233"><ele>57.0</ele><time>2026-03-26T10:18:15Z</time></trkpt><trkpt lat="47.72167179628651" lon="-1.7326043812328176"><ele>55.833333333333336</ele><time>2026-03-26T10:18:18Z</time></trkpt><trkpt lat="47.72160866869912" lon="-1.7326049417713643"><ele>54.66666666666667</ele><time>2026-03-26T10:18:20Z</time></trkpt><trkpt lat="47.72154332713688" lon="-1.7325817318782726"><ele>53.5</ele><time>2026-03-26T10:18:25Z</time></trkpt><trkpt lat="47.72147710982988" lon="-1.7325618070572164"><ele>52.333333333333336</ele><time>2026-03-26T10:18:28Z</time></trkpt><trkpt lat="47.721515576861016" lon="-1.7323424395448075"><ele>51.16666666666667</ele><time>2026-03-26T10:18:30Z</time></trkpt><trkpt lat="47.721536917415825" lon="-1.7322534961663123"><ele>50.0</ele><time>2026-03-26T10:18:31Z</time></trkpt><trkpt lat="47.72158241514799" lon="-1.7321073349795593"><ele>50.00000000000001</ele><time>2026-03-26T10:18:33Z</time></trkpt><trkpt lat="47.72160822160647" lon="-1.7319454129371408"><ele>50.0</ele><time>2026-03-26T10:18:35Z</time></trkpt><trkpt lat="47.721633419156014" lon="-1.7318471674471771"><ele>50.0</ele><time>2026-03-26T10:18:36Z</time></trkpt><trkpt lat="47.721640017695506" lon="-1.7317304895408112"><ele>50.0</ele><time>2026-03-26T10:18:37Z</time></trkpt><trkpt lat="47.72166312728763" lon="-1.731606266769295"><ele>50.00000000000001</ele><time>2026-03-26T10:18:37.999Z</time></trkpt><trkpt lat="47.72168970966228" lon="-1.7314638274229155"><ele>50.0</ele><time>2026-03-26T10:18:38.999Z</time></trkpt><trkpt lat="47.72172075216143" lon="-1.731299558120685"><ele>50.2</ele><time>2026-03-26T10:18:39.999Z</time></trkpt><trkpt lat="47.721749307041065" lon="-1.731152997069447"><ele>50.4</ele><time>2026-03-26T10:18:40.999Z</time></trkpt><trkpt lat="47.721771204952326" lon="-1.7310377887947574"><ele>50.599999999999994</ele><time>2026-03-26T10:18:41.999Z</time></trkpt><trkpt lat="47.72179964391587" lon="-1.7308859427354908"><ele>50.8</ele><time>2026-03-26T10:18:43.999Z</time></trkpt><trkpt lat="47.72182609092658" lon="-1.730754316146899"><ele>51.0</ele><time>2026-03-26T10:18:45.999Z</time></trkpt><trkpt lat="47.72185733797386" lon="-1.73066155741822"><ele>51.0</ele><time>2026-03-26T10:18:48.999Z</time></trkpt><trkpt lat="47.7218805221368" lon="-1.7305664490447075"><ele>51.0</ele><time>2026-03-26T10:18:52.999Z</time></trkpt><trkpt lat="47.72189308901586" lon="-1.730423035294171"><ele>51.0</ele><time>2026-03-26T10:18:57.999Z</time></trkpt><trkpt lat="47.72192245797154" lon="-1.730265788633576"><ele>51.0</ele><time>2026-03-26T10:18:59.999Z</time></trkpt><trkpt lat="47.72194904824586" lon="-1.730164842289072"><ele>51.0</ele><time>2026-03-26T10:19:00.999Z</time></trkpt><trkpt lat="47.72199056368301" lon="-1.730044733019414"><ele>51.0</ele><time>2026-03-26T10:19:01.999Z</time></trkpt><trkpt lat="47.72206579037609" lon="-1.7299255853050683"><ele>52.0</ele><time>2026-03-26T10:19:02.999Z</time></trkpt><trkpt lat="47.72212444809031" lon="-1.7298007113590281"><ele>53.0</ele><time>2026-03-26T10:19:03.999Z</time></trkpt><trkpt lat="47.72220804174357" lon="-1.7297156178259379"><ele>53.99999999999999</ele><time>2026-03-26T10:19:04.999Z</time></trkpt><trkpt lat="47.72232070141257" lon="-1.7296581502294663"><ele>55.0</ele><time>2026-03-26T10:19:05.999Z</time></trkpt><trkpt lat="47.7224258065751" lon="-1.7295905563395613"><ele>56.0</ele><time>2026-03-26T10:19:06.999Z</time></trkpt><trkpt lat="47.72249803849103" lon="-1.7295294265470256"><ele>56.0</ele><time>2026-03-26T10:19:07.999Z</time></trkpt><trkpt lat="47.72257985243718" lon="-1.7294383266374984"><ele>56.0</ele><time>2026-03-26T10:19:08.999Z</time></trkpt><trkpt lat="47.72274061253645" lon="-1.7293581365841706"><ele>56.0</ele><time>2026-03-26T10:19:09.999Z</time></trkpt><trkpt lat="47.72285192045947" lon="-1.7293318515199037"><ele>56.0</ele><time>2026-03-26T10:19:10.999Z</time></trkpt><trkpt lat="47.7229863271644" lon="-1.7293001117120268"><ele>56.25</ele><time>2026-03-26T10:19:11.999Z</time></trkpt><trkpt lat="47.72324929599225" lon="-1.7292797755640723"><ele>56.5</ele><time>2026-03-26T10:19:13.999Z</time></trkpt><trkpt lat="47.723322395876146" lon="-1.7292357920327457"><ele>56.75</ele><time>2026-03-26T10:19:14.999Z</time></trkpt><trkpt lat="47.72342650490799" lon="-1.7292322688868067"><ele>57.0</ele><time>2026-03-26T10:19:15.999Z</time></trkpt><trkpt lat="47.72367601250638" lon="-1.7292330827250733"><ele>55.25</ele><time>2026-03-26T10:19:18.999Z</time></trkpt><trkpt lat="47.723785998486946" lon="-1.7292415434589758"><ele>53.5</ele><time>2026-03-26T10:19:19.999Z</time></trkpt><trkpt lat="47.72391926820807" lon="-1.7292722931709341"><ele>51.75</ele><time>2026-03-26T10:19:20.999Z</time></trkpt><trkpt lat="47.72406121487367" lon="-1.729299669271984"><ele>50.0</ele><time>2026-03-26T10:19:21.999Z</time></trkpt><trkpt lat="47.72422689162518" lon="-1.7293080730684722"><ele>50.0</ele><time>2026-03-26T10:19:22.999Z</time></trkpt><trkpt lat="47.72436024479127" lon="-1.729372962789446"><ele>50.0</ele><time>2026-03-26T10:19:23.999Z</time></trkpt><trkpt lat="47.724492035029755" lon="-1.729430906980581"><ele>50.0</ele><time>2026-03-26T10:19:24.999Z</time></trkpt><trkpt lat="47.72465902333478" lon="-1.729489044030024"><ele>50.0</ele><time>2026-03-26T10:19:25.999Z</time></trkpt><trkpt lat="47.72481619697172" lon="-1.7294344946089544"><ele>50.0</ele><time>2026-03-26T10:19:26.999Z</time></trkpt><trkpt lat="47.724953245405416" lon="-1.729393226880984"><ele>50.0</ele><time>2026-03-26T10:19:27.999Z</time></trkpt><trkpt lat="47.72492408403553" lon="-1.7291514371228296"><ele>50.0</ele><time>2026-03-26T10:19:28.999Z</time></trkpt><trkpt lat="47.724995869092595" lon="-1.7289563830416164"><ele>49.8</ele><time>2026-03-26T10:19:31.999Z</time></trkpt><trkpt lat="47.72501469867148" lon="-1.7288317197505063"><ele>49.6</ele><time>2026-03-26T10:19:32.999Z</time></trkpt><trkpt lat="47.72505700836965" lon="-1.7287263177906758"><ele>49.400000000000006</ele><time>2026-03-26T10:19:33.999Z</time></trkpt><trkpt lat="47.7251285187188" lon="-1.728665953477042"><ele>49.2</ele><time>2026-03-26T10:19:34.998Z</time></trkpt><trkpt lat="47.72502090158468" lon="-1.7284446189731293"><ele>49.0</ele><time>2026-03-26T10:19:35.998Z</time></trkpt><trkpt lat="47.72500960674847" lon="-1.7282782030762176"><ele>49.0</ele><time>2026-03-26T10:19:36.998Z</time></trkpt><trkpt lat="47.72499610805792" lon="-1.7280697454500693"><ele>49.0</ele><time>2026-03-26T10:19:37.998Z</time></trkpt><trkpt lat="47.72498135153023" lon="-1.727841862698472"><ele>49.0</ele><time>2026-03-26T10:19:38.998Z</time></trkpt><trkpt lat="47.72496609784706" lon="-1.727608699965961"><ele>49.75</ele><time>2026-03-26T10:19:39.998Z</time></trkpt><trkpt lat="47.72495056471198" lon="-1.7273717130711406"><ele>50.5</ele><time>2026-03-26T10:19:40.998Z</time></trkpt><trkpt lat="47.72493620600454" lon="-1.7271584151948336"><ele>51.25</ele><time>2026-03-26T10:19:41.998Z</time></trkpt><trkpt lat="47.72492262959791" lon="-1.7269567383447104"><ele>52.0</ele><time>2026-03-26T10:19:42.998Z</time></trkpt><trkpt lat="47.72490799359489" lon="-1.7267393211785733"><ele>52.0</ele><time>2026-03-26T10:19:43.998Z</time></trkpt><trkpt lat="47.72489288373285" lon="-1.726514277709072"><ele>52.0</ele><time>2026-03-26T10:19:44.998Z</time></trkpt><trkpt lat="47.724878020562876" lon="-1.7262874967905268"><ele>52.0</ele><time>2026-03-26T10:19:45.998Z</time></trkpt><trkpt lat="47.724862178668005" lon="-1.7260457824996303"><ele>52.0</ele><time>2026-03-26T10:19:46.998Z</time></trkpt><trkpt lat="47.72484705489722" lon="-1.7258150253522535"><ele>52.0</ele><time>2026-03-26T10:19:47.998Z</time></trkpt><trkpt lat="47.724833803524916" lon="-1.7256128371352493"><ele>52.0</ele><time>2026-03-26T10:19:48.998Z</time></trkpt><trkpt lat="47.72481954738205" lon="-1.7254051808846793"><ele>52.0</ele><time>2026-03-26T10:19:49.998Z</time></trkpt><trkpt lat="47.724807788279044" lon="-1.7252592409141143"><ele>51.8</ele><time>2026-03-26T10:19:50.998Z</time></trkpt><trkpt lat="47.72480680316522" lon="-1.7251280453499447"><ele>51.6</ele><time>2026-03-26T10:19:51.998Z</time></trkpt><trkpt lat="47.724789013964674" lon="-1.7250343592311936"><ele>51.4</ele><time>2026-03-26T10:19:52.998Z</time></trkpt><trkpt lat="47.72475300222722" lon="-1.7249450074852193"><ele>51.199999999999996</ele><time>2026-03-26T10:19:53.998Z</time></trkpt><trkpt lat="47.72487934801543" lon="-1.7247660798648425"><ele>51.0</ele><time>2026-03-26T10:19:55.998Z</time></trkpt><trkpt lat="47.72496508437746" lon="-1.7246286200924492"><ele>51.0</ele><time>2026-03-26T10:19:56.998Z</time></trkpt><trkpt lat="47.725054653800704" lon="-1.7244986871373338"><ele>51.0</ele><time>2026-03-26T10:19:57.998Z</time></trkpt><trkpt lat="47.7251411794595" lon="-1.724382213267019"><ele>51.0</ele><time>2026-03-26T10:19:58.998Z</time></trkpt><trkpt lat="47.72523051786151" lon="-1.7242602721828033"><ele>51.0</ele><time>2026-03-26T10:19:59.998Z</time></trkpt><trkpt lat="47.72533757597758" lon="-1.7241410143293248"><ele>51.75</ele><time>2026-03-26T10:20:00.998Z</time></trkpt><trkpt lat="47.725447324729714" lon="-1.7240329935987873"><ele>52.5</ele><time>2026-03-26T10:20:01.998Z</time></trkpt><trkpt lat="47.72557027539457" lon="-1.723911645193593"><ele>53.25</ele><time>2026-03-26T10:20:02.998Z</time></trkpt><trkpt lat="47.72569055694995" lon="-1.7237826360806765"><ele>54.0</ele><time>2026-03-26T10:20:03.998Z</time></trkpt><trkpt lat="47.725793720538135" lon="-1.723666398178749"><ele>54.0</ele><time>2026-03-26T10:20:04.998Z</time></trkpt><trkpt lat="47.72588705629128" lon="-1.723564245871998"><ele>54.0</ele><time>2026-03-26T10:20:05.998Z</time></trkpt><trkpt lat="47.72599364680012" lon="-1.7234708658131939"><ele>54.0</ele><time>2026-03-26T10:20:06.998Z</time></trkpt><trkpt lat="47.72609763000114" lon="-1.7233563424442622"><ele>54.0</ele><time>2026-03-26T10:20:07.998Z</time></trkpt><trkpt lat="47.726213329987054" lon="-1.72323536485836"><ele>54.5</ele><time>2026-03-26T10:20:08.998Z</time></trkpt><trkpt lat="47.72632524932123" lon="-1.7231115910932568"><ele>55.0</ele><time>2026-03-26T10:20:09.998Z</time></trkpt><trkpt lat="47.72642363231754" lon="-1.7229915745734408"><ele>55.5</ele><time>2026-03-26T10:20:11Z</time></trkpt><trkpt lat="47.72652675522403" lon="-1.7228725181685443"><ele>56.0</ele><time>2026-03-26T10:20:12Z</time></trkpt><trkpt lat="47.72661873234808" lon="-1.722757642250699"><ele>56.0</ele><time>2026-03-26T10:20:13Z</time></trkpt><trkpt lat="47.726691184029605" lon="-1.7226212115646529"><ele>55.99999999999999</ele><time>2026-03-26T10:20:14Z</time></trkpt><trkpt lat="47.72676653767355" lon="-1.7225091953196803"><ele>55.99999999999999</ele><time>2026-03-26T10:20:15Z</time></trkpt><trkpt lat="47.72683451319033" lon="-1.7224106769592185"><ele>56.0</ele><time>2026-03-26T10:20:16Z</time></trkpt><trkpt lat="47.72689584178605" lon="-1.7223085795734645"><ele>56.0</ele><time>2026-03-26T10:20:17Z</time></trkpt><trkpt lat="47.72696172990092" lon="-1.7221935472721115"><ele>56.5</ele><time>2026-03-26T10:20:18Z</time></trkpt><trkpt lat="47.727037380277125" lon="-1.7220625318070681"><ele>57.0</ele><time>2026-03-26T10:20:19Z</time></trkpt><trkpt lat="47.727111353518005" lon="-1.7219255397187576"><ele>57.5</ele><time>2026-03-26T10:20:20Z</time></trkpt><trkpt lat="47.7272022337316" lon="-1.7218012576942183"><ele>58.0</ele><time>2026-03-26T10:20:21Z</time></trkpt><trkpt lat="47.727301272380366" lon="-1.7216699240296394"><ele>58.75</ele><time>2026-03-26T10:20:22Z</time></trkpt><trkpt lat="47.727440995008166" lon="-1.7215794104520592"><ele>59.5</ele><time>2026-03-26T10:20:23Z</time></trkpt><trkpt lat="47.727529103986626" lon="-1.7214959799979406"><ele>60.25</ele><time>2026-03-26T10:20:24Z</time></trkpt><trkpt lat="47.7276177851536" lon="-1.7214066782488135"><ele>61.0</ele><time>2026-03-26T10:20:25Z</time></trkpt><trkpt lat="47.72767932360802" lon="-1.7212773081572523"><ele>60.75</ele><time>2026-03-26T10:20:26Z</time></trkpt><trkpt lat="47.727760374640866" lon="-1.7211400123438418"><ele>60.5</ele><time>2026-03-26T10:20:27Z</time></trkpt><trkpt lat="47.727847838411776" lon="-1.7210032970173632"><ele>60.25</ele><time>2026-03-26T10:20:28Z</time></trkpt><trkpt lat="47.72794207234949" lon="-1.720860778623769"><ele>60.0</ele><time>2026-03-26T10:20:29Z</time></trkpt><trkpt lat="47.72804407793149" lon="-1.7207291203209596"><ele>60.0</ele><time>2026-03-26T10:20:30Z</time></trkpt><trkpt lat="47.728151585376445" lon="-1.7206170975283017"><ele>60.0</ele><time>2026-03-26T10:20:31Z</time></trkpt><trkpt lat="47.72821324207782" lon="-1.7204854039776893"><ele>60.0</ele><time>2026-03-26T10:20:32Z</time></trkpt><trkpt lat="47.728273750244796" lon="-1.720355314376842"><ele>60.0</ele><time>2026-03-26T10:20:33Z</time></trkpt><trkpt lat="47.72834340039708" lon="-1.7202266179453143"><ele>60.0</ele><time>2026-03-26T10:20:34Z</time></trkpt><trkpt lat="47.72841708040218" lon="-1.7201229079974685"><ele>60.0</ele><time>2026-03-26T10:20:35Z</time></trkpt><trkpt lat="47.72849481397159" lon="-1.7200720867664574"><ele>60.0</ele><time>2026-03-26T10:20:36Z</time></trkpt><trkpt lat="47.72855961129103" lon="-1.7200387223752585"><ele>60.0</ele><time>2026-03-26T10:20:37Z</time></trkpt><trkpt lat="47.72870412938467" lon="-1.7200502777876558"><ele>60.0</ele><time>2026-03-26T10:20:39Z</time></trkpt><trkpt lat="47.728783305897956" lon="-1.7201597525311085"><ele>59.8</ele><time>2026-03-26T10:20:40Z</time></trkpt><trkpt lat="47.72885447965925" lon="-1.720215305100697"><ele>59.6</ele><time>2026-03-26T10:20:41Z</time></trkpt><trkpt lat="47.7289664384268" lon="-1.7202879162529983"><ele>59.400000000000006</ele><time>2026-03-26T10:20:42Z</time></trkpt><trkpt lat="47.72905680342146" lon="-1.7203238786079458"><ele>59.2</ele><time>2026-03-26T10:20:43Z</time></trkpt><trkpt lat="47.72919209885154" lon="-1.7203561869105715"><ele>59.0</ele><time>2026-03-26T10:20:44Z</time></trkpt><trkpt lat="47.72933531952443" lon="-1.7203904229956142"><ele>59.25</ele><time>2026-03-26T10:20:45Z</time></trkpt><trkpt lat="47.72946708935525" lon="-1.7203631127400727"><ele>59.5</ele><time>2026-03-26T10:20:46Z</time></trkpt><trkpt lat="47.72958620654697" lon="-1.7203550544329618"><ele>59.75</ele><time>2026-03-26T10:20:46.999Z</time></trkpt><trkpt lat="47.729712588502004" lon="-1.7203499566422007"><ele>60.0</ele><time>2026-03-26T10:20:47.999Z</time></trkpt><trkpt lat="47.72986569219056" lon="-1.7203383754866155"><ele>60.0</ele><time>2026-03-26T10:20:48.999Z</time></trkpt><trkpt lat="47.730002529525" lon="-1.7203157578124026"><ele>60.0</ele><time>2026-03-26T10:20:49.999Z</time></trkpt><trkpt lat="47.73015658085492" lon="-1.7202869729141679"><ele>60.0</ele><time>2026-03-26T10:20:50.999Z</time></trkpt><trkpt lat="47.730315755422694" lon="-1.7202651282086332"><ele>60.66666666666667</ele><time>2026-03-26T10:20:51.999Z</time></trkpt><trkpt lat="47.73049265180762" lon="-1.7202312243375149"><ele>61.333333333333336</ele><time>2026-03-26T10:20:52.999Z</time></trkpt><trkpt lat="47.73066713681998" lon="-1.7201990799534166"><ele>62.0</ele><time>2026-03-26T10:20:53.999Z</time></trkpt><trkpt lat="47.73082331904844" lon="-1.7201640727632475"><ele>62.0</ele><time>2026-03-26T10:20:54.999Z</time></trkpt><trkpt lat="47.73098660134021" lon="-1.7201223118378433"><ele>62.0</ele><time>2026-03-26T10:20:55.999Z</time></trkpt><trkpt lat="47.73114307330653" lon="-1.7200633089630504"><ele>62.0</ele><time>2026-03-26T10:20:56.999Z</time></trkpt><trkpt lat="47.73130148939747" lon="-1.7199885405925266"><ele>63.0</ele><time>2026-03-26T10:20:57.999Z</time></trkpt><trkpt lat="47.73145360804622" lon="-1.7198816526604448"><ele>64.0</ele><time>2026-03-26T10:20:58.999Z</time></trkpt><trkpt lat="47.73157454378794" lon="-1.7197473143737025"><ele>65.0</ele><time>2026-03-26T10:20:59.999Z</time></trkpt><trkpt lat="47.731674448358746" lon="-1.7196514960481282"><ele>66.0</ele><time>2026-03-26T10:21:00.999Z</time></trkpt><trkpt lat="47.73175109730051" lon="-1.7195768502447253"><ele>66.0</ele><time>2026-03-26T10:21:01.999Z</time></trkpt><trkpt lat="47.73181497154578" lon="-1.7195177672966744"><ele>66.0</ele><time>2026-03-26T10:21:02.999Z</time></trkpt><trkpt lat="47.731896595805445" lon="-1.7194627177022328"><ele>66.0</ele><time>2026-03-26T10:21:04.999Z</time></trkpt><trkpt lat="47.731901936251816" lon="-1.719720384491335"><ele>66.0</ele><time>2026-03-26T10:21:08.999Z</time></trkpt><trkpt lat="47.73184125772659" lon="-1.71980967082001"><ele>66.0</ele><time>2026-03-26T10:21:09.999Z</time></trkpt><trkpt lat="47.731782912130214" lon="-1.7199087661176344"><ele>66.0</ele><time>2026-03-26T10:21:10.999Z</time></trkpt><trkpt lat="47.73171822074374" lon="-1.7200493662073486"><ele>66.0</ele><time>2026-03-26T10:21:11.999Z</time></trkpt><trkpt lat="47.73165613614501" lon="-1.7201709999082073"><ele>66.0</ele><time>2026-03-26T10:21:12.999Z</time></trkpt><trkpt lat="47.731611294015735" lon="-1.720308366473229"><ele>66.0</ele><time>2026-03-26T10:21:13.999Z</time></trkpt><trkpt lat="47.73154442355675" lon="-1.7204549201373802"><ele>66.0</ele><time>2026-03-26T10:21:14.999Z</time></trkpt><trkpt lat="47.73148222862707" lon="-1.7206172468732819"><ele>65.75</ele><time>2026-03-26T10:21:15.999Z</time></trkpt><trkpt lat="47.73142981223775" lon="-1.7208015814462185"><ele>65.5</ele><time>2026-03-26T10:21:16.999Z</time></trkpt><trkpt lat="47.731395593906214" lon="-1.721013872696604"><ele>65.25</ele><time>2026-03-26T10:21:17.999Z</time></trkpt><trkpt lat="47.73137282474669" lon="-1.7212302206734011"><ele>65.0</ele><time>2026-03-26T10:21:18.999Z</time></trkpt><trkpt lat="47.731348563318434" lon="-1.7214702103588504"><ele>65.0</ele><time>2026-03-26T10:21:19.999Z</time></trkpt><trkpt lat="47.73132414049424" lon="-1.7217117965817104"><ele>65.0</ele><time>2026-03-26T10:21:20.999Z</time></trkpt><trkpt lat="47.731297999173776" lon="-1.7219854823959213"><ele>65.0</ele><time>2026-03-26T10:21:21.999Z</time></trkpt><trkpt lat="47.73127506558096" lon="-1.7222347439039492"><ele>65.0</ele><time>2026-03-26T10:21:22.999Z</time></trkpt><trkpt lat="47.7312539402196" lon="-1.722475096280531"><ele>65.0</ele><time>2026-03-26T10:21:23.999Z</time></trkpt><trkpt lat="47.73123195858825" lon="-1.7227251907935262"><ele>65.0</ele><time>2026-03-26T10:21:24.999Z</time></trkpt><trkpt lat="47.73120330067143" lon="-1.7229751368777522"><ele>65.66666666666667</ele><time>2026-03-26T10:21:25.999Z</time></trkpt><trkpt lat="47.73118003691965" lon="-1.7232350500641131"><ele>66.33333333333333</ele><time>2026-03-26T10:21:26.999Z</time></trkpt><trkpt lat="47.73115764314084" lon="-1.7234975800816832"><ele>67.0</ele><time>2026-03-26T10:21:27.999Z</time></trkpt><trkpt lat="47.73111455098662" lon="-1.7237568566664279"><ele>67.25</ele><time>2026-03-26T10:21:28.999Z</time></trkpt><trkpt lat="47.73110721063813" lon="-1.7240032471801077"><ele>67.5</ele><time>2026-03-26T10:21:29.999Z</time></trkpt><trkpt lat="47.73108844552521" lon="-1.7241995998640385"><ele>67.75</ele><time>2026-03-26T10:21:30.999Z</time></trkpt><trkpt lat="47.731075159355726" lon="-1.724338622504619"><ele>68.0</ele><time>2026-03-26T10:21:31.999Z</time></trkpt><trkpt lat="47.73106258548254" lon="-1.7244822152730057"><ele>68.0</ele><time>2026-03-26T10:21:33.999Z</time></trkpt><trkpt lat="47.731232344896554" lon="-1.7244543700233546"><ele>68.0</ele><time>2026-03-26T10:21:38.999Z</time></trkpt><trkpt lat="47.73130708381346" lon="-1.7243904575645965"><ele>68.0</ele><time>2026-03-26T10:21:39.999Z</time></trkpt><trkpt lat="47.73136952197746" lon="-1.7243424585695764"><ele>68.0</ele><time>2026-03-26T10:21:40.999Z</time></trkpt><trkpt lat="47.73145997258021" lon="-1.724262238902476"><ele>68.0</ele><time>2026-03-26T10:21:41.999Z</time></trkpt><trkpt lat="47.731562265330226" lon="-1.7241699171228564"><ele>68.0</ele><time>2026-03-26T10:21:42.999Z</time></trkpt><trkpt lat="47.73166588907774" lon="-1.7240754546338373"><ele>68.0</ele><time>2026-03-26T10:21:43.999Z</time></trkpt><trkpt lat="47.731758965645184" lon="-1.7239879496272985"><ele>68.0</ele><time>2026-03-26T10:21:44.999Z</time></trkpt><trkpt lat="47.73185435135025" lon="-1.7238988429171647"><ele>68.0</ele><time>2026-03-26T10:21:45.999Z</time></trkpt><trkpt lat="47.73198096623736" lon="-1.7238050363618727"><ele>68.0</ele><time>2026-03-26T10:21:46.999Z</time></trkpt><trkpt lat="47.73211617450014" lon="-1.7236966272041803"><ele>68.0</ele><time>2026-03-26T10:21:47.999Z</time></trkpt><trkpt lat="47.73223693069771" lon="-1.7235922465425058"><ele>68.0</ele><time>2026-03-26T10:21:48.999Z</time></trkpt><trkpt lat="47.73236583524979" lon="-1.7234804575470275"><ele>68.0</ele><time>2026-03-26T10:21:49.999Z</time></trkpt><trkpt lat="47.732498923036" lon="-1.7233602115649242"><ele>68.66666666666667</ele><time>2026-03-26T10:21:50.999Z</time></trkpt><trkpt lat="47.732643318267776" lon="-1.723237592630493"><ele>69.33333333333333</ele><time>2026-03-26T10:21:51.998Z</time></trkpt><trkpt lat="47.73280672535871" lon="-1.7231149023818426"><ele>70.0</ele><time>2026-03-26T10:21:52.998Z</time></trkpt><trkpt lat="47.7329619147952" lon="-1.722947174303131"><ele>70.0</ele><time>2026-03-26T10:21:53.998Z</time></trkpt><trkpt lat="47.73311382733339" lon="-1.7228401554839867"><ele>70.0</ele><time>2026-03-26T10:21:54.998Z</time></trkpt><trkpt lat="47.73328747458094" lon="-1.722746384228988"><ele>70.0</ele><time>2026-03-26T10:21:55.998Z</time></trkpt><trkpt lat="47.73346997710041" lon="-1.722667702570847"><ele>70.0</ele><time>2026-03-26T10:21:56.998Z</time></trkpt><trkpt lat="47.733655303751775" lon="-1.7225782023545178"><ele>70.0</ele><time>2026-03-26T10:21:57.998Z</time></trkpt><trkpt lat="47.73385314575714" lon="-1.722480573076429"><ele>70.0</ele><time>2026-03-26T10:21:58.998Z</time></trkpt><trkpt lat="47.73404854452493" lon="-1.722382844339524"><ele>70.0</ele><time>2026-03-26T10:21:59.998Z</time></trkpt><trkpt lat="47.73423719208808" lon="-1.722280733756808"><ele>70.0</ele><time>2026-03-26T10:22:00.998Z</time></trkpt><trkpt lat="47.734443173686756" lon="-1.7221583612692037"><ele>70.0</ele><time>2026-03-26T10:22:01.998Z</time></trkpt><trkpt lat="47.734640487726416" lon="-1.722024693128094"><ele>70.66666666666666</ele><time>2026-03-26T10:22:02.998Z</time></trkpt><trkpt lat="47.73483169651576" lon="-1.7218920137466889"><ele>71.33333333333333</ele><time>2026-03-26T10:22:03.998Z</time></trkpt><trkpt lat="47.73502684543642" lon="-1.7217476244831356"><ele>72.0</ele><time>2026-03-26T10:22:04.998Z</time></trkpt><trkpt lat="47.73524040332761" lon="-1.7215956769243845"><ele>72.0</ele><time>2026-03-26T10:22:05.998Z</time></trkpt><trkpt lat="47.73544942489142" lon="-1.7214587520282592"><ele>72.0</ele><time>2026-03-26T10:22:06.998Z</time></trkpt><trkpt lat="47.73565556130083" lon="-1.721340225864097"><ele>72.0</ele><time>2026-03-26T10:22:07.998Z</time></trkpt><trkpt lat="47.73586008448159" lon="-1.721198232208921"><ele>72.33333333333333</ele><time>2026-03-26T10:22:08.998Z</time></trkpt><trkpt lat="47.736058103684094" lon="-1.7210438972162905"><ele>72.66666666666666</ele><time>2026-03-26T10:22:09.998Z</time></trkpt><trkpt lat="47.73624069625215" lon="-1.7208945915047935"><ele>73.0</ele><time>2026-03-26T10:22:10.998Z</time></trkpt><trkpt lat="47.73639176911678" lon="-1.7207583368851378"><ele>73.0</ele><time>2026-03-26T10:22:11.998Z</time></trkpt><trkpt lat="47.736501696363895" lon="-1.7206627023460903"><ele>73.0</ele><time>2026-03-26T10:22:12.998Z</time></trkpt><trkpt lat="47.736585582694595" lon="-1.720600122847236"><ele>73.0</ele><time>2026-03-26T10:22:13.998Z</time></trkpt><trkpt lat="47.7366616379315" lon="-1.720550916642185"><ele>73.0</ele><time>2026-03-26T10:22:14.998Z</time></trkpt><trkpt lat="47.73673001219622" lon="-1.7205465596685663"><ele>73.0</ele><time>2026-03-26T10:22:15.998Z</time></trkpt><trkpt lat="47.73686526406349" lon="-1.7208361905451401"><ele>72.5</ele><time>2026-03-26T10:22:19Z</time></trkpt><trkpt lat="47.736912971730604" lon="-1.7210340721350839"><ele>72.0</ele><time>2026-03-26T10:22:20Z</time></trkpt><trkpt lat="47.73694340005351" lon="-1.7212390434124956"><ele>71.5</ele><time>2026-03-26T10:22:21Z</time></trkpt><trkpt lat="47.73699520014978" lon="-1.7214494464260488"><ele>71.0</ele><time>2026-03-26T10:22:22Z</time></trkpt><trkpt lat="47.73704042822628" lon="-1.7216587053612"><ele>71.0</ele><time>2026-03-26T10:22:23Z</time></trkpt><trkpt lat="47.73708511262927" lon="-1.7218646140499043"><ele>71.0</ele><time>2026-03-26T10:22:24Z</time></trkpt><trkpt lat="47.73713758345407" lon="-1.7221033470412812"><ele>71.0</ele><time>2026-03-26T10:22:25Z</time></trkpt><trkpt lat="47.7371970813441" lon="-1.7223628770348796"><ele>70.66666666666667</ele><time>2026-03-26T10:22:26Z</time></trkpt><trkpt lat="47.7372575607314" lon="-1.722631079497282"><ele>70.33333333333333</ele><time>2026-03-26T10:22:27Z</time></trkpt><trkpt lat="47.737320473593485" lon="-1.722910434134946"><ele>70.0</ele><time>2026-03-26T10:22:28Z</time></trkpt><trkpt lat="47.73738443536963" lon="-1.7231975514697666"><ele>70.0</ele><time>2026-03-26T10:22:29Z</time></trkpt><trkpt lat="47.737453342524255" lon="-1.7234670707833772"><ele>70.0</ele><time>2026-03-26T10:22:30Z</time></trkpt><trkpt lat="47.73752894102788" lon="-1.7237531852454409"><ele>70.0</ele><time>2026-03-26T10:22:31Z</time></trkpt><trkpt lat="47.73761373753267" lon="-1.7240486411023963"><ele>70.0</ele><time>2026-03-26T10:22:32Z</time></trkpt><trkpt lat="47.73771731860196" lon="-1.7243480719933988"><ele>70.0</ele><time>2026-03-26T10:22:33Z</time></trkpt><trkpt lat="47.73782654041722" lon="-1.7246562015277898"><ele>70.0</ele><time>2026-03-26T10:22:34Z</time></trkpt><trkpt lat="47.737926461797386" lon="-1.7249455502093212"><ele>70.0</ele><time>2026-03-26T10:22:35Z</time></trkpt><trkpt lat="47.738017553376196" lon="-1.7251939244286456"><ele>70.0</ele><time>2026-03-26T10:22:36Z</time></trkpt><trkpt lat="47.73810046693193" lon="-1.7254234739353091"><ele>70.0</ele><time>2026-03-26T10:22:37Z</time></trkpt><trkpt lat="47.738173962922545" lon="-1.7256272669336237"><ele>70.0</ele><time>2026-03-26T10:22:38Z</time></trkpt><trkpt lat="47.738236489486425" lon="-1.7257852592597922"><ele>70.0</ele><time>2026-03-26T10:22:39Z</time></trkpt><trkpt lat="47.73828528856571" lon="-1.7259112621847992"><ele>70.0</ele><time>2026-03-26T10:22:40Z</time></trkpt><trkpt lat="47.73832643385316" lon="-1.726026606504422"><ele>70.4</ele><time>2026-03-26T10:22:41Z</time></trkpt><trkpt lat="47.73836256769487" lon="-1.726123450964468"><ele>70.8</ele><time>2026-03-26T10:22:42Z</time></trkpt><trkpt lat="47.73838960046067" lon="-1.726230247490033"><ele>71.2</ele><time>2026-03-26T10:22:44Z</time></trkpt><trkpt lat="47.738219818657065" lon="-1.7263617157937459"><ele>71.6</ele><time>2026-03-26T10:22:48Z</time></trkpt><trkpt lat="47.73815176179094" lon="-1.7263482025299781"><ele>72.0</ele><time>2026-03-26T10:22:49Z</time></trkpt><trkpt lat="47.73803927338612" lon="-1.7263655089631043"><ele>72.0</ele><time>2026-03-26T10:22:50Z</time></trkpt><trkpt lat="47.73791887792559" lon="-1.7263913756142604"><ele>72.0</ele><time>2026-03-26T10:22:51Z</time></trkpt><trkpt lat="47.73780935640771" lon="-1.7264296071361223"><ele>72.0</ele><time>2026-03-26T10:22:52Z</time></trkpt><trkpt lat="47.737685405392334" lon="-1.7264429170838633"><ele>72.0</ele><time>2026-03-26T10:22:53Z</time></trkpt><trkpt lat="47.7375388448475" lon="-1.726465751231612"><ele>71.66666666666667</ele><time>2026-03-26T10:22:54Z</time></trkpt><trkpt lat="47.73738126272731" lon="-1.72651813573274"><ele>71.33333333333334</ele><time>2026-03-26T10:22:55Z</time></trkpt><trkpt lat="47.73721902484823" lon="-1.7265505220721546"><ele>71.0</ele><time>2026-03-26T10:22:56Z</time></trkpt><trkpt lat="47.73705736300698" lon="-1.7265846766022055"><ele>71.0</ele><time>2026-03-26T10:22:57Z</time></trkpt><trkpt lat="47.73687775308475" lon="-1.7266220744147827"><ele>71.0</ele><time>2026-03-26T10:22:58Z</time></trkpt><trkpt lat="47.73668531681001" lon="-1.7266602768157515"><ele>71.0</ele><time>2026-03-26T10:22:59Z</time></trkpt><trkpt lat="47.73648370421977" lon="-1.7267003009056199"><ele>71.0</ele><time>2026-03-26T10:23:00Z</time></trkpt><trkpt lat="47.73629193310865" lon="-1.72673837127052"><ele>71.0</ele><time>2026-03-26T10:23:00.999Z</time></trkpt><trkpt lat="47.736078927439294" lon="-1.7267835823394795"><ele>71.0</ele><time>2026-03-26T10:23:01.999Z</time></trkpt><trkpt lat="47.735868430711506" lon="-1.7268278225073337"><ele>70.0</ele><time>2026-03-26T10:23:02.999Z</time></trkpt><trkpt lat="47.73565669483669" lon="-1.7268715480335473"><ele>69.0</ele><time>2026-03-26T10:23:03.999Z</time></trkpt><trkpt lat="47.735433434329806" lon="-1.7269170415231512"><ele>68.0</ele><time>2026-03-26T10:23:04.999Z</time></trkpt><trkpt lat="47.735215312025005" lon="-1.726938281538128"><ele>67.0</ele><time>2026-03-26T10:23:05.999Z</time></trkpt><trkpt lat="47.734994197098025" lon="-1.726994310267798"><ele>66.0</ele><time>2026-03-26T10:23:06.999Z</time></trkpt><trkpt lat="47.73478316885551" lon="-1.7270824901706656"><ele>65.0</ele><time>2026-03-26T10:23:07.999Z</time></trkpt><trkpt lat="47.734569863921145" lon="-1.7271783715712277"><ele>66.0</ele><time>2026-03-26T10:23:08.999Z</time></trkpt><trkpt lat="47.73435581471465" lon="-1.7272803556621572"><ele>67.0</ele><time>2026-03-26T10:23:09.999Z</time></trkpt><trkpt lat="47.734127907692674" lon="-1.7273747531807904"><ele>67.0</ele><time>2026-03-26T10:23:10.999Z</time></trkpt><trkpt lat="47.73391671857856" lon="-1.7274773369219005"><ele>67.0</ele><time>2026-03-26T10:23:11.999Z</time></trkpt><trkpt lat="47.7336984612614" lon="-1.7275894605677"><ele>67.0</ele><time>2026-03-26T10:23:12.999Z</time></trkpt><trkpt lat="47.733480654248034" lon="-1.7276859960418434"><ele>67.0</ele><time>2026-03-26T10:23:13.999Z</time></trkpt><trkpt lat="47.7332635397154" lon="-1.7277919956655186"><ele>66.0</ele><time>2026-03-26T10:23:14.999Z</time></trkpt><trkpt lat="47.73304496928351" lon="-1.7278947229929966"><ele>65.0</ele><time>2026-03-26T10:23:15.999Z</time></trkpt><trkpt lat="47.73283154954282" lon="-1.728038211829158"><ele>65.5</ele><time>2026-03-26T10:23:16.999Z</time></trkpt><trkpt lat="47.7326098509302" lon="-1.7281601442452175"><ele>66.0</ele><time>2026-03-26T10:23:17.999Z</time></trkpt><trkpt lat="47.73238978152816" lon="-1.7283145632903436"><ele>66.0</ele><time>2026-03-26T10:23:18.999Z</time></trkpt><trkpt lat="47.7321645331737" lon="-1.7284601091580054"><ele>66.0</ele><time>2026-03-26T10:23:19.999Z</time></trkpt><trkpt lat="47.7319452749562" lon="-1.7286382436184196"><ele>63.5</ele><time>2026-03-26T10:23:20.999Z</time></trkpt><trkpt lat="47.731723639822434" lon="-1.7287897855374463"><ele>61.0</ele><time>2026-03-26T10:23:21.999Z</time></trkpt><trkpt lat="47.73151621152689" lon="-1.7289315665903338"><ele>61.0</ele><time>2026-03-26T10:23:22.999Z</time></trkpt><trkpt lat="47.73132240306967" lon="-1.7290503990202308"><ele>61.0</ele><time>2026-03-26T10:23:23.999Z</time></trkpt><trkpt lat="47.7311437703251" lon="-1.7291696973686834"><ele>61.0</ele><time>2026-03-26T10:23:24.999Z</time></trkpt><trkpt lat="47.730965802215586" lon="-1.7292902149757348"><ele>59.666666666666664</ele><time>2026-03-26T10:23:25.999Z</time></trkpt><trkpt lat="47.73078029301614" lon="-1.729416006684187"><ele>58.33333333333333</ele><time>2026-03-26T10:23:26.999Z</time></trkpt><trkpt lat="47.73059223663946" lon="-1.7295506707083852"><ele>57.0</ele><time>2026-03-26T10:23:27.999Z</time></trkpt><trkpt lat="47.73041545549756" lon="-1.729697535343544"><ele>57.0</ele><time>2026-03-26T10:23:28.999Z</time></trkpt><trkpt lat="47.730240256030896" lon="-1.7297941606414677"><ele>57.0</ele><time>2026-03-26T10:23:29.999Z</time></trkpt><trkpt lat="47.73006412522884" lon="-1.729883917832083"><ele>57.0</ele><time>2026-03-26T10:23:30.999Z</time></trkpt><trkpt lat="47.729905059834465" lon="-1.7299548413294923"><ele>57.0</ele><time>2026-03-26T10:23:31.999Z</time></trkpt><trkpt lat="47.72975164119251" lon="-1.7299531884938357"><ele>57.0</ele><time>2026-03-26T10:23:32.999Z</time></trkpt><trkpt lat="47.7295797947462" lon="-1.729935295425578"><ele>57.0</ele><time>2026-03-26T10:23:33.999Z</time></trkpt><trkpt lat="47.72938823315138" lon="-1.7299157785864268"><ele>57.0</ele><time>2026-03-26T10:23:34.999Z</time></trkpt><trkpt lat="47.72920883928616" lon="-1.7298884287153733"><ele>57.0</ele><time>2026-03-26T10:23:35.999Z</time></trkpt><trkpt lat="47.729054225091524" lon="-1.7298841141101218"><ele>57.0</ele><time>2026-03-26T10:23:36.999Z</time></trkpt><trkpt lat="47.72891101007474" lon="-1.7298760159359"><ele>57.0</ele><time>2026-03-26T10:23:37.999Z</time></trkpt><trkpt lat="47.72878360232414" lon="-1.7298885467026914"><ele>57.0</ele><time>2026-03-26T10:23:38.999Z</time></trkpt><trkpt lat="47.72868053189481" lon="-1.7299281750565698"><ele>57.0</ele><time>2026-03-26T10:23:39.999Z</time></trkpt><trkpt lat="47.728582564014495" lon="-1.7299640682226114"><ele>57.0</ele><time>2026-03-26T10:23:40.999Z</time></trkpt><trkpt lat="47.72850381111632" lon="-1.7299959792887387"><ele>57.0</ele><time>2026-03-26T10:23:41.999Z</time></trkpt><trkpt lat="47.72843164994131" lon="-1.7300286095600421"><ele>57.0</ele><time>2026-03-26T10:23:43.999Z</time></trkpt><trkpt lat="47.72834719276244" lon="-1.7297469543804593"><ele>57.0</ele><time>2026-03-26T10:23:45.999Z</time></trkpt><trkpt lat="47.72832404612451" lon="-1.7296446362805564"><ele>57.0</ele><time>2026-03-26T10:23:47.999Z</time></trkpt><trkpt lat="47.72831933637592" lon="-1.729548662921133"><ele>57.0</ele><time>2026-03-26T10:23:52.999Z</time></trkpt><trkpt lat="47.7281996734632" lon="-1.7296243843452157"><ele>57.0</ele><time>2026-03-26T10:23:55.999Z</time></trkpt><trkpt lat="47.72813189692191" lon="-1.7296456722762341"><ele>57.0</ele><time>2026-03-26T10:24:06.998Z</time></trkpt><trkpt lat="47.72805646530508" lon="-1.7296654507087026"><ele>57.0</ele><time>2026-03-26T10:24:21.998Z</time></trkpt><trkpt lat="47.72799423401892" lon="-1.729681614568796"><ele>57.0</ele><time>2026-03-26T10:24:23Z</time></trkpt><trkpt lat="47.72790450981437" lon="-1.7297006954000627"><ele>57.0</ele><time>2026-03-26T10:24:25Z</time></trkpt><trkpt lat="47.72780900668828" lon="-1.7297138876737161"><ele>57.0</ele><time>2026-03-26T10:24:28Z</time></trkpt><trkpt lat="47.727733292107814" lon="-1.729691658990425"><ele>56.5</ele><time>2026-03-26T10:24:31Z</time></trkpt><trkpt lat="47.72771685969961" lon="-1.7295234654971807"><ele>56.0</ele><time>2026-03-26T10:24:59Z</time></trkpt><trkpt lat="47.727702012288425" lon="-1.729430463452834"><ele>55.5</ele><time>2026-03-26T10:25:02Z</time></trkpt><trkpt lat="47.72763570309405" lon="-1.729162568228067"><ele>55.0</ele><time>2026-03-26T10:25:11.999Z</time></trkpt><trkpt lat="47.72745947649183" lon="-1.7293396466405184"><ele>55.0</ele><time>2026-03-26T10:25:13.999Z</time></trkpt><trkpt lat="47.72755579505107" lon="-1.7296293043214424"><ele>55.0</ele><time>2026-03-26T10:25:14.999Z</time></trkpt><trkpt lat="47.727734534818254" lon="-1.7295105803296975"><ele>55.0</ele><time>2026-03-26T10:26:38.572Z</time></trkpt><trkpt lat="47.72756809518611" lon="-1.7292880619958315"><ele>55.0</ele><time>2026-03-26T10:27:30.529Z</time></trkpt></trkseg></trk></gpx>